GEFSSGP_500_meanwind_012.txt.gz
Wind_Speed
1 1 1 2 1 2 3 4 4 6 8 9 9 8 7 5 3 1 0 2 3 6 9 11 13 12 11 10 11 12 14 16 18 18 16 13 11 10 8 8 8 6 5 4 4 4 3 7 11
1 2 2 3 3 3 3 4 4 6 8 9 9 8 7 6 5 3 0 1 1 2 5 8 11 12 11 10 9 11 13 15 16 17 16 15 13 11 10 9 9 9 7 6 5 4 3 4 9
2 2 2 3 3 4 5 3 2 5 6 7 8 9 8 8 7 5 3 2 2 1 2 5 8 10 10 9 8 9 11 13 14 16 16 15 14 13 11 10 10 10 9 7 5 5 4 1 7
2 2 1 3 3 2 3 3 1 3 5 7 7 8 10 10 10 8 5 3 3 3 2 2 4 7 9 8 7 7 8 10 12 14 16 16 15 14 13 12 10 10 9 8 5 5 5 2 4
4 3 3 3 2 1 3 4 2 1 5 8 7 8 9 10 11 10 8 5 4 4 4 3 2 5 7 7 6 6 6 8 10 12 15 16 16 16 15 13 10 9 8 7 5 4 4 3 2
6 3 2 1 0 1 2 2 1 2 6 8 9 9 8 9 9 10 10 7 4 5 5 4 2 3 5 6 5 4 4 6 8 10 12 15 16 16 16 15 12 10 8 7 5 3 2 2 1
8 6 3 1 1 1 0 1 2 5 7 8 9 10 9 8 8 9 9 8 6 5 6 6 4 2 2 4 5 4 4 4 7 8 10 12 14 15 15 16 15 12 9 7 5 2 1 0 1
10 9 8 4 3 4 3 2 3 5 7 8 9 9 9 9 9 8 9 9 7 6 7 8 7 5 3 2 3 4 4 5 6 7 8 9 11 12 13 15 15 13 11 8 6 3 2 3 4
12 12 11 9 8 7 5 4 4 5 6 7 8 9 9 10 10 9 9 9 7 7 8 10 10 9 7 5 4 4 5 6 6 7 7 7 8 9 11 12 13 13 11 10 8 6 5 6 7
15 14 13 12 10 9 9 8 8 7 8 8 9 10 10 11 11 10 9 8 8 8 9 10 11 11 10 9 7 7 7 7 7 8 8 7 7 8 9 10 11 11 11 11 10 8 7 7 9
17 16 15 14 13 12 13 13 12 11 10 10 11 12 13 13 13 13 11 10 8 8 9 10 12 12 12 11 10 9 10 10 10 10 9 8 8 7 8 9 10 10 10 11 11 10 7 8 10
18 18 18 17 16 16 16 17 16 15 14 13 14 14 15 15 15 15 14 12 10 9 9 10 11 12 13 13 12 11 11 12 13 12 12 12 10 8 7 9 9 9 8 9 10 10 9 8 10
20 20 20 19 18 18 18 18 19 18 18 17 17 17 16 16 16 17 17 15 13 11 10 10 11 12 13 14 14 13 14 15 15 14 14 14 12 10 8 9 10 10 10 9 8 9 9 8 9
21 21 22 22 21 21 21 21 21 21 22 22 21 20 18 17 17 18 19 18 16 14 13 12 13 14 16 16 16 16 16 17 16 16 15 14 14 12 12 12 13 12 13 13 11 9 8 7 8
24 25 25 25 26 26 27 25 26 27 26 26 24 23 20 18 17 17 19 20 18 16 15 15 15 17 18 19 18 17 17 16 16 15 15 15 15 15 15 15 15 14 15 16 17 15 11 9 9
29 30 30 31 32 32 33 31 31 31 31 30 28 26 23 21 19 17 19 20 20 19 18 17 17 18 19 20 19 17 16 16 15 15 15 15 16 18 18 17 17 16 17 18 20 20 17 15 13
33 35 35 36 36 37 37 37 36 37 36 35 33 31 29 26 22 20 20 21 22 22 21 20 20 21 21 21 20 18 16 16 16 15 15 16 17 19 20 20 19 19 19 20 21 21 21 20 18
36 38 39 39 40 40 40 40 39 41 41 40 39 37 34 31 27 25 23 23 24 25 25 24 23 24 24 24 23 21 18 17 18 17 17 18 19 20 21 21 21 22 22 23 23 23 24 24 22
37 38 39 40 40 40 40 40 40 42 44 43 42 41 39 35 32 30 28 26 26 26 27 27 26 26 26 25 25 23 21 20 21 21 21 20 21 21 21 22 23 24 25 25 26 25 26 26 26
35 36 37 38 39 40 40 39 41 43 44 44 43 42 41 39 36 33 31 29 27 27 28 30 29 29 29 29 27 26 25 24 23 22 22 22 21 21 21 22 24 26 27 28 28 27 27 27 27
34 35 36 38 39 39 40 39 40 42 44 44 44 43 42 41 39 36 33 31 30 29 30 32 33 34 34 33 32 31 29 27 25 23 22 22 22 21 22 24 25 27 28 28 28 27 27 27 28
34 35 36 37 36 36 37 38 36 37 39 41 41 42 42 41 39 38 35 34 34 34 35 36 36 37 39 39 36 33 29 27 25 24 23 23 24 24 25 25 26 27 27 26 26 26 26 27 27
38 38 39 39 38 37 35 38 37 36 35 35 36 37 39 39 38 37 36 35 36 38 38 39 38 40 41 39 36 33 31 28 26 24 24 25 26 25 25 25 26 25 25 24 24 25 26 27 27
43 43 44 44 43 41 37 38 38 35 32 30 29 30 33 35 36 35 35 36 38 40 41 41 40 44 44 40 37 34 31 28 25 23 23 24 24 24 25 25 25 24 23 24 25 26 27 27 27
47 47 48 48 47 44 39 37 36 31 27 24 23 24 27 30 33 35 36 37 39 40 42 43 43 46 44 40 35 33 30 26 22 21 22 23 24 24 25 25 24 23 23 24 25 26 26 25 25
49 49 47 47 46 42 37 35 33 27 24 21 20 21 23 27 30 34 37 38 39 39 41 41 44 44 41 40 37 32 27 23 20 19 20 22 23 24 25 25 24 24 24 25 26 26 25 24 23
46 44 43 41 38 35 31 31 28 24 23 22 21 20 21 24 28 32 35 37 37 38 38 39 42 39 37 35 30 27 22 18 17 19 20 22 23 25 26 26 26 25 25 26 26 25 24 23 22
30 26 22 22 22 21 22 23 22 22 22 21 21 20 19 21 24 28 31 34 35 34 34 34 35 32 29 27 22 18 14 14 17 19 20 22 24 26 28 29 28 27 27 26 24 24 23 22 21
15 13 11 10 11 12 13 14 15 15 18 17 16 18 17 16 17 20 24 27 27 28 26 25 25 22 20 17 14 12 13 15 17 19 22 23 25 26 27 27 27 26 25 24 23 22 22 21 20
14 11 7 3 1 4 5 5 7 9 11 13 13 14 14 11 10 10 10 9 8 7 9 11 12 12 11 10 10 12 13 15 17 19 21 21 21 22 22 23 23 23 23 23 23 22 21 20 20

GEFSSGP_500_meanwind_018.txt.gz
Wind_Speed
3 4 4 4 3 4 5 5 6 6 5 5 5 5 6 6 4 4 5 5 6 7 10 11 11 10 10 10 12 13 15 16 16 15 14 12 10 8 6 5 4 3 2 1 1 1 3 7 10
4 4 3 3 3 2 3 4 5 6 6 5 5 5 5 5 4 4 5 5 4 4 6 9 10 10 10 10 10 12 13 14 14 14 14 13 11 9 6 5 4 3 2 1 1 1 2 5 9
4 4 5 5 3 2 2 3 5 6 6 4 4 4 5 5 4 3 4 5 5 3 3 6 8 9 8 8 9 9 11 12 13 14 14 14 12 10 8 5 4 3 2 1 1 1 1 3 8
4 4 4 5 4 3 3 3 4 5 6 5 4 4 4 5 5 4 3 4 5 5 3 3 5 7 7 7 7 7 8 9 11 12 13 13 13 13 10 7 5 4 3 1 1 2 2 1 5
3 3 4 4 4 4 3 2 3 4 5 6 6 5 4 4 4 4 3 3 5 6 5 3 3 5 6 5 4 5 6 7 8 9 10 11 12 13 12 10 8 6 5 4 2 2 2 1 3
3 3 4 4 5 4 2 2 3 3 5 6 6 6 5 4 4 4 3 2 3 6 6 5 3 3 4 4 3 3 3 4 5 6 7 8 10 11 12 11 10 9 8 7 5 3 2 1 1
4 4 5 5 5 4 2 1 2 3 4 6 6 7 6 5 4 4 4 3 2 4 6 7 5 4 3 3 4 3 2 2 2 2 4 5 7 8 10 11 11 10 10 9 7 5 3 2 0
5 5 5 5 3 3 2 1 1 2 3 4 5 6 6 6 5 4 4 4 2 2 4 7 8 7 5 4 4 4 3 1 0 1 2 3 4 5 7 9 10 10 10 10 9 7 4 2 1
7 7 7 7 5 5 4 3 3 4 4 5 5 5 6 6 5 5 4 4 2 1 3 6 8 9 8 8 7 6 5 3 2 2 2 3 3 4 5 6 8 9 10 10 9 9 6 3 1
11 10 10 10 9 8 7 6 6 6 7 7 7 7 6 6 5 4 4 4 3 2 3 5 8 10 11 11 10 9 8 7 5 4 4 4 4 4 4 4 5 6 7 8 8 9 7 4 1
15 14 13 13 12 12 11 10 10 10 10 11 10 10 9 8 7 6 5 4 4 4 5 6 8 10 12 13 13 12 11 10 9 8 7 7 6 5 4 4 4 5 5 5 6 7 7 5 2
18 17 16 16 16 16 15 15 14 14 14 14 14 13 12 11 11 9 8 7 6 6 7 8 9 11 12 14 14 14 13 12 11 11 11 10 9 8 7 6 5 5 5 4 3 4 5 4 3
19 19 18 19 19 19 19 19 18 18 17 17 17 16 16 15 15 13 12 10 10 9 10 10 11 11 12 13 14 15 15 14 14 14 13 13 12 10 10 9 8 7 7 6 5 4 4 4 4
21 21 22 22 22 22 23 23 23 23 21 20 19 19 19 20 19 18 16 14 13 12 12 12 12 13 14 14 14 15 16 17 17 17 17 16 15 13 12 12 11 10 10 10 9 7 6 6 5
24 24 25 26 26 26 26 28 28 26 25 24 23 23 23 23 23 23 22 21 19 17 15 15 14 15 16 16 16 16 17 18 19 19 20 19 18 16 15 14 13 13 13 14 13 12 10 9 9
26 27 29 30 30 30 30 33 32 31 30 29 28 27 27 27 27 27 27 26 25 23 21 19 19 18 17 17 18 18 18 18 19 20 21 21 20 19 17 16 16 16 17 17 17 15 14 13 13
30 31 32 34 34 34 35 38 37 35 34 34 33 32 31 30 30 30 30 30 30 28 26 24 23 22 21 20 20 21 21 21 21 22 23 23 22 21 20 20 19 19 20 20 19 19 18 17 17
33 35 36 38 39 38 39 42 41 40 39 38 37 36 35 34 33 33 33 33 32 31 30 29 28 26 26 25 24 24 23 24 24 25 25 26 25 24 23 23 23 22 22 22 21 21 20 20 20
37 38 39 41 41 41 42 44 44 43 43 42 40 39 38 37 36 35 35 35 35 35 33 32 32 31 30 30 29 27 26 25 27 28 29 29 28 27 26 26 25 25 24 24 23 23 23 23 23
37 39 41 42 43 42 43 44 43 43 42 41 40 38 37 36 36 35 36 37 37 37 37 36 35 34 34 34 34 32 30 29 30 31 33 33 32 31 29 27 26 26 25 24 24 24 25 25 25
39 40 41 42 42 42 42 42 41 40 39 37 36 35 34 33 33 34 35 37 39 39 40 39 39 37 37 38 39 36 34 32 32 34 34 35 35 34 32 29 27 26 25 25 25 25 26 26 25
42 42 42 42 41 41 40 39 39 35 34 33 32 31 30 30 30 31 33 36 39 41 42 42 41 40 40 40 41 40 39 38 35 35 35 35 36 36 34 31 28 26 25 25 26 26 26 26 26
45 45 45 44 43 43 41 40 40 36 34 34 33 32 32 31 31 31 32 35 38 41 44 44 43 43 43 43 44 44 46 45 41 39 37 36 36 35 34 31 29 27 25 25 26 26 26 25 25
42 43 44 45 44 44 41 40 41 40 36 36 36 35 35 35 35 34 34 35 37 41 44 46 46 45 45 45 45 47 49 48 46 43 41 40 39 37 35 32 29 26 25 25 25 26 25 25 25
33 35 37 37 36 36 37 37 40 38 36 35 35 35 36 36 36 35 35 36 38 40 43 46 46 46 46 46 47 49 50 51 49 47 45 43 41 39 36 31 27 23 23 24 24 25 25 25 25
24 23 24 24 24 25 26 28 31 30 31 31 31 32 32 32 32 32 33 34 36 38 40 43 44 44 45 46 47 48 49 48 46 44 42 39 38 36 32 26 21 19 22 24 25 25 25 25 25
20 17 14 12 12 14 18 20 21 21 23 25 25 26 26 26 27 28 29 30 31 32 34 36 39 41 42 42 45 45 44 43 41 40 37 36 32 28 21 17 16 20 23 25 26 26 26 25 25
20 17 13 8 4 2 6 10 12 14 15 18 19 19 18 17 19 20 21 22 22 23 25 29 31 34 35 35 37 39 39 35 31 28 27 25 20 15 13 15 18 22 24 25 25 25 25 24 24
21 19 17 15 10 5 3 1 3 6 8 10 10 10 9 10 10 11 12 14 15 17 18 21 23 25 26 26 25 24 23 20 17 16 14 12 10 11 14 17 19 21 22 22 22 22 22 22 22
24 22 19 17 13 10 8 6 3 1 3 6 7 7 6 5 4 3 3 3 5 7 8 10 11 11 11 11 11 10 10 8 7 6 6 6 8 11 13 15 17 18 19 19 19 19 20 20 20

GEFSSGP_500_meanwind_024.txt.gz
Wind_Speed
5 4 4 5 3 4 5 6 6 6 5 5 3 3 2 1 2 3 2 1 4 6 6 6 6 8 9 10 12 13 14 14 15 15 14 13 12 10 9 8 6 4 3 2 2 2 2 3 4
4 2 3 4 3 6 5 5 5 5 5 4 3 3 3 2 2 3 3 3 2 3 5 5 5 6 7 9 10 11 12 13 14 14 15 15 14 13 11 10 9 7 5 4 3 3 2 2 4
3 2 3 3 4 5 5 4 4 4 4 4 4 3 3 2 2 3 3 4 3 1 3 4 4 5 6 7 8 9 10 11 12 13 14 14 15 15 14 13 12 10 8 6 5 4 3 2 2
2 2 4 4 6 5 5 5 4 4 3 3 3 3 2 3 3 3 3 4 5 3 1 2 3 3 4 5 6 7 8 9 9 10 11 13 14 14 15 14 13 12 10 8 6 5 5 3 1
1 2 3 5 5 5 5 4 3 3 2 3 3 3 2 3 3 3 3 4 5 5 4 2 2 2 2 3 4 5 5 6 6 7 8 10 11 12 13 14 14 13 11 9 8 7 5 5 3
2 1 2 3 3 3 3 2 2 1 2 2 3 3 3 3 4 3 3 3 4 6 6 4 3 2 2 2 2 3 3 3 3 4 5 6 8 10 12 12 13 13 12 10 9 7 6 5 4
4 3 3 2 2 2 2 1 1 1 1 2 3 4 4 4 4 4 3 2 3 5 7 7 5 4 3 3 3 2 2 2 1 1 2 4 5 7 8 10 11 11 11 10 9 7 6 5 4
7 6 6 5 5 4 4 4 3 3 2 3 4 5 4 5 5 5 4 3 2 4 6 7 7 7 6 5 5 4 4 4 3 2 2 2 3 4 5 6 8 9 9 9 8 7 6 5 4
10 9 8 8 8 7 8 8 7 7 7 7 7 6 5 5 6 6 5 5 4 3 5 6 8 9 10 9 8 7 7 6 6 5 4 3 3 4 4 4 5 6 7 7 7 7 6 4 3
13 13 10 11 15 13 13 13 12 11 12 11 10 8 8 7 7 7 7 6 6 5 5 6 8 10 12 13 12 11 10 10 9 8 7 6 5 5 5 5 4 4 4 5 5 6 6 5 3
17 17 14 17 18 17 18 17 17 17 16 14 14 13 11 11 11 9 9 8 8 8 8 8 9 11 12 14 14 14 14 14 13 13 12 10 9 9 9 8 7 5 5 4 4 4 4 5 4
18 20 20 21 19 20 21 21 22 20 18 18 18 18 17 16 15 13 12 11 10 10 10 11 12 13 13 14 15 16 16 16 16 16 15 14 13 12 11 12 11 9 8 6 6 5 5 5 5
20 22 22 22 23 24 24 25 26 24 21 21 21 22 22 20 19 17 15 14 13 12 12 13 13 14 15 15 16 16 17 17 18 18 18 18 17 15 15 14 15 13 12 11 9 7 7 7 7
21 22 23 24 26 27 27 28 30 28 25 25 25 25 25 23 22 21 19 18 16 15 15 15 15 16 16 17 17 17 17 18 18 19 20 20 19 19 18 18 18 17 16 15 13 12 11 10 10
22 24 25 27 30 31 30 32 34 31 29 29 29 29 28 27 25 25 24 22 21 20 18 18 18 18 18 18 19 19 19 19 19 20 21 21 21 22 22 21 21 21 19 18 16 15 15 14 14
25 26 27 29 32 34 34 37 37 34 33 33 32 32 31 30 30 29 28 26 25 25 24 22 21 21 21 20 20 21 22 21 21 21 22 22 23 24 24 24 24 24 23 22 20 19 18 17 17
26 27 28 31 32 36 36 38 39 38 37 36 36 35 35 35 35 33 31 30 29 29 28 27 25 24 24 23 23 23 23 23 23 23 23 24 24 24 24 25 26 26 25 25 24 23 22 21 20
27 29 31 32 34 33 31 34 40 41 40 40 41 40 40 40 39 37 35 34 34 33 32 31 30 28 27 27 27 27 27 26 26 26 26 26 26 26 26 26 28 28 29 29 28 27 26 24 23
30 32 33 35 40 43 44 44 45 46 44 42 44 44 44 44 42 41 39 38 37 36 35 34 34 32 31 30 30 31 32 30 29 28 27 28 28 28 29 29 30 31 31 32 31 30 28 26 24
32 34 36 38 40 44 46 45 45 47 46 45 44 45 45 44 43 42 40 39 38 38 37 36 35 34 34 33 33 35 36 35 32 30 29 29 30 29 30 30 31 32 32 33 33 32 29 27 25
30 34 37 38 39 41 42 43 40 40 43 44 43 43 43 41 40 39 37 37 37 36 36 36 35 34 34 34 35 37 37 36 35 33 31 31 32 32 31 32 33 33 33 33 34 32 29 28 26
26 30 32 33 35 36 37 38 32 33 37 40 40 39 36 35 35 34 34 33 33 33 33 33 32 33 33 34 35 37 39 39 38 38 37 36 35 35 35 35 35 34 33 33 33 33 31 29 27
26 28 30 31 33 33 31 31 30 33 37 36 35 34 32 31 31 30 30 30 30 30 30 30 30 31 32 34 35 37 40 40 40 41 41 40 39 38 38 37 37 35 34 33 33 33 33 31 29
28 28 29 29 26 23 21 22 28 34 37 36 33 32 31 30 30 30 30 30 30 30 30 30 31 32 33 35 37 38 39 42 44 45 44 42 41 41 39 37 36 36 33 34 34 35 35 32 29
26 27 27 22 17 16 18 20 29 33 36 38 37 36 34 32 32 31 31 32 32 32 32 33 33 35 36 38 39 40 40 42 44 45 45 43 42 40 38 35 35 35 35 35 36 37 36 33 29
24 25 24 21 17 13 15 17 21 26 31 34 35 35 34 34 33 32 32 32 32 33 34 35 36 38 39 40 41 41 41 41 43 43 43 41 40 38 37 36 35 36 36 36 36 37 36 32 28
24 23 22 18 15 11 12 14 16 20 22 25 27 27 28 28 28 28 29 30 30 31 32 34 35 37 37 37 37 37 37 38 39 39 39 39 38 38 37 37 36 36 37 37 37 36 34 30 27
24 23 21 17 15 11 11 13 15 15 16 17 18 20 21 21 21 22 23 24 25 26 28 30 30 31 30 30 31 31 31 33 34 35 35 35 36 36 36 36 36 36 35 33 31 30 27 24 24
23 23 21 18 16 14 13 14 15 13 11 7 7 10 12 14 14 15 15 16 17 18 20 22 23 23 23 24 25 26 27 27 29 30 31 33 32 31 31 29 28 26 25 24 22 20 19 20 22
24 23 21 20 18 17 16 15 14 12 9 6 4 3 5 7 7 6 6 6 7 9 10 12 13 15 17 17 17 17 18 18 18 19 19 17 16 15 15 15 15 15 15 15 16 16 17 19 21

GEFSSGP_500_meanwind_030.txt.gz
Wind_Speed
5 4 3 3 2 2 3 4 5 7 8 9 8 8 7 7 5 3 5 6 7 7 7 7 8 9 10 10 11 12 12 13 15 16 16 16 15 14 12 10 8 6 4 3 2 2 4 5 7
5 4 3 2 2 3 2 3 4 6 7 7 7 6 7 7 5 3 3 4 5 6 6 6 6 7 7 8 8 9 10 11 13 14 15 15 15 14 13 12 10 7 5 4 2 1 2 4 5
5 5 5 4 4 4 2 2 3 5 5 5 6 5 6 6 4 3 2 2 3 4 5 5 5 6 6 6 6 7 7 8 10 11 13 14 14 14 14 12 10 9 7 5 3 2 1 1 3
4 5 4 3 2 2 2 1 2 4 4 4 5 5 4 4 4 3 2 1 1 2 3 4 4 5 5 5 4 4 4 5 6 8 10 11 12 13 13 12 11 9 8 6 5 3 2 1 1
2 2 3 3 2 0 1 0 1 4 4 5 5 5 4 4 4 3 2 1 1 2 2 2 3 4 4 4 3 2 1 1 2 4 6 8 9 11 11 11 11 10 9 8 7 5 4 3 2
2 2 3 2 2 2 1 2 1 3 3 3 4 5 5 5 4 3 3 2 0 2 3 2 2 3 4 4 4 3 3 2 2 2 3 4 6 7 8 9 10 10 10 9 8 7 6 5 4
5 3 3 3 4 4 3 2 2 1 2 2 3 4 4 4 4 4 3 3 1 2 4 4 4 3 4 4 4 4 4 4 4 4 4 5 4 5 6 7 8 9 9 9 9 8 7 6 5
7 7 6 5 6 6 5 5 6 5 4 3 4 5 5 4 3 3 3 3 1 2 4 5 6 5 5 5 5 5 6 6 6 6 7 7 6 5 5 5 6 7 8 9 9 9 8 6 5
11 10 9 8 8 9 9 8 9 8 8 8 7 8 8 7 5 2 3 4 3 2 4 6 6 7 7 7 7 7 8 8 8 8 8 9 9 8 7 6 6 6 6 7 8 8 8 7 6
13 13 12 12 12 12 10 11 12 13 12 12 12 11 11 11 9 7 5 5 6 5 5 6 7 7 7 8 8 9 10 10 11 11 11 11 12 11 10 9 8 7 7 6 7 7 7 7 6
14 14 15 15 14 14 13 14 15 16 18 18 17 15 14 14 14 12 11 9 8 8 8 8 7 8 8 8 8 10 11 12 13 13 14 14 15 14 13 12 11 10 9 8 8 8 7 6 6
14 15 16 18 19 19 20 19 19 19 21 23 22 21 20 18 17 17 16 14 13 11 11 10 10 9 10 9 9 10 10 12 13 14 15 17 17 18 17 16 15 14 13 12 11 10 9 8 7
16 17 18 20 22 24 24 24 23 22 23 25 26 26 25 23 22 20 19 18 17 15 13 13 11 11 11 11 11 11 11 11 12 13 15 17 19 19 20 20 19 18 17 16 15 15 13 11 10
20 21 21 23 25 26 26 26 26 26 26 27 28 28 28 27 26 24 23 21 20 19 18 16 15 15 14 13 13 13 13 13 13 14 15 16 18 19 21 22 21 21 20 19 19 18 17 16 14
23 24 25 26 27 28 28 27 28 28 29 29 30 31 31 30 28 27 26 25 24 23 22 20 19 18 17 17 16 16 16 16 16 16 17 17 18 19 20 21 22 23 23 22 22 21 20 20 18
25 26 26 28 29 30 30 30 29 30 31 32 34 34 34 33 31 31 30 29 28 27 26 24 23 22 21 20 20 19 20 20 20 20 20 19 20 20 20 22 23 23 24 24 23 23 23 23 22
25 27 28 29 30 30 31 32 32 34 35 35 36 37 37 37 35 34 34 34 32 32 30 29 27 26 24 23 23 23 23 24 24 23 23 23 22 22 22 23 23 24 24 25 25 24 25 25 25
24 26 27 28 28 29 31 33 35 37 39 39 39 38 37 37 37 37 37 37 36 36 35 33 32 31 29 27 27 27 27 28 28 28 27 27 26 25 25 24 24 25 25 25 25 25 25 27 28
22 22 23 25 27 29 31 34 37 39 42 43 43 43 42 40 39 39 40 40 40 40 39 38 36 35 34 32 31 30 30 31 31 32 32 31 29 28 27 27 26 26 26 26 25 26 26 27 28
21 22 22 24 26 28 30 33 35 38 40 42 44 45 44 41 40 41 41 42 42 42 42 42 41 39 37 35 34 33 33 33 34 35 35 33 31 30 29 29 27 27 27 27 26 26 26 25 26
21 22 22 23 24 28 31 33 34 36 38 40 41 43 45 44 43 41 41 42 43 43 42 42 42 40 39 38 36 35 35 34 35 36 36 35 32 31 29 29 28 27 27 27 27 26 26 25 25
20 22 23 24 25 26 29 32 33 35 37 39 41 42 42 42 42 40 40 42 42 43 42 42 41 40 39 38 37 37 36 35 35 36 35 34 32 30 28 29 28 28 27 27 25 25 25 26 26
20 21 23 23 23 25 26 29 30 30 31 34 37 39 38 35 35 36 38 39 39 39 40 40 40 40 39 38 38 37 36 35 34 34 34 33 32 32 30 28 27 28 27 26 27 26 27 27 27
20 21 22 21 21 22 23 24 25 24 25 27 30 32 32 32 31 29 30 34 33 34 35 36 37 38 38 38 37 37 36 35 34 34 34 34 33 32 32 30 27 27 27 25 26 26 27 27 27
19 20 19 19 19 19 19 20 21 21 22 23 24 25 26 27 27 27 26 26 27 29 31 33 35 36 37 37 36 36 36 35 34 34 35 36 35 35 35 32 30 28 27 26 26 26 27 28 28
17 17 16 16 16 16 17 17 19 19 20 20 20 20 20 20 21 19 20 22 25 27 29 31 33 34 35 36 36 36 36 36 36 37 37 37 37 37 36 34 32 31 30 28 27 27 27 27 28
16 16 16 15 15 15 15 15 16 16 17 17 16 14 13 13 13 14 16 18 22 25 27 29 31 33 35 35 36 37 37 38 39 39 38 38 38 37 35 34 33 33 31 29 29 28 28 28 29
16 17 17 15 15 15 15 15 15 14 13 12 11 10 10 8 9 11 12 13 15 18 21 24 26 28 31 33 35 36 37 37 37 36 36 35 33 32 32 32 32 31 31 30 30 30 30 29 30
17 17 17 15 15 15 15 16 17 16 15 14 12 11 9 8 6 4 6 7 8 10 13 16 17 19 22 24 27 29 29 29 29 29 29 28 27 27 27 28 28 28 28 28 29 29 29 31 32
17 17 16 16 16 16 16 17 18 18 17 16 15 14 13 11 9 6 3 2 2 2 3 5 7 8 10 12 14 16 17 18 18 17 17 16 16 17 18 19 21 22 22 23 24 25 25 26 27

GEFSSGP_500_meanwind_036.txt.gz
Wind_Speed
9 9 9 9 10 10 10 11 11 11 11 11 10 10 10 9 7 5 6 7 8 8 7 7 8 8 10 11 13 15 16 16 17 17 16 16 15 14 12 11 9 7 5 4 3 1 0 2 4
8 8 8 9 9 9 9 9 9 10 10 10 10 10 10 9 7 5 4 5 6 6 6 5 5 6 7 9 10 12 13 14 15 15 16 16 15 15 13 12 11 9 8 6 4 3 1 1 3
6 7 8 9 10 8 8 7 7 7 7 8 8 9 9 9 7 5 3 3 4 5 4 4 3 4 5 6 7 9 10 11 12 13 14 14 15 15 14 13 13 12 10 8 6 4 3 1 1
4 4 6 8 9 9 7 6 6 6 6 7 7 8 9 9 8 6 3 2 2 3 3 3 2 2 2 3 4 6 7 8 9 10 11 12 13 13 14 14 13 13 12 11 8 6 4 2 1
5 4 5 6 7 7 6 4 4 4 6 6 7 7 8 8 7 5 3 1 1 2 2 2 2 2 1 1 2 3 4 5 6 7 8 9 10 11 12 12 13 13 13 12 10 8 6 4 2
6 6 6 6 6 6 5 4 3 4 4 5 6 6 7 7 7 5 3 1 1 2 3 2 2 2 2 2 1 1 2 3 4 5 6 7 7 8 9 10 11 12 12 12 11 10 8 6 4
7 7 7 6 6 6 5 4 2 1 2 3 4 5 5 5 6 5 4 2 2 3 4 4 4 4 4 4 3 3 3 3 3 4 5 5 6 7 7 7 8 10 10 11 11 11 9 7 6
8 9 8 8 8 7 7 4 2 1 3 4 5 6 5 5 5 5 5 3 2 3 5 6 6 6 6 5 5 5 4 4 5 5 5 6 6 6 6 6 6 7 8 9 9 10 10 8 6
9 9 9 10 10 10 11 9 6 6 6 7 8 9 9 8 8 7 6 6 5 5 5 6 7 8 8 8 8 7 7 7 7 7 7 7 7 7 6 6 6 6 6 7 7 7 8 8 7
10 10 11 12 13 14 15 14 13 12 11 11 12 12 12 12 12 12 11 9 8 8 7 8 8 9 10 10 10 10 10 9 9 10 10 10 9 9 9 8 8 7 6 6 6 6 6 6 6
11 12 13 15 16 17 18 18 18 18 17 17 16 16 16 16 16 16 16 15 14 12 11 10 10 10 11 12 12 12 12 12 12 12 12 12 12 12 12 12 11 10 9 8 7 6 6 5 5
14 14 16 18 20 21 23 23 23 23 23 23 22 21 19 19 18 19 19 19 18 17 16 15 14 13 13 13 14 14 14 14 14 14 14 14 14 15 15 14 14 13 13 12 10 9 8 7 7
17 18 20 21 23 24 26 27 27 28 28 27 26 25 23 22 21 21 21 21 21 20 20 19 18 18 17 16 16 16 16 16 16 16 16 16 16 16 17 17 17 16 16 15 14 12 11 10 10
21 22 23 24 25 27 28 29 30 30 31 30 30 29 28 26 25 25 24 24 23 23 22 22 22 22 21 20 20 19 19 19 18 18 17 17 18 18 18 18 18 18 18 17 17 15 14 14 13
24 25 26 27 28 30 31 32 33 33 33 33 33 33 32 31 30 30 29 29 28 27 27 26 25 24 23 24 23 22 23 22 21 20 20 20 20 20 20 20 20 20 20 19 18 17 17 16 16
26 27 28 29 30 32 33 34 34 35 35 35 35 35 36 35 35 35 35 34 33 33 33 31 29 29 27 26 26 26 26 25 24 24 23 22 22 22 23 23 23 23 22 22 21 19 18 18 19
27 28 29 30 31 32 33 34 34 35 35 36 37 37 38 39 40 40 40 40 40 39 38 37 35 33 33 31 30 29 28 28 26 26 26 25 25 25 25 26 26 25 25 24 23 22 21 21 21
27 28 29 29 29 30 31 32 33 34 35 36 37 39 40 41 42 44 44 44 44 43 43 42 41 40 38 36 34 33 32 30 29 28 27 27 27 28 28 29 29 29 28 27 26 26 24 23 23
25 25 26 27 27 28 29 30 31 32 33 34 36 38 40 42 44 45 46 47 46 46 46 46 46 44 43 40 39 37 35 34 33 31 30 30 30 30 30 32 31 32 31 31 30 29 28 26 25
23 24 25 26 26 27 28 30 32 33 34 35 37 38 40 41 43 45 46 47 48 48 47 47 48 48 47 45 42 41 39 38 36 35 34 33 32 31 30 31 31 31 32 32 32 31 30 29 28
22 23 24 25 26 27 29 31 31 33 34 36 37 39 40 41 42 43 45 46 46 47 47 47 47 47 48 46 45 44 42 40 39 38 37 37 36 34 33 32 31 31 31 32 33 32 31 31 30
23 23 23 24 26 27 29 30 30 31 33 35 37 38 39 39 40 41 42 43 43 44 44 43 44 44 45 44 44 44 43 42 42 41 40 40 39 36 35 34 32 32 31 30 30 32 31 32 32
21 22 22 23 25 26 26 27 27 28 30 32 34 35 35 36 36 36 37 37 37 38 39 40 40 41 42 42 43 43 43 42 42 42 42 42 41 39 37 35 33 29 27 27 28 31 32 31 31
20 20 20 21 22 22 22 24 25 25 26 27 28 29 30 30 30 29 28 28 28 29 30 32 34 35 37 38 39 40 41 41 41 42 42 41 40 38 37 35 33 30 28 27 26 26 28 30 30
19 18 18 18 18 18 19 21 22 22 22 21 22 23 23 23 21 20 19 19 20 20 21 24 26 29 30 32 34 35 36 37 38 38 38 38 37 36 34 33 32 30 28 27 27 28 27 28 28
16 15 15 15 16 17 18 19 19 19 19 20 19 19 18 16 15 14 12 11 12 12 14 17 20 22 24 25 27 29 31 32 33 34 34 34 34 34 33 33 32 32 32 31 30 30 28 29 29
13 13 13 14 15 15 16 16 17 18 18 18 18 16 15 14 12 9 8 7 7 8 10 10 13 16 18 20 22 24 26 27 28 29 30 31 32 32 33 33 34 35 35 35 33 32 31 31 31
14 14 14 14 14 14 14 15 16 16 16 17 17 16 15 13 12 10 8 8 8 7 6 6 6 9 12 14 15 17 19 21 23 25 27 29 30 31 32 34 34 35 36 36 35 34 34 34 34
15 15 15 14 14 14 15 16 17 16 17 17 17 17 16 16 14 13 12 11 10 9 9 8 7 6 6 7 8 10 12 15 17 19 22 23 25 27 29 31 31 33 33 34 34 34 34 33 33
16 17 16 15 14 15 15 16 17 18 18 18 19 19 18 18 17 17 15 15 13 13 12 12 11 10 9 7 5 4 5 7 9 11 13 15 17 19 21 22 24 26 27 28 29 30 31 31 31

GEFSSGP_500_meanwind_042.txt.gz
Wind_Speed
11 11 11 11 11 12 10 9 10 11 11 10 9 8 8 7 7 7 7 7 8 8 9 10 10 10 10 10 11 11 12 13 14 14 14 13 13 12 10 9 8 6 5 4 3 3 3 5 6
10 11 11 11 11 10 9 9 9 10 9 9 8 8 7 7 6 6 6 6 7 7 7 8 8 8 8 9 9 9 10 11 12 13 13 13 13 12 12 11 10 8 6 5 4 3 2 3 4
9 10 10 10 11 9 8 8 8 8 8 7 7 7 6 6 6 5 5 6 6 6 6 6 7 7 7 7 7 7 8 9 10 11 12 12 12 12 12 11 11 9 8 6 5 4 3 2 2
7 7 8 8 8 7 6 6 6 6 6 6 6 6 5 5 5 4 4 5 6 6 6 6 6 6 6 6 5 5 6 6 7 8 9 10 10 11 11 11 11 10 9 8 7 5 4 3 3
4 5 5 6 5 4 4 3 4 4 4 5 5 5 4 4 4 3 3 5 5 6 7 7 7 7 6 6 5 5 5 5 5 5 6 7 8 8 10 10 10 10 10 9 8 7 6 5 4
1 2 3 3 3 2 1 1 1 1 2 3 3 3 3 3 3 2 1 4 6 7 8 8 8 8 8 8 7 6 6 5 4 4 4 5 5 6 7 8 9 9 9 9 9 8 7 6 5
2 1 1 1 2 2 1 1 2 3 2 2 2 3 3 3 3 2 1 3 6 8 9 9 10 10 10 10 10 9 8 7 6 5 4 4 4 4 4 5 6 7 8 8 8 8 7 7 6
5 4 4 5 4 4 4 4 4 5 5 5 5 5 6 6 5 5 5 5 6 8 10 11 12 12 12 12 12 11 11 10 9 8 7 5 5 4 4 3 3 3 4 5 6 7 7 7 6
8 7 7 7 7 7 7 7 7 8 8 8 8 9 10 9 9 9 9 8 9 9 10 12 13 14 15 15 15 14 13 13 12 11 10 9 7 6 5 4 3 3 2 2 2 4 5 6 6
9 10 11 11 11 11 11 11 11 12 12 12 13 13 13 14 14 14 13 13 13 13 13 14 15 16 17 18 18 17 16 16 15 14 14 12 11 10 9 8 7 5 4 3 2 1 1 3 4
11 12 14 14 14 14 15 15 16 16 17 17 18 18 18 18 18 18 18 18 18 17 17 18 18 19 20 20 21 20 20 20 19 18 18 16 15 14 12 11 10 9 8 7 6 5 4 2 2
13 14 16 17 17 18 18 19 20 20 21 22 22 22 22 21 21 21 21 21 21 21 22 23 24 24 24 24 24 24 23 23 22 22 20 19 19 17 16 14 13 12 11 10 10 9 8 7 5
16 17 19 20 22 22 23 23 23 24 25 25 25 25 25 25 25 25 25 25 24 24 25 25 27 28 30 30 29 28 27 26 26 25 24 23 22 20 19 17 16 15 14 13 13 12 11 11 10
20 21 22 23 24 25 26 27 27 27 28 28 29 29 29 30 30 30 30 30 30 29 29 29 30 31 32 32 33 32 31 30 29 29 28 27 25 23 22 20 18 17 16 15 15 14 14 14 13
23 24 25 26 26 27 28 28 28 29 29 30 30 31 31 33 34 34 35 35 35 35 35 35 35 35 34 34 34 34 34 34 33 32 31 30 28 27 25 23 21 20 18 17 17 17 16 17 16
25 26 27 27 28 28 29 28 28 29 29 30 30 31 32 34 36 37 38 39 40 41 42 41 41 40 39 38 37 36 36 37 36 36 34 33 32 30 28 26 25 23 21 20 19 18 18 18 19
26 27 29 29 28 28 29 29 27 28 28 29 30 31 33 35 36 38 39 41 42 43 45 46 47 47 45 43 42 41 39 38 38 38 37 36 34 32 31 30 28 26 24 23 22 21 21 21 20
26 27 28 28 28 28 28 28 28 28 28 29 30 32 33 35 37 38 40 41 43 44 46 47 48 49 50 50 48 45 43 42 39 38 38 37 36 35 33 32 31 29 26 25 25 24 24 24 23
26 27 27 27 27 28 28 28 28 29 29 31 32 33 35 36 37 39 40 42 43 44 46 48 49 50 50 50 52 50 48 47 45 42 40 38 37 35 33 32 32 31 29 27 26 26 26 27 26
25 26 26 26 26 27 27 27 28 29 30 31 32 33 34 36 37 38 39 41 42 44 45 47 48 50 51 50 50 51 51 49 47 45 42 40 39 36 35 33 31 30 29 28 27 27 26 26 27
24 25 25 25 25 24 25 26 26 27 28 29 31 32 33 34 34 35 36 38 39 40 42 44 46 47 48 49 50 49 50 49 48 47 45 43 41 38 36 36 33 30 27 26 26 25 25 26 27
22 22 22 21 22 22 22 25 23 25 26 28 28 28 28 29 29 30 30 31 33 34 36 37 39 40 42 43 45 46 46 47 46 46 46 45 44 40 38 36 35 32 29 29 28 27 27 26 26
18 19 19 19 19 20 19 20 21 22 24 25 25 25 25 25 25 25 25 26 27 28 28 29 30 32 33 35 37 40 41 43 43 43 43 44 44 43 40 38 36 34 32 31 29 27 26 26 26
17 17 17 16 16 16 17 18 19 19 20 21 22 22 22 22 22 21 21 21 20 19 20 21 21 22 24 26 30 33 36 38 40 40 41 42 42 41 40 38 36 35 34 33 31 29 28 26 26
16 16 16 15 15 15 16 16 16 17 17 17 18 18 17 18 17 17 17 17 15 13 13 15 16 16 17 19 22 25 29 32 34 36 37 37 37 37 38 38 37 35 34 33 33 31 29 27 27
15 15 14 14 15 14 14 15 15 15 15 15 16 16 16 15 14 15 15 14 13 11 10 10 10 9 10 12 14 17 21 24 27 29 31 32 33 35 35 36 35 34 34 33 32 32 30 29 28
14 14 14 13 13 13 14 14 14 14 14 15 16 16 15 14 14 15 15 14 14 12 11 10 8 6 6 6 8 10 13 15 18 21 24 27 30 31 32 33 33 33 33 33 32 32 32 31 31
14 14 14 13 13 13 13 14 14 14 14 15 15 15 15 16 16 16 16 15 15 15 14 12 10 9 7 5 4 4 7 10 13 16 19 22 25 27 29 30 31 32 33 33 34 34 34 34 34
15 14 15 14 14 13 13 14 14 14 14 16 16 16 16 18 18 18 17 16 16 17 16 15 14 12 11 9 6 4 2 4 7 11 14 17 20 23 24 26 29 31 32 33 34 35 36 36 36
16 15 15 15 15 15 14 14 14 14 14 15 16 16 17 18 19 20 20 20 20 19 19 17 16 15 13 11 10 7 5 2 2 5 8 11 14 17 19 22 25 27 29 31 33 34 35 36 36

GEFSSGP_500_meanwind_048.txt.gz
Wind_Speed
8 7 8 7 5 6 6 5 4 3 2 1 0 1 0 1 2 2 3 3 4 4 4 5 5 6 6 6 6 6 7 7 7 7 7 6 6 5 4 3 3 3 3 3 4 6 7 8 10
7 6 7 5 5 7 6 5 3 2 2 2 2 2 2 2 2 2 3 4 4 4 4 4 4 5 4 4 4 4 5 5 6 6 6 6 6 6 5 4 4 3 3 2 3 4 5 6 7
5 5 5 4 5 5 5 3 3 2 2 2 2 2 2 2 2 3 4 4 5 5 5 5 5 5 5 4 3 3 3 4 4 4 5 5 5 5 5 5 4 4 3 3 2 3 4 4 5
3 3 3 4 3 3 3 3 2 2 3 3 3 3 3 2 3 4 5 5 6 7 7 7 7 7 6 6 5 4 4 3 3 3 3 3 4 4 5 5 4 4 4 3 3 3 3 4 4
2 2 3 3 4 3 3 3 3 4 4 4 4 3 3 3 3 4 6 6 7 8 9 9 9 9 9 8 8 7 6 5 4 3 3 2 2 3 3 4 4 4 4 4 4 4 4 4 4
2 2 2 3 4 4 5 5 5 6 7 7 6 5 4 4 4 5 6 7 8 9 10 11 11 11 11 11 10 10 9 9 8 7 5 5 4 3 2 2 3 3 4 4 4 4 4 4 4
3 2 4 6 6 7 7 7 7 8 9 9 9 7 7 7 7 7 8 9 9 10 11 12 13 13 14 13 13 13 12 12 11 10 9 8 7 6 4 3 2 2 3 3 4 4 4 4 4
5 5 6 7 7 10 11 11 11 11 11 12 12 11 10 10 10 11 11 12 12 12 12 13 14 15 15 16 16 16 15 15 14 14 13 12 10 9 8 7 5 4 2 2 3 3 4 4 4
7 6 7 9 11 12 13 14 14 14 15 15 15 15 15 15 14 14 15 15 16 16 16 17 16 16 17 18 18 18 18 18 17 17 17 15 14 13 12 10 9 7 5 4 3 2 3 3 3
9 8 10 13 15 15 16 17 18 17 18 19 19 19 19 19 19 18 19 19 19 20 20 21 21 21 20 20 20 21 21 21 21 21 20 19 18 16 16 14 12 11 9 8 6 5 4 3 3
12 12 13 15 17 18 18 19 20 20 21 22 23 23 23 24 24 24 23 23 24 24 24 24 25 25 25 24 24 24 24 25 25 25 25 23 21 19 18 16 15 14 13 12 10 9 7 6 5
15 16 17 18 20 21 21 22 24 24 25 26 26 27 27 27 28 28 28 28 28 28 28 28 28 28 28 29 29 28 28 28 29 29 28 27 25 23 21 19 19 18 17 16 14 13 11 10 9
19 20 22 23 24 25 26 27 27 28 29 29 30 30 31 31 31 31 32 32 32 32 32 32 32 32 32 32 32 32 31 31 31 31 31 30 28 25 24 23 22 21 21 20 19 17 15 14 13
23 25 26 27 28 29 29 29 30 31 31 32 32 33 33 34 34 35 35 35 36 36 37 37 37 37 36 36 36 35 35 35 34 34 32 32 32 30 28 28 26 25 24 23 22 21 19 18 16
25 27 29 29 30 29 30 30 30 32 33 34 34 35 35 36 36 36 37 38 39 39 40 40 41 42 41 41 41 41 40 37 36 37 36 36 36 34 33 32 30 28 27 26 25 24 22 21 19
26 28 29 30 29 29 32 33 31 33 34 35 35 36 36 36 37 37 37 39 40 41 41 42 43 44 45 45 46 46 45 44 42 39 39 38 38 38 37 35 34 32 30 29 27 26 25 24 22
24 23 26 33 32 32 33 34 32 33 33 34 35 36 36 36 36 37 37 38 40 41 42 43 43 44 45 46 47 48 48 48 46 45 42 41 39 38 39 38 36 35 33 32 31 29 28 27 25
23 25 26 35 36 35 35 34 33 32 32 33 33 34 35 36 36 36 37 38 39 40 41 42 43 44 45 46 47 48 48 49 48 47 45 44 42 40 39 38 37 37 36 34 33 32 31 30 28
24 25 28 34 34 33 34 33 31 31 31 31 32 33 33 34 36 36 36 37 38 38 39 40 41 42 43 45 46 47 47 48 48 48 47 46 45 44 43 40 38 38 36 35 34 33 32 32 30
25 25 26 29 28 29 30 30 28 27 28 28 29 31 32 32 33 34 34 35 35 36 37 38 39 40 41 43 44 45 46 47 48 48 47 46 46 44 43 42 40 38 36 35 33 32 31 30 30
22 22 23 25 27 26 26 26 25 23 24 25 26 28 29 29 30 30 30 31 31 31 32 33 34 35 37 38 40 42 43 45 46 47 47 46 46 44 43 41 40 38 37 35 33 32 31 31 29
21 21 21 22 23 23 22 24 24 23 23 23 24 25 25 25 25 25 25 24 25 26 28 29 30 31 32 33 34 36 39 40 41 43 44 44 44 43 41 42 41 39 37 36 33 32 31 30 29
19 20 20 19 18 18 19 22 24 24 24 24 24 23 23 22 20 19 19 20 21 21 23 23 24 24 25 26 28 29 32 34 36 38 39 39 40 40 39 39 39 38 37 36 34 33 31 30 29
17 17 16 15 15 17 18 21 24 22 23 22 21 21 20 19 17 17 17 17 18 19 19 19 19 19 20 21 22 24 25 27 29 32 34 35 36 36 36 37 37 36 35 36 35 34 32 31 31
15 15 15 14 16 18 19 19 20 20 20 19 19 18 18 17 16 16 17 16 17 17 17 17 16 16 17 18 18 18 20 21 22 25 27 28 30 31 33 34 35 35 33 33 34 35 33 32 32
14 14 13 10 8 14 15 16 17 17 17 17 18 17 17 17 17 17 17 17 17 17 16 16 15 15 15 14 14 14 14 14 15 18 21 23 25 27 29 31 32 34 33 33 32 33 33 31 30
13 12 12 10 9 10 15 15 15 16 16 17 17 17 17 17 18 18 18 18 19 19 18 17 16 15 15 14 13 11 10 10 11 13 16 19 20 23 25 27 29 31 32 32 32 33 33 33 31
13 12 12 11 11 8 13 15 16 17 17 17 17 18 18 18 19 19 20 20 21 21 20 19 18 16 16 15 14 12 10 9 9 9 10 13 16 19 21 23 25 28 29 30 31 31 32 33 31
14 13 13 12 12 11 12 14 15 16 16 17 17 18 18 18 19 20 20 21 22 22 22 21 19 17 16 15 14 14 12 10 8 7 6 7 10 13 15 18 21 24 25 27 28 28 29 30 31
14 14 14 14 13 12 13 13 14 15 16 16 17 18 18 19 19 20 21 22 22 22 23 22 22 20 18 16 15 14 14 12 9 7 6 5 5 7 10 13 15 18 21 23 25 26 28 29 31

GEFSSGP_500_meanwind_054.txt.gz
Wind_Speed
9 8 7 7 6 6 5 6 8 8 7 6 5 5 5 3 3 2 1 1 1 1 1 1 1 1 2 2 2 3 3 2 3 3 2 3 2 2 1 2 3 4 5 6 8 10 12 14 15
8 7 6 6 6 6 7 8 8 7 7 7 6 6 5 4 3 3 2 2 3 2 3 3 2 2 2 1 1 1 0 0 1 1 1 2 2 2 2 2 2 3 4 5 6 8 9 11 13
6 4 5 7 6 7 7 7 7 8 8 8 7 7 6 5 4 4 4 4 4 4 4 5 5 5 5 4 4 3 3 2 2 2 2 2 2 2 2 2 2 3 3 4 5 6 7 8 9
4 4 5 6 7 7 7 8 8 8 7 7 7 7 6 5 4 5 5 5 5 6 6 6 7 7 8 8 7 7 6 5 5 4 4 4 3 3 2 2 2 3 3 4 4 5 6 6 7
3 4 6 6 7 8 7 7 7 7 7 8 7 7 6 6 5 5 6 6 6 7 7 8 8 9 10 10 11 10 10 9 8 7 7 6 5 5 4 3 3 3 3 3 3 4 4 5 5
3 5 7 7 6 6 7 8 7 6 8 9 10 9 8 7 6 6 6 7 8 8 9 10 10 11 12 12 13 13 13 13 12 11 10 9 8 7 6 5 4 4 3 3 3 3 3 4 4
4 6 8 8 8 7 8 9 10 10 10 11 12 12 11 10 10 9 8 9 10 10 11 12 13 13 14 15 15 16 16 16 15 14 14 13 12 11 10 8 7 6 4 3 3 3 3 3 3
7 8 9 10 10 10 10 12 13 14 14 14 14 14 14 15 14 14 13 13 13 13 14 15 16 16 17 17 17 18 19 19 18 18 17 16 15 14 13 12 10 9 7 6 4 4 3 3 3
9 9 10 11 12 12 13 15 16 18 18 19 18 18 18 18 18 18 18 18 18 17 17 18 18 18 18 18 19 20 20 21 21 21 20 19 18 17 16 16 14 13 11 9 8 6 5 4 4
10 10 11 12 14 15 16 17 18 20 21 22 23 23 22 23 23 23 23 23 23 23 23 23 22 22 22 22 22 22 22 22 23 23 23 22 21 20 20 19 18 17 15 13 11 10 8 6 5
12 12 13 14 16 18 19 20 21 23 24 25 26 27 27 27 27 28 28 29 29 30 30 30 29 28 27 26 26 25 25 24 25 26 26 26 25 25 24 23 22 22 20 18 16 14 12 10 8
14 15 15 17 18 20 22 23 24 25 26 27 27 28 29 29 31 31 32 33 34 35 35 35 34 34 33 32 31 29 29 29 28 28 28 28 28 28 28 28 27 26 24 22 20 18 16 14 12
16 17 18 19 22 23 24 25 25 26 27 28 30 30 31 32 33 34 35 35 36 37 37 38 37 37 37 37 36 35 34 33 32 32 31 30 30 30 31 29 31 30 29 26 24 22 20 18 16
18 19 20 22 23 23 24 24 26 27 29 30 32 33 33 33 34 35 36 37 38 38 39 39 40 40 40 40 39 38 38 37 36 35 34 34 33 32 30 31 31 33 33 31 27 26 24 22 20
20 21 22 23 23 22 23 24 27 29 31 33 34 34 34 34 34 34 35 37 38 39 39 39 40 40 40 41 41 41 40 40 39 39 38 37 36 36 34 33 33 33 34 33 31 30 28 26 24
22 22 23 24 23 23 24 25 27 30 31 31 31 31 31 32 32 33 34 35 36 37 38 38 39 39 39 40 40 40 40 40 40 40 40 40 40 39 38 36 35 34 33 33 33 31 31 30 28
23 24 24 25 25 25 25 26 26 28 28 29 29 29 30 30 30 31 31 32 33 34 35 36 37 38 38 39 39 40 40 40 39 39 39 40 41 41 40 38 37 35 33 32 32 31 32 31 31
22 24 25 26 26 26 26 26 26 26 26 27 27 28 28 28 29 29 29 30 30 31 32 33 34 35 36 38 38 39 39 40 39 39 39 40 41 41 41 39 39 37 34 33 32 32 33 32 32
21 22 24 24 25 25 25 25 24 23 23 24 25 25 26 27 28 28 27 27 27 27 28 29 30 31 32 34 35 36 38 39 39 40 39 39 40 41 41 41 40 37 36 34 34 33 33 32 32
20 21 22 23 23 24 23 21 19 19 20 21 22 22 23 24 24 25 24 24 24 24 24 25 25 26 28 29 31 32 34 36 37 37 38 38 40 40 41 41 40 38 37 36 35 34 33 33 32
18 20 21 22 22 21 19 17 17 16 16 18 19 20 21 21 21 22 22 21 21 21 22 22 22 23 24 26 27 28 30 31 33 35 36 37 39 39 40 39 40 39 38 37 36 36 36 34 33
16 18 19 19 18 17 17 15 14 15 16 17 18 19 20 20 20 20 20 19 19 19 18 19 19 20 21 22 22 23 24 26 29 31 32 34 35 37 38 38 39 38 38 37 36 36 36 35 35
14 15 16 16 15 14 13 13 14 16 17 18 19 19 19 19 19 19 19 18 18 17 17 17 17 18 18 18 18 19 21 23 24 26 28 30 32 34 35 37 38 37 38 38 38 36 36 35 35
12 13 13 13 13 11 11 12 15 17 18 19 19 19 19 19 20 20 20 19 18 18 18 18 18 17 16 16 16 17 18 19 20 21 23 25 27 29 32 34 36 37 37 37 38 38 36 36 35
11 12 12 11 10 9 10 12 15 16 17 18 19 19 19 19 20 20 20 20 20 19 19 19 18 18 16 15 14 14 14 15 16 17 18 20 23 26 29 31 33 35 36 36 37 38 37 37 36
10 11 11 11 11 11 11 12 14 15 16 17 18 18 19 19 20 20 20 21 21 21 20 19 19 18 16 15 14 13 13 12 11 12 13 15 17 20 23 27 30 32 34 35 36 37 37 37 37
10 11 11 12 12 12 12 12 13 15 15 16 17 18 19 19 20 21 21 21 21 22 21 21 20 19 18 16 15 14 13 12 10 9 9 11 12 14 17 21 25 29 32 33 35 36 36 37 37
11 11 12 13 13 13 12 13 14 15 15 16 17 18 18 19 21 21 21 21 21 22 22 22 22 21 20 19 17 16 15 13 11 8 7 8 9 10 13 16 21 24 27 31 34 35 36 36 37
11 12 13 13 14 13 13 14 15 15 16 16 17 18 19 19 20 21 21 21 22 22 22 23 22 22 21 21 19 18 16 15 14 11 9 7 6 8 9 12 16 20 22 26 30 33 34 36 37
11 12 12 13 13 13 13 14 15 16 16 17 18 19 19 20 20 20 21 22 23 23 23 23 23 22 22 21 21 20 19 17 15 13 11 10 8 7 7 7 11 14 17 21 25 27 30 32 35

GEFSSGP_500_meanwind_060.txt.gz
Wind_Speed
8 9 10 10 10 8 7 6 5 6 6 6 5 4 4 4 4 4 4 3 3 3 3 4 3 3 2 2 1 2 3 3 4 4 4 3 3 2 1 1 2 3 5 6 8 8 10 11 13
7 7 8 9 9 7 6 6 6 6 6 5 5 5 5 5 4 4 4 4 4 4 5 5 5 5 4 4 3 2 1 1 1 1 2 2 2 2 2 2 2 3 4 5 6 6 7 9 11
5 6 7 8 8 8 6 6 6 4 4 5 6 7 6 6 6 5 6 6 6 6 7 7 7 7 6 6 5 5 4 3 3 2 2 2 2 2 2 2 3 3 4 4 5 5 6 7 8
5 5 6 7 7 6 6 5 6 5 5 6 7 8 8 8 8 7 7 8 8 9 10 10 9 8 8 8 8 8 7 6 6 5 5 4 4 3 3 3 3 4 4 4 4 4 5 6 6
5 5 6 7 7 6 6 6 7 8 8 8 9 10 10 9 9 9 9 10 10 11 12 12 11 11 10 10 10 10 10 10 9 9 8 7 6 6 5 4 4 4 4 4 4 4 4 4 5
6 7 7 8 7 8 7 10 9 9 10 11 12 12 11 11 11 11 12 12 12 13 13 13 13 13 13 13 14 14 13 13 13 12 12 11 10 8 8 7 6 5 5 4 4 4 4 4 4
7 8 9 9 9 10 11 12 11 12 12 12 13 13 14 14 14 15 15 15 15 14 14 14 14 14 15 16 16 17 17 17 16 16 16 15 13 12 11 10 9 7 6 5 5 4 4 4 4
9 10 10 11 12 13 15 14 15 15 15 15 15 16 17 17 18 18 18 17 17 16 16 17 17 17 17 18 18 19 19 19 19 19 19 19 18 16 14 13 12 11 9 8 7 6 5 5 4
10 11 12 13 15 16 17 17 18 19 19 20 20 20 21 21 22 22 22 22 22 22 22 21 21 21 20 20 20 20 21 21 22 22 21 21 21 20 18 16 15 14 13 11 10 8 7 6 5
12 13 14 16 17 19 19 20 21 22 23 23 24 25 25 25 25 26 27 27 27 27 27 27 27 26 26 25 25 24 23 23 23 24 23 23 23 22 21 20 18 17 16 14 13 12 10 9 7
14 15 17 18 19 20 21 22 24 25 26 27 27 28 28 29 29 30 31 31 32 32 33 34 33 33 33 32 31 30 28 27 27 26 26 25 25 24 24 23 22 21 20 18 17 15 14 12 11
16 17 18 19 20 21 22 24 26 27 28 29 29 30 30 31 32 32 33 34 35 36 37 37 38 38 37 37 37 37 35 34 32 30 29 28 28 26 26 25 24 24 23 22 21 20 18 16 15
17 18 19 20 21 22 24 25 26 27 27 28 30 31 31 32 32 32 34 35 37 38 38 38 39 39 40 40 40 40 40 39 38 36 34 32 30 30 29 29 28 26 25 23 23 23 22 20 19
18 19 20 21 22 23 24 24 25 26 28 29 31 32 31 30 30 31 32 33 35 36 36 37 37 38 38 39 40 40 40 41 41 41 40 38 35 33 32 30 30 29 28 27 26 26 26 25 23
19 20 21 22 23 24 25 25 26 27 28 29 30 29 29 29 29 29 29 30 31 32 33 34 34 34 35 36 37 38 39 40 41 42 42 42 41 39 37 35 33 32 31 30 29 27 27 27 26
20 21 22 23 23 24 25 25 25 26 27 28 28 27 26 26 27 27 28 28 29 30 31 31 32 32 33 34 35 36 37 38 40 41 42 42 42 42 42 40 38 36 34 32 31 29 28 28 29
20 21 22 23 23 23 24 24 24 25 25 25 25 24 24 25 25 26 26 26 27 27 27 28 29 30 30 31 32 34 35 36 37 39 40 41 42 43 43 42 41 40 38 36 33 31 29 30 31
21 22 22 23 23 23 22 23 23 23 23 23 23 23 24 24 25 25 25 24 24 24 24 24 24 26 27 29 30 31 32 33 35 36 38 39 41 42 42 42 42 42 40 38 36 34 32 31 31
21 22 22 22 21 21 21 20 20 20 20 20 21 22 23 23 23 23 22 22 22 21 21 21 21 22 24 25 26 27 28 30 32 34 36 38 39 41 42 42 42 42 41 40 38 37 34 32 29
20 20 20 20 19 18 18 17 17 17 18 20 21 21 21 20 20 21 21 21 20 20 19 19 19 20 20 21 22 23 25 26 27 29 32 34 37 39 40 41 42 42 42 42 41 39 37 35 33
17 17 17 17 16 16 15 14 14 16 17 18 19 18 18 18 19 20 20 20 20 20 19 19 18 18 17 17 18 19 21 23 25 26 28 31 33 36 38 40 42 42 42 42 42 42 40 38 36
13 14 15 14 14 13 13 11 13 14 15 16 16 16 17 18 19 20 20 21 21 20 19 19 18 17 17 16 16 16 17 19 21 23 25 27 29 31 34 37 40 41 42 42 41 41 41 41 39
12 13 13 12 11 10 10 10 11 13 13 14 15 16 17 18 19 20 20 20 20 21 20 20 19 18 17 16 15 15 16 17 18 20 22 24 26 28 30 33 36 39 41 41 41 41 41 42 41
10 11 10 9 8 8 9 10 11 12 12 14 15 16 17 18 19 20 21 21 21 21 21 21 20 18 17 16 15 14 15 15 16 17 18 21 23 26 28 30 32 35 38 40 41 41 42 42 42
8 8 8 7 8 9 10 10 11 12 13 14 15 17 18 19 20 21 21 21 21 22 22 21 20 19 19 18 16 15 15 14 14 13 14 16 18 21 23 25 28 31 34 36 39 41 41 43 43
6 6 7 7 8 9 10 11 12 13 14 15 16 17 18 18 20 21 21 21 22 22 23 22 21 20 19 18 17 17 16 14 13 13 13 13 14 16 18 21 24 26 29 32 35 38 41 43 44
4 5 6 7 8 9 10 11 12 13 14 16 16 17 18 19 20 21 21 21 22 23 23 22 21 21 20 20 19 18 17 16 14 13 12 11 11 12 15 17 20 23 26 29 32 36 39 42 44
4 5 5 6 7 8 10 11 12 13 14 16 16 17 18 18 19 20 21 21 22 23 23 23 22 21 21 21 20 20 19 17 16 14 13 12 10 10 12 14 17 20 22 25 29 33 36 39 42
3 4 5 6 7 8 9 10 11 13 14 15 16 17 18 18 18 19 20 21 22 23 23 22 22 22 21 21 21 21 20 19 17 16 15 13 12 10 10 12 14 17 19 22 25 29 33 36 39
4 4 5 6 7 8 9 10 11 12 14 15 16 17 18 18 18 19 20 21 22 23 23 23 23 23 22 22 22 22 21 19 18 17 16 15 14 12 11 10 11 13 16 18 22 26 29 32 36

GEFSSGP_500_meanwind_066.txt.gz
Wind_Speed
6 7 7 7 7 7 5 4 3 2 2 2 2 2 3 3 4 5 5 5 5 6 6 6 6 6 6 6 7 7 6 6 6 6 6 6 6 6 6 7 7 8 8 8 9 9 10 11 12
4 5 6 6 6 6 5 4 3 3 3 3 2 3 4 4 5 6 6 7 7 7 7 8 8 8 8 9 9 9 9 8 7 7 7 6 6 6 6 6 6 7 7 7 7 8 8 9 10
3 4 5 6 5 4 4 5 5 4 4 4 4 4 5 6 6 7 7 7 8 9 10 10 11 11 11 11 11 11 11 10 10 9 8 8 7 6 6 6 6 6 6 6 6 7 7 7 8
3 3 4 4 4 4 4 5 6 6 5 5 6 6 7 7 8 8 9 9 9 10 12 13 13 14 14 14 14 13 13 13 12 12 11 10 9 8 7 7 6 6 6 6 5 6 6 6 7
4 4 4 5 4 5 6 7 8 8 7 8 9 9 10 10 10 11 11 12 12 13 14 15 15 15 16 16 16 16 16 15 15 14 14 13 12 11 10 8 7 7 6 6 5 5 6 5 5
5 5 6 7 7 8 8 9 10 10 11 11 12 13 14 14 14 14 15 15 15 15 16 17 16 16 17 16 17 18 18 18 18 17 17 16 14 13 12 11 10 8 7 6 6 6 6 5 5
6 7 8 8 9 10 11 12 12 13 14 15 16 17 18 18 19 19 20 20 20 19 19 20 18 18 18 19 19 19 19 20 20 20 20 19 18 16 15 14 12 11 9 8 7 6 6 6 5
9 9 9 10 11 12 14 14 15 16 18 19 20 20 21 22 23 24 24 24 24 24 24 23 22 22 22 22 22 22 21 20 21 23 22 21 20 20 19 17 16 14 12 11 9 8 7 6 6
10 10 11 12 13 15 16 17 18 19 20 22 23 24 25 26 27 27 27 28 28 29 29 28 27 27 27 27 27 26 25 24 23 23 23 23 22 22 21 20 18 17 16 14 12 11 10 8 7
12 12 13 15 16 17 18 19 20 21 23 24 25 26 27 28 29 29 30 30 31 32 32 32 33 33 33 32 31 31 30 29 28 27 26 26 25 24 23 22 21 20 19 18 16 14 12 11 10
13 14 15 17 18 19 20 21 22 23 25 26 28 28 28 29 29 30 31 32 32 33 34 35 36 37 37 37 37 37 36 34 33 31 30 29 27 26 26 24 23 22 21 20 19 18 16 14 13
15 15 17 18 19 20 21 23 24 25 27 28 28 29 28 29 29 30 31 32 32 33 33 34 34 36 38 39 40 40 41 40 39 37 35 33 31 28 27 27 26 24 23 23 22 20 19 17 16
16 17 18 19 20 21 23 24 26 27 27 28 28 29 30 30 29 28 28 28 29 30 31 32 32 33 34 36 38 40 41 42 43 42 41 39 37 34 32 30 29 28 27 26 25 23 21 20 19
17 18 19 20 21 22 23 25 26 26 26 27 27 27 26 25 24 25 25 26 27 28 29 29 30 31 32 33 34 36 38 40 42 43 44 43 42 40 37 34 33 31 30 29 28 26 24 23 22
18 19 20 21 22 23 24 24 24 24 24 24 24 23 22 22 22 23 23 24 25 26 27 29 29 30 30 31 31 32 34 36 39 41 43 43 43 42 41 39 38 35 33 31 30 29 27 27 25
18 19 20 21 22 22 23 22 22 22 22 21 21 20 20 20 21 21 21 22 23 24 24 24 25 26 27 27 29 30 31 33 34 37 40 42 43 43 43 42 42 40 38 36 34 32 31 30 29
18 19 20 21 21 20 20 20 19 19 19 19 19 19 19 19 19 19 20 20 21 22 22 23 23 23 24 24 25 26 28 29 31 33 36 38 41 43 44 44 44 44 43 40 38 37 34 32 31
18 19 19 20 19 18 18 18 17 17 17 17 17 17 17 18 18 19 20 20 21 22 22 21 21 21 21 22 22 23 24 25 27 30 32 35 37 39 42 43 44 44 44 44 42 39 38 36 33
17 17 18 17 16 16 16 15 15 15 14 15 15 16 16 17 18 19 20 20 21 21 20 20 20 20 19 19 19 19 20 22 23 26 28 31 34 36 38 41 42 43 45 46 45 43 41 39 38
16 16 15 14 14 14 13 12 12 12 12 13 14 15 16 17 19 19 20 20 20 20 20 20 20 19 18 17 17 16 17 18 19 21 24 27 31 33 35 38 40 42 43 45 45 45 44 42 41
14 13 13 12 12 11 10 9 10 10 11 12 13 14 15 17 18 19 20 21 20 20 20 21 20 18 17 16 15 14 14 15 16 18 21 24 26 29 32 34 37 40 42 43 44 44 44 44 43
12 11 10 9 8 8 7 7 9 9 10 11 12 14 15 16 18 19 20 20 21 21 21 21 19 18 17 16 15 14 13 13 13 15 17 19 23 26 28 31 33 36 39 42 43 43 43 44 44
9 8 7 5 5 4 5 6 8 9 10 11 12 13 15 16 18 19 20 20 21 21 21 20 20 19 18 17 16 15 13 12 13 13 14 16 18 21 25 27 30 34 36 39 41 42 43 43 44
6 4 3 2 2 3 5 6 7 8 10 11 12 13 14 16 17 19 20 20 21 21 21 20 20 20 20 19 17 16 15 13 13 12 13 14 15 18 20 24 27 30 33 36 39 41 42 43 43
3 1 1 2 2 3 4 5 7 8 10 11 12 13 15 16 17 18 19 20 21 21 21 21 21 21 20 20 19 18 16 15 14 13 13 13 13 15 18 20 23 26 29 32 35 39 41 42 44
3 3 3 3 3 3 4 5 7 8 10 11 12 13 15 15 16 17 19 20 21 22 21 21 21 21 21 21 20 19 18 17 16 15 14 13 13 12 13 16 19 22 26 29 32 35 38 40 42
5 5 5 5 4 4 4 5 7 8 10 11 12 14 15 15 16 17 18 20 21 22 22 22 22 22 22 22 21 20 20 19 18 16 15 14 13 12 11 13 16 19 22 26 30 33 36 38 40
6 6 6 5 4 4 4 5 6 8 10 11 12 13 14 15 16 17 18 19 20 22 22 23 23 23 23 23 23 22 21 20 20 19 18 17 15 13 12 12 13 16 19 23 26 30 33 36 38
7 6 6 5 4 4 4 5 6 7 9 11 12 13 14 15 16 17 18 19 20 21 22 23 24 24 24 24 24 23 23 22 21 20 19 18 17 15 14 13 13 14 16 19 22 26 29 32 35
7 6 5 5 4 4 4 5 6 7 9 10 11 12 13 14 15 16 17 18 19 20 21 22 23 24 24 24 24 24 24 23 22 22 20 20 18 17 15 14 14 14 15 17 20 22 26 29 32

GEFSSGP_500_meanwind_072.txt.gz
Wind_Speed
6 6 6 5 4 4 4 5 6 6 7 7 7 7 7 8 9 9 11 11 11 10 10 11 11 12 11 12 12 12 12 11 11 11 11 11 12 12 12 13 13 13 13 13 13 13 13 13 14
4 4 4 4 5 4 4 5 6 7 7 7 8 8 8 9 10 10 11 12 11 11 12 12 13 14 14 15 15 15 15 15 14 14 14 14 13 13 12 13 13 13 13 12 12 12 13 13 13
3 2 3 3 4 5 6 7 7 8 8 9 9 9 10 10 11 12 13 13 13 13 13 14 15 16 16 17 17 18 18 18 18 17 17 16 15 14 13 13 13 13 12 12 12 12 12 12 12
3 3 4 4 5 6 7 8 9 9 10 10 11 11 12 13 13 14 15 15 16 16 16 17 17 18 18 19 19 19 20 21 21 21 20 19 18 17 15 14 14 13 12 12 12 11 11 11 11
4 4 5 6 6 8 9 10 11 12 12 13 14 14 15 16 17 17 18 19 19 19 19 20 20 21 20 21 22 22 22 23 24 24 23 23 22 20 18 17 16 15 13 12 12 11 11 10 10
6 6 7 7 8 9 11 12 13 14 15 16 17 17 18 19 20 21 22 23 23 24 24 24 24 23 23 22 22 23 24 24 24 25 26 26 25 23 21 20 19 17 15 14 13 12 11 10 10
7 8 9 10 11 12 13 14 16 17 18 19 20 21 21 22 23 24 26 27 27 27 27 27 27 27 26 26 25 25 25 26 26 26 28 28 27 27 25 23 21 20 18 16 14 13 12 11 11
10 10 10 12 13 14 15 16 18 20 21 22 23 23 24 24 26 27 28 29 30 30 30 30 30 30 30 29 28 29 29 28 28 27 28 29 28 27 27 26 24 23 21 19 17 15 13 12 11
11 11 11 14 16 16 17 19 20 21 22 23 24 25 26 27 28 29 30 30 30 31 31 32 32 32 32 32 32 31 32 31 31 31 30 30 28 26 26 26 25 24 23 21 19 18 16 14 13
13 13 13 15 17 18 19 21 22 23 23 24 25 26 27 28 29 30 30 31 31 32 32 33 33 33 33 32 32 32 33 34 34 34 33 32 31 30 29 27 27 26 24 24 22 20 19 17 15
15 15 16 17 19 19 20 21 23 25 25 26 26 27 27 28 29 30 31 30 30 30 30 31 31 31 31 31 32 32 33 34 35 36 36 35 34 33 31 30 29 28 27 26 25 24 22 20 18
17 17 18 18 19 20 21 22 23 25 26 26 26 27 27 28 28 27 27 27 27 27 27 28 29 30 30 30 31 31 33 33 34 35 36 37 37 36 34 32 31 32 30 29 28 26 25 22 21
18 18 18 19 19 21 22 23 23 24 25 25 26 26 27 26 25 25 25 25 26 26 26 26 27 27 28 28 29 30 31 32 33 34 35 36 37 38 37 35 34 33 34 31 29 28 25 25 24
17 17 18 19 20 21 22 23 23 22 23 24 25 25 24 23 23 24 24 24 24 24 23 23 24 24 25 26 26 27 28 29 31 32 33 34 35 37 38 37 36 35 35 33 31 29 27 25 24
18 19 19 19 20 20 22 23 22 22 23 23 23 22 22 22 22 22 22 23 23 23 23 23 23 23 23 24 24 25 26 27 28 30 30 31 32 34 36 36 37 36 36 35 32 31 30 28 25
18 18 18 18 18 19 21 23 22 22 22 21 21 20 20 20 20 20 21 21 22 22 22 22 22 21 21 22 23 23 24 25 26 27 28 29 30 32 33 34 35 36 36 37 35 33 31 29 28
15 15 15 18 18 18 19 21 22 20 19 19 18 19 18 18 18 19 20 21 21 21 21 21 21 21 21 21 21 21 22 22 23 24 25 27 28 29 31 32 33 35 36 36 36 35 34 32 31
15 14 13 18 20 19 19 20 20 17 16 16 16 16 16 17 18 19 20 21 21 21 21 21 21 21 20 19 18 18 18 18 19 21 22 24 26 27 29 30 32 32 33 34 35 36 35 35 33
16 14 15 19 20 18 19 18 18 15 14 14 14 14 15 16 17 18 19 21 21 21 21 21 21 20 19 18 18 17 16 15 15 16 18 20 22 24 26 28 29 30 31 32 33 35 36 35 34
15 15 15 19 18 16 16 14 13 12 11 12 12 13 14 15 17 18 19 20 21 21 21 21 21 20 20 19 18 17 16 15 14 13 14 16 18 20 22 24 26 28 29 31 32 33 35 36 35
15 17 16 17 16 14 12 10 8 8 9 10 11 12 13 15 16 18 19 20 21 21 21 21 21 21 20 19 19 17 16 15 14 12 12 13 14 17 19 21 23 25 27 29 31 32 34 35 36
16 16 14 13 13 10 8 8 7 7 8 9 10 11 13 14 16 17 18 19 20 21 21 21 21 22 21 20 20 19 17 16 14 13 11 11 12 14 16 19 21 22 24 27 29 31 32 33 35
16 12 11 10 8 7 5 6 8 7 8 8 10 11 13 14 15 16 17 19 20 21 21 21 22 22 22 21 21 20 19 17 16 14 13 12 12 12 13 15 18 20 22 24 27 30 31 33 34
12 10 8 6 5 3 4 5 7 6 7 8 9 11 12 13 14 15 16 18 19 20 21 22 22 22 22 22 22 21 20 19 18 17 15 14 13 13 13 13 15 17 20 22 24 27 30 32 34
11 9 6 1 5 6 5 5 6 6 7 8 9 10 11 12 13 14 16 17 19 20 21 22 23 23 23 23 23 22 21 21 20 19 18 16 14 13 13 14 14 15 18 20 22 25 28 30 32
11 10 9 7 3 9 8 6 4 4 6 7 8 9 10 11 12 14 15 17 18 19 20 22 23 23 24 24 24 23 23 22 22 21 20 18 16 15 14 14 14 15 17 19 22 24 26 28 31
11 10 10 10 11 7 7 5 2 4 5 6 7 8 9 10 11 13 14 16 17 19 20 21 22 23 24 24 24 24 24 23 23 22 22 20 18 16 15 14 15 15 16 18 20 22 25 27 29
11 10 10 10 10 6 7 8 4 3 4 5 5 7 8 9 10 12 14 15 17 18 19 20 21 22 23 24 24 24 24 25 24 24 23 22 20 18 16 16 16 15 16 17 18 20 23 25 27
11 10 10 10 9 9 7 7 3 2 3 3 5 6 7 9 10 12 13 15 16 17 18 19 20 21 22 23 24 24 24 25 25 25 25 24 23 20 18 18 17 17 16 16 17 19 21 23 26
10 10 11 11 10 8 7 3 2 1 1 3 4 5 7 8 10 11 13 14 15 17 18 19 20 21 22 22 23 24 24 24 24 25 25 25 24 23 21 20 19 18 17 17 16 17 19 20 23

GEFSSGP_500_meanwind_078.txt.gz
Wind_Speed
1 1 1 2 1 3 3 2 4 5 5 5 6 6 7 7 8 8 10 9 8 7 8 8 9 10 11 12 12 12 13 14 14 14 14 14 15 15 15 15 14 14 15 15 15 15 16 16 16
1 2 3 3 2 2 3 3 4 5 5 5 7 7 8 8 9 9 11 10 10 10 10 11 12 12 13 14 14 15 17 17 17 18 17 17 17 18 17 16 16 15 15 15 15 16 15 16 16
2 3 4 4 4 3 3 4 5 6 6 7 8 9 10 11 11 11 12 12 13 13 13 14 15 15 16 17 17 18 19 20 21 21 21 21 20 20 19 18 18 17 16 15 15 15 15 15 15
3 6 6 6 6 4 5 5 6 7 8 9 10 11 12 13 13 14 14 15 16 17 17 18 18 19 19 20 20 21 21 22 23 23 23 23 23 23 22 20 19 19 18 17 16 15 15 15 15
6 7 8 9 9 7 6 7 8 8 10 12 13 14 15 15 16 17 17 19 20 21 21 21 22 22 23 23 23 24 24 24 25 26 25 25 25 26 25 23 22 22 21 19 17 16 16 15 15
9 10 10 11 10 9 9 9 10 11 12 14 15 17 17 18 18 19 21 22 23 24 24 24 25 26 26 26 26 27 27 27 27 28 28 28 27 27 28 26 25 24 23 22 20 18 17 16 15
11 11 12 12 11 9 9 10 11 13 14 15 16 18 19 20 20 22 23 24 24 25 26 27 27 27 27 28 28 29 29 30 29 29 30 30 29 28 28 27 26 26 25 23 22 20 18 17 16
12 13 14 14 12 11 11 11 13 15 16 17 18 19 20 20 21 22 23 24 25 26 27 27 28 28 28 28 29 29 30 31 32 32 32 33 32 30 29 28 28 28 26 25 24 22 20 19 17
14 15 15 15 14 13 12 12 13 15 17 18 19 20 20 21 21 22 23 24 25 25 26 26 26 26 27 27 28 29 30 31 32 33 33 34 34 33 31 30 30 29 28 26 24 24 22 20 19
15 16 16 16 14 13 13 14 14 15 17 18 18 19 20 21 21 22 22 23 23 23 24 24 24 24 25 26 27 28 29 30 31 32 32 33 34 34 34 32 31 30 29 27 25 24 23 22 20
16 17 17 14 13 13 14 14 15 16 17 17 18 19 20 21 21 21 21 21 22 22 23 23 23 23 24 24 25 26 28 29 30 31 32 33 33 34 34 34 32 31 31 29 27 25 24 23 22
16 17 14 12 11 12 14 14 15 16 17 18 19 20 21 21 20 20 21 21 21 21 22 22 22 22 23 23 23 24 25 26 28 29 31 31 32 33 34 34 33 32 32 31 29 27 27 25 24
18 18 14 10 11 12 14 14 14 16 17 18 19 20 20 20 20 20 20 20 19 19 20 20 20 21 21 21 20 21 22 24 25 27 28 30 32 33 33 34 33 33 32 32 31 29 28 27 26
19 19 16 12 11 12 12 12 13 14 16 16 17 18 18 18 18 18 18 18 19 19 19 19 19 19 19 19 19 19 20 21 23 25 27 28 29 31 32 34 34 33 33 33 33 31 29 29 28
19 16 14 12 12 12 11 11 12 14 15 15 15 15 15 16 16 16 17 18 18 19 19 19 19 19 18 18 18 18 18 19 20 22 23 25 27 28 30 31 32 33 32 33 33 33 31 31 30
18 14 13 12 11 10 9 10 12 12 13 12 12 12 13 14 14 15 16 17 18 19 19 19 19 18 18 17 16 16 16 16 17 18 20 22 24 26 27 29 30 30 31 31 33 34 33 32 32
17 15 14 12 10 11 10 10 10 11 11 10 10 11 12 12 12 14 15 16 17 18 19 19 19 19 19 18 17 16 16 15 15 15 16 17 20 22 25 26 27 28 29 29 31 32 33 32 32
16 14 14 13 11 10 8 8 9 9 8 8 9 10 10 10 12 13 15 16 17 18 19 20 20 20 19 18 18 17 16 15 15 14 13 14 15 18 21 23 25 26 27 28 29 30 31 32 33
15 14 14 12 11 10 8 7 8 8 7 7 8 9 9 10 12 13 15 16 17 18 19 20 20 20 20 20 19 18 17 16 15 14 12 11 11 13 15 18 21 23 25 26 28 28 30 31 32
14 13 13 13 11 9 8 7 6 5 5 5 7 8 9 10 11 13 14 15 16 18 18 20 20 20 20 20 20 20 19 17 16 15 13 11 9 9 11 14 16 19 22 24 26 27 28 29 31
13 13 12 12 11 9 7 6 5 3 2 4 6 7 8 9 10 12 13 15 16 17 18 19 20 20 21 21 21 20 19 19 17 16 14 12 10 9 8 10 13 15 18 20 23 25 26 28 30
12 11 11 11 10 9 7 5 3 2 0 3 5 6 7 8 9 11 13 14 16 17 18 19 20 21 21 21 21 21 20 20 19 18 17 14 11 9 8 9 10 12 14 17 20 23 25 27 29
10 10 10 10 9 7 6 5 3 2 2 2 4 5 6 7 9 10 12 13 14 16 17 19 20 21 21 22 22 22 21 21 20 19 18 16 14 11 9 8 9 11 12 15 18 20 23 26 28
11 10 11 10 9 8 6 5 4 5 3 3 3 4 5 6 8 9 10 12 13 15 17 18 19 20 21 21 22 22 22 22 21 21 20 18 16 14 12 10 9 9 10 12 15 18 20 23 27
12 11 11 11 10 10 7 6 6 5 4 4 3 3 4 5 6 8 9 11 12 14 16 17 18 19 20 21 21 22 22 22 22 22 21 20 19 17 14 12 10 9 9 10 13 16 18 21 24
13 12 12 12 12 11 9 7 6 6 5 4 3 3 3 4 5 7 8 10 12 13 15 16 17 18 19 20 21 21 22 22 22 22 21 21 20 19 17 14 12 11 10 10 11 13 16 19 22
12 12 12 13 13 12 9 8 7 6 5 4 4 3 3 3 4 6 7 9 11 13 14 16 17 18 19 20 21 21 22 22 22 22 22 22 21 20 18 16 14 12 11 11 11 12 14 17 20
12 12 12 13 13 12 10 9 8 7 5 5 4 3 2 3 3 5 7 9 11 12 14 15 16 18 19 20 20 21 22 22 22 23 22 22 22 21 19 18 17 15 14 13 12 11 12 14 17
12 12 12 12 13 12 11 9 9 8 7 6 4 3 2 1 3 4 6 8 11 12 14 15 16 18 19 20 20 21 22 22 22 22 22 22 22 21 20 19 18 18 16 15 14 13 12 13 15
13 13 12 12 12 12 11 8 10 9 8 7 6 4 2 1 3 5 7 9 10 12 14 15 17 18 19 20 21 21 22 22 22 22 22 22 22 21 20 20 19 19 18 17 16 14 13 12 13

GEFSSGP_500_meanwind_084.txt.gz
Wind_Speed
2 4 5 5 4 1 1 1 1 1 2 3 4 5 6 7 8 8 10 10 10 10 10 10 11 12 12 13 14 14 14 14 14 14 14 14 13 13 13 13 12 12 12 12 12 13 13 13 13
4 6 7 5 3 1 1 1 0 2 3 4 5 6 7 9 10 11 11 11 11 11 11 12 12 14 15 16 16 17 17 17 17 17 17 17 17 16 16 15 15 14 14 13 14 13 13 13 13
6 7 7 5 2 0 1 2 3 4 4 6 7 8 9 10 12 12 12 13 14 13 14 15 16 16 17 18 19 20 20 21 21 21 20 20 20 20 19 18 17 17 16 15 15 14 14 13 13
8 9 9 6 5 3 3 4 5 6 6 7 9 10 11 12 13 14 14 15 16 17 18 20 20 20 21 22 23 23 24 24 24 24 24 23 23 23 22 21 20 20 19 17 16 16 15 14 14
10 10 10 9 7 5 5 6 7 8 8 9 11 12 13 14 15 16 17 18 19 20 21 22 23 24 24 25 26 27 27 28 27 27 27 26 26 25 25 24 23 22 21 20 19 18 17 16 15
11 12 13 10 8 8 8 8 9 9 10 11 13 14 15 15 17 18 19 20 20 21 22 23 24 25 26 26 28 29 29 30 30 30 29 29 29 28 28 27 26 25 24 23 22 20 19 18 16
13 13 14 12 10 9 10 10 10 11 12 13 14 15 15 16 17 18 20 21 22 22 23 23 23 24 25 25 27 28 29 30 31 31 32 32 32 31 30 29 27 27 26 24 23 22 20 19 18
15 15 14 13 12 11 11 11 12 12 13 13 14 15 15 17 18 19 20 21 21 22 22 23 23 24 24 24 25 26 27 28 29 30 31 32 32 32 32 31 30 29 28 26 25 23 21 20 18
16 16 15 13 12 12 12 12 13 13 13 14 14 15 16 16 17 18 19 19 20 20 21 21 22 22 23 24 24 24 25 26 28 29 30 31 33 33 33 32 32 31 30 29 27 25 23 22 20
17 17 16 15 13 13 13 14 14 14 13 13 14 15 16 16 16 17 17 18 19 19 20 20 20 21 21 22 23 23 24 25 26 28 29 30 31 32 33 34 33 33 33 31 29 28 26 24 22
18 18 17 15 14 15 15 14 13 13 12 13 14 14 15 15 15 15 16 17 17 17 17 18 18 18 19 19 20 21 23 24 24 26 27 29 30 32 32 33 33 32 33 32 30 29 27 25 23
20 19 18 15 15 15 14 13 13 12 12 13 13 14 14 14 13 13 14 15 15 15 16 16 16 17 17 18 19 20 20 21 22 23 24 26 28 30 31 32 32 32 32 32 31 30 28 26 25
21 19 18 16 14 14 12 12 13 12 11 12 13 13 13 11 11 12 12 13 13 14 15 16 16 17 17 17 18 18 19 19 20 20 22 23 25 27 28 30 32 32 32 31 31 31 30 26 25
19 18 17 15 15 14 13 12 11 10 11 12 12 11 10 9 9 10 11 12 13 14 15 16 17 17 18 18 17 18 17 17 16 17 18 20 21 24 25 27 29 31 31 30 30 31 30 28 26
19 17 15 14 14 14 13 12 12 12 12 12 10 10 8 7 8 9 10 11 12 14 15 16 17 18 18 18 18 18 17 16 15 15 16 17 18 20 22 24 26 28 29 29 29 30 31 30 28
18 16 14 13 13 12 12 12 12 11 10 10 9 8 6 6 6 7 9 10 12 14 15 16 17 18 19 19 19 19 18 17 16 15 15 15 16 17 18 21 22 24 26 27 27 28 30 30 29
17 15 13 11 11 10 10 11 11 10 9 8 8 6 4 4 5 6 8 10 12 13 15 16 17 19 19 19 20 20 19 18 17 15 15 14 14 15 15 17 19 21 22 24 25 26 27 29 29
16 14 12 11 11 10 10 11 11 10 8 7 6 5 3 2 3 5 8 10 11 13 14 16 17 19 20 20 20 20 20 19 18 17 16 15 13 12 12 12 14 17 19 21 23 24 25 27 28
15 12 11 11 9 10 10 11 11 9 8 7 6 4 2 1 3 5 7 9 11 12 14 16 18 19 20 20 21 21 20 20 20 19 17 16 14 11 9 9 9 12 16 19 21 22 25 26 27
13 11 10 11 10 10 11 11 11 9 8 7 5 4 3 1 2 4 6 8 10 12 14 16 17 18 19 20 21 21 21 21 21 20 19 17 14 12 10 8 8 9 12 15 18 20 22 25 26
12 11 11 12 11 11 12 11 11 9 8 7 6 5 4 2 2 3 5 7 9 11 14 16 17 18 19 20 21 22 22 22 22 21 20 18 16 14 11 9 7 7 8 12 15 18 20 22 24
13 13 12 13 12 12 12 11 11 10 8 8 7 6 4 3 2 2 4 6 8 10 13 15 16 17 19 20 21 21 22 22 22 22 21 19 17 15 13 11 9 7 7 8 11 15 18 20 22
14 14 14 14 13 12 11 11 10 10 9 8 8 7 5 4 2 2 3 5 7 10 12 14 16 17 18 19 20 21 22 22 22 22 21 20 19 17 15 12 10 8 7 8 9 12 15 18 21
15 15 15 15 13 12 11 11 9 10 9 9 8 7 6 5 3 2 2 4 7 9 11 13 15 17 18 19 20 21 21 22 22 22 21 20 19 18 16 14 11 10 8 8 8 10 12 15 18
15 15 15 15 13 12 12 11 10 10 10 9 9 8 7 6 4 2 1 3 6 8 10 12 14 16 18 19 20 20 21 21 22 22 22 21 20 19 17 16 13 11 9 8 8 9 10 13 16
15 15 16 15 14 12 11 10 10 11 10 10 10 9 8 6 4 2 0 3 6 8 10 12 14 16 17 19 20 20 20 21 21 21 21 21 20 20 18 17 15 13 11 9 8 8 9 11 13
15 16 16 16 15 14 12 10 11 12 12 11 11 10 8 7 5 3 1 3 5 8 10 12 14 15 17 18 19 20 20 20 20 21 21 20 20 20 19 18 17 15 12 10 9 8 8 9 10
14 14 15 16 17 15 13 12 12 13 13 13 12 11 9 7 6 4 2 3 5 8 10 12 14 15 17 18 19 19 20 20 20 20 20 20 20 20 19 19 17 16 14 12 10 9 9 9 9
14 14 15 16 16 16 14 12 13 14 14 14 13 12 10 8 7 5 3 4 6 8 10 12 13 15 16 17 18 19 19 20 20 20 20 20 20 19 19 19 18 17 15 13 12 11 10 9 9
15 15 15 16 16 16 14 11 14 15 15 15 14 13 11 9 8 6 5 5 7 9 10 12 13 15 16 17 18 18 19 20 20 20 20 19 19 19 19 18 18 17 16 15 13 13 12 11 10

GEFSSGP_500_meanwind_090.txt.gz
Wind_Speed
5 5 4 3 4 3 4 5 5 4 4 3 3 3 4 5 6 7 9 10 10 10 11 11 11 12 13 13 14 15 15 15 16 16 16 15 15 15 15 15 15 15 15 15 14 14 13 13 13
6 5 5 4 4 3 3 4 5 5 4 4 4 4 6 7 8 9 10 11 11 12 12 12 12 13 14 15 16 18 19 18 19 18 18 18 18 18 17 17 18 17 17 16 16 15 14 13 13
7 6 6 5 4 4 3 4 4 4 4 5 5 6 8 9 10 11 11 12 13 14 15 15 15 15 16 18 19 21 22 21 21 21 21 21 21 20 20 20 20 19 19 18 16 16 15 14 14
9 7 7 5 4 4 4 4 4 5 5 6 7 8 10 11 11 12 13 14 14 15 16 17 17 18 20 21 22 24 24 24 24 24 24 24 23 23 23 23 22 22 21 20 19 18 17 15 15
10 8 8 7 6 6 4 4 5 6 6 8 9 11 12 12 12 13 14 15 16 16 17 18 19 20 21 22 23 25 25 26 25 25 26 27 27 27 27 26 25 25 24 23 22 20 19 17 17
12 10 10 9 7 6 5 5 7 7 8 10 11 12 13 13 13 14 15 15 16 16 17 17 18 19 20 21 22 24 25 26 27 27 28 29 29 29 29 28 28 28 26 25 24 22 19 19 17
13 12 11 10 9 8 8 8 8 9 9 11 12 12 12 13 14 14 14 15 15 16 16 17 17 18 19 20 21 22 24 25 27 28 29 30 31 31 31 30 30 30 29 27 26 24 21 20 18
14 13 12 11 10 10 10 9 9 10 10 11 11 12 12 13 13 13 13 14 14 15 15 16 16 17 17 18 19 20 22 23 25 27 28 30 30 31 31 31 32 32 30 29 28 26 24 21 20
15 14 13 12 11 11 10 9 9 10 11 10 11 12 12 13 13 13 13 13 13 13 14 14 14 15 16 17 17 18 19 21 23 24 26 28 29 30 30 30 30 31 32 31 29 27 26 25 22
17 16 16 14 13 12 11 11 11 11 11 11 11 12 12 12 12 12 11 11 11 12 12 12 13 13 14 14 15 16 17 18 20 21 23 25 26 28 29 30 30 31 31 32 31 29 27 26 25
19 18 16 15 13 12 12 11 11 12 12 11 11 12 12 11 11 11 10 10 10 10 10 11 11 12 13 14 14 15 16 17 18 19 21 22 24 26 27 28 29 30 31 32 32 31 29 27 26
19 18 17 16 13 13 12 12 12 13 12 12 12 12 11 10 10 9 8 9 9 9 9 9 10 11 12 14 15 15 16 16 17 17 18 19 20 23 25 26 27 29 30 30 31 32 30 29 26
20 18 16 15 13 12 12 12 13 13 12 12 12 11 10 9 8 8 7 7 7 7 8 9 10 11 13 14 14 15 16 17 17 16 17 17 18 19 21 23 25 26 28 29 30 30 30 30 28
19 17 17 14 12 11 11 12 13 12 12 12 12 11 9 8 7 6 6 6 6 6 7 9 10 11 13 14 15 16 16 17 17 16 16 16 16 16 18 19 21 24 26 27 28 29 29 29 28
18 17 15 13 12 12 12 12 13 12 12 12 11 10 8 7 6 5 5 5 4 5 7 8 9 11 13 14 15 16 17 17 17 16 16 16 15 15 16 17 18 20 22 24 25 27 27 27 28
17 16 14 13 13 12 12 13 12 12 12 11 9 9 8 6 5 5 4 3 3 5 6 8 9 11 13 14 15 16 17 18 17 17 16 15 15 14 14 14 15 17 19 21 22 24 25 25 26
16 15 14 13 13 13 12 13 13 12 11 10 9 8 7 6 5 5 4 3 3 4 5 7 9 11 13 14 15 16 17 18 18 17 16 16 14 13 12 12 12 14 16 18 19 21 23 24 25
15 14 13 14 14 13 13 12 13 12 11 10 9 8 7 6 6 5 4 2 2 3 5 7 9 11 13 14 15 17 18 18 18 18 17 16 15 13 11 10 10 11 12 14 16 19 21 23 24
15 14 12 13 13 13 13 13 13 12 11 10 9 8 7 7 6 5 4 3 2 3 4 7 9 11 13 14 15 16 17 18 18 18 17 16 15 14 12 10 8 8 10 11 13 16 19 21 22
14 12 13 13 12 12 12 12 13 12 11 11 10 9 8 7 7 6 5 3 2 3 4 6 9 11 13 14 15 16 17 18 18 18 18 17 16 14 13 10 7 6 6 8 10 13 15 19 21
13 13 13 12 12 11 11 11 13 12 11 10 9 9 9 8 7 7 6 4 3 3 4 6 8 10 12 14 15 16 17 18 18 18 18 17 16 15 13 11 8 6 4 5 8 10 13 15 18
13 13 12 12 11 11 11 11 12 13 12 11 10 10 9 9 8 8 7 5 4 3 4 6 8 10 12 14 15 16 17 17 17 18 18 18 17 15 14 11 9 7 5 4 5 8 10 13 15
13 12 12 12 12 11 12 12 11 12 12 11 11 10 10 10 9 9 7 5 4 4 5 6 8 10 12 13 15 16 16 17 17 17 18 18 17 16 14 12 10 8 6 4 4 7 9 11 13
13 12 12 12 13 12 13 13 11 11 11 11 11 11 11 11 10 9 8 6 5 5 5 6 8 10 11 13 15 16 16 16 17 17 17 18 17 16 15 13 11 9 7 5 4 4 6 9 11
12 12 12 13 13 13 13 12 11 12 11 11 11 11 12 11 11 10 8 7 7 6 6 7 8 9 11 13 14 15 16 16 16 16 17 17 17 16 16 14 12 10 8 7 6 5 5 7 9
12 12 13 14 14 14 13 12 12 13 12 12 11 12 12 12 11 10 9 8 7 7 7 7 8 9 11 12 14 15 15 16 16 16 16 16 16 16 16 15 13 11 10 8 7 6 5 6 7
12 13 13 14 14 14 13 12 13 14 13 13 12 12 13 13 12 11 10 9 8 7 7 8 9 10 11 12 13 14 15 15 15 15 15 16 16 16 15 15 13 12 10 9 8 7 6 5 6
12 13 13 14 15 14 13 13 14 15 14 13 13 13 13 14 13 12 11 10 9 8 8 8 9 10 11 12 13 13 14 15 15 15 15 15 15 15 15 14 13 12 11 9 8 7 6 6 5
13 14 14 15 16 16 15 13 15 15 15 15 15 15 15 15 14 13 12 11 10 9 8 9 9 10 10 11 12 13 13 14 14 15 15 15 15 15 15 14 14 13 12 10 9 8 7 6 5
15 15 16 17 18 17 17 13 15 16 16 16 16 16 16 16 16 15 14 12 11 10 9 9 9 10 10 11 11 12 13 13 14 14 15 15 15 15 15 15 14 13 12 11 10 9 8 7 6

GEFSSGP_500_meanwind_096.txt.gz
Wind_Speed
6 5 4 3 3 4 3 3 3 3 4 5 5 6 5 6 7 8 9 10 11 11 12 13 13 14 14 15 16 16 17 17 18 19 19 20 20 20 19 19 20 20 20 19 19 18 17 17 17
7 5 4 3 4 4 3 4 4 4 4 5 6 7 6 7 9 10 11 12 12 12 13 14 15 16 16 17 17 18 18 19 20 21 21 22 23 24 22 22 22 22 22 21 20 20 19 18 17
8 7 5 5 5 5 5 4 4 5 6 6 7 7 8 8 10 11 12 13 14 14 15 16 17 17 17 18 19 19 20 21 22 23 23 23 23 25 25 25 25 24 23 23 22 21 20 19 18
10 8 7 6 7 6 5 5 5 6 6 7 7 8 9 10 11 12 13 14 15 15 16 17 17 17 18 18 19 20 21 22 23 24 24 24 25 25 26 27 26 25 24 24 24 23 22 20 20
10 9 8 8 8 7 6 5 6 6 6 7 8 8 10 11 12 13 14 15 15 15 16 16 16 16 17 17 18 19 20 21 22 23 24 25 26 26 26 26 27 26 26 26 25 25 23 22 20
12 11 9 9 9 8 7 7 7 6 7 9 9 10 11 11 12 13 14 14 14 14 15 15 16 16 16 16 17 18 19 20 21 22 23 24 24 26 26 27 26 27 27 27 26 26 25 24 22
13 13 11 11 10 9 7 7 6 7 9 10 11 11 11 12 12 13 13 13 14 14 14 14 14 14 15 15 16 16 17 18 18 20 21 22 24 25 26 27 29 28 28 29 29 28 27 26 24
14 14 13 13 12 9 8 8 8 9 9 10 12 12 11 12 12 12 12 13 13 13 14 13 13 13 13 14 15 15 16 16 17 18 19 21 22 23 24 27 28 29 29 29 29 28 28 28 26
17 14 13 13 12 10 9 9 9 10 11 11 12 13 12 12 12 12 12 12 12 12 12 12 12 12 12 13 13 15 15 16 17 18 19 20 21 22 23 25 27 28 28 29 29 28 28 27 26
19 17 14 14 12 10 9 9 10 11 12 13 12 12 12 13 12 12 12 12 11 11 11 11 11 11 12 13 14 15 16 17 17 18 19 20 20 21 22 23 24 26 27 28 28 28 28 27 27
19 18 15 13 11 9 9 10 11 13 13 13 12 12 12 12 12 12 12 11 10 10 10 11 11 11 12 14 15 16 17 17 18 18 19 20 21 21 21 22 23 24 25 26 26 27 27 27 28
18 17 15 13 12 11 11 11 12 13 13 13 12 13 13 12 12 11 10 9 9 9 9 10 11 12 13 14 16 17 18 18 19 19 20 20 21 21 20 21 21 22 22 23 23 24 26 26 26
18 16 15 15 14 13 13 13 14 14 13 13 13 13 12 12 11 10 9 8 8 9 9 10 10 11 13 15 17 18 19 19 20 20 20 21 21 21 20 20 20 20 20 21 22 23 24 24 24
18 16 15 14 13 13 13 14 14 14 14 13 13 13 12 12 10 9 9 8 8 8 9 9 10 11 13 15 17 18 19 20 21 21 21 21 21 21 20 19 18 17 17 18 20 21 23 24 24
15 15 14 13 12 12 13 13 13 13 13 13 13 12 11 10 10 9 8 8 7 7 8 9 10 12 14 15 17 19 20 21 21 21 21 21 21 20 19 18 16 15 15 16 17 19 21 22 22
15 14 14 13 12 12 13 14 13 13 13 12 13 11 10 10 10 9 8 7 7 7 8 9 10 12 14 16 17 19 20 21 21 21 21 21 21 20 19 18 15 14 14 14 14 16 18 19 20
14 12 12 12 12 12 13 13 13 13 12 12 12 11 10 10 10 9 7 7 7 7 8 9 10 12 14 15 17 19 20 21 21 21 21 21 20 20 19 17 15 13 12 12 12 13 15 17 18
12 11 12 13 13 12 13 13 13 12 12 12 11 11 11 10 10 8 7 7 7 7 8 9 10 11 13 15 17 19 20 21 21 21 21 21 20 20 18 17 15 13 11 10 9 11 13 14 16
12 12 11 11 12 12 12 12 12 12 11 11 12 11 11 11 10 8 8 8 7 8 8 9 10 12 14 15 17 19 20 21 21 21 20 20 20 20 18 17 15 12 10 8 7 8 10 12 14
13 13 13 12 12 11 10 11 12 12 12 11 12 12 12 12 11 9 9 8 8 8 8 9 10 12 14 15 17 19 20 21 21 20 20 20 20 20 19 17 15 12 10 8 6 6 7 10 12
13 12 12 11 10 9 9 9 10 11 11 12 12 12 12 12 11 10 9 9 8 8 9 9 10 12 14 15 17 18 20 20 20 20 19 19 19 19 18 17 15 12 10 8 6 5 6 7 10
12 11 10 9 9 8 8 8 9 12 12 12 12 12 12 12 12 11 10 10 9 9 9 9 11 12 14 15 17 18 19 19 20 19 19 19 19 18 17 16 15 13 11 9 6 5 4 5 8
12 9 8 8 8 8 8 9 10 14 13 13 12 12 11 11 12 12 11 10 10 9 9 10 11 12 14 15 16 17 18 19 19 19 18 18 18 18 17 16 15 13 11 9 7 5 4 4 6
9 7 7 6 7 7 8 11 11 14 15 14 13 12 11 11 12 12 12 11 11 10 10 10 11 12 14 15 16 17 18 18 18 18 18 18 18 18 17 16 15 14 12 9 8 6 5 4 5
7 7 5 5 5 7 9 14 14 16 16 15 14 13 12 12 12 12 12 12 11 11 10 10 11 12 13 14 15 16 17 18 18 18 18 18 18 18 17 16 15 14 12 10 8 7 6 5 4
8 7 7 7 6 7 10 14 17 18 17 16 15 14 13 13 12 13 13 13 12 12 11 11 11 12 13 14 14 15 16 17 17 17 18 17 17 17 17 16 15 14 12 11 9 7 6 6 5
8 8 9 11 10 9 8 12 19 20 18 16 15 15 15 14 14 13 13 13 13 12 12 12 11 11 12 13 14 15 15 16 17 17 18 18 17 17 17 16 15 14 13 11 10 8 7 6 6
10 10 11 12 12 11 9 10 16 21 21 18 16 16 16 15 15 15 14 14 14 14 13 12 12 12 12 13 13 14 15 15 16 17 17 17 17 17 16 16 15 15 14 12 11 9 8 7 6
10 11 12 14 14 14 15 14 17 21 22 20 18 17 16 16 15 15 16 16 15 15 14 13 12 12 12 12 13 14 14 15 16 17 17 17 17 17 16 16 15 15 14 13 12 11 9 8 7
12 14 15 16 16 17 19 17 18 22 22 20 19 19 18 17 17 16 17 17 17 16 15 14 13 13 12 12 13 13 14 14 15 16 17 17 17 16 16 16 15 15 14 14 13 12 10 9 8

GEFSSGP_500_meanwind_102.txt.gz
Wind_Speed
6 5 5 4 4 3 3 2 2 2 3 3 3 3 3 3 3 4 5 7 8 8 10 11 12 13 14 15 15 15 16 16 17 18 19 20 20 21 22 22 22 23 23 24 24 23 22 21 20
6 7 7 6 6 5 3 3 3 3 2 3 3 3 4 4 3 4 6 7 8 10 11 12 13 14 15 15 15 15 16 17 18 18 19 20 21 22 23 23 23 24 24 25 25 25 24 23 21
7 7 8 8 7 5 4 3 2 3 3 2 3 4 5 5 4 6 7 9 9 11 12 12 13 14 14 14 14 14 15 16 17 18 19 21 22 22 23 23 23 24 24 24 25 25 25 24 23
9 8 9 9 7 6 5 3 2 2 2 2 3 4 5 5 6 7 9 10 10 11 11 11 12 12 12 13 13 14 15 15 16 18 19 20 21 22 22 23 23 24 25 25 25 25 25 25 24
11 11 11 10 8 7 6 5 3 3 3 3 4 5 5 6 7 8 9 10 10 10 11 11 11 11 12 12 13 13 14 15 15 16 17 17 19 20 21 21 22 23 24 25 26 26 26 25 24
13 13 12 11 8 8 7 6 5 4 4 4 5 7 7 7 8 8 10 10 10 10 10 10 10 10 10 11 12 12 13 14 14 15 15 16 17 18 19 20 21 22 23 24 25 26 26 25 25
15 14 13 12 10 9 7 7 5 5 4 5 6 7 8 8 8 9 9 10 10 9 9 10 10 10 10 10 11 12 13 13 14 15 15 16 16 17 18 19 20 21 23 24 25 26 27 27 26
17 16 15 14 12 10 9 7 6 5 5 6 6 7 7 8 8 9 9 8 8 8 8 9 9 9 10 10 11 12 13 14 14 15 16 16 17 17 18 18 19 20 21 22 24 25 26 27 27
18 17 16 14 13 12 9 7 6 4 5 7 7 8 8 8 8 9 8 8 8 7 8 8 8 8 9 10 11 12 13 14 15 16 16 17 17 18 18 19 19 20 21 22 23 24 25 26 27
17 16 15 14 13 10 7 7 5 4 5 6 7 8 8 9 9 9 8 7 7 7 7 7 7 7 8 10 11 12 13 15 16 17 17 18 19 19 19 20 20 20 20 21 22 23 24 25 27
18 16 14 13 10 8 7 6 5 5 5 6 7 7 8 9 9 8 8 7 7 6 6 6 6 7 8 10 11 13 14 15 16 17 19 19 19 19 19 20 20 20 20 21 21 21 22 24 25
18 17 14 13 10 7 6 6 5 5 5 6 7 8 8 8 8 8 7 7 7 6 5 5 6 6 8 9 11 13 14 16 17 18 19 20 20 20 20 20 20 20 20 20 20 20 21 23 24
18 16 15 13 11 9 8 7 6 6 6 7 8 8 8 8 7 7 7 7 6 6 5 5 6 7 9 10 12 13 15 16 18 19 20 20 20 20 20 20 20 19 19 19 19 19 20 22 23
18 17 15 13 11 9 8 8 8 6 6 7 8 9 9 8 7 7 6 6 6 5 5 6 7 8 9 10 12 14 16 17 19 19 20 20 20 20 20 20 20 19 18 17 16 17 18 20 22
17 16 14 12 11 9 8 7 7 6 7 7 7 8 9 8 7 7 6 6 6 5 5 6 7 8 9 11 12 14 16 18 19 20 20 20 21 21 20 20 19 18 17 15 14 15 15 17 20
16 13 12 11 11 9 7 6 6 6 7 7 7 8 8 8 7 7 6 6 5 5 5 6 7 8 10 11 13 15 17 19 19 20 20 20 21 21 21 21 19 17 15 13 12 12 13 14 17
13 12 10 10 9 8 7 7 7 6 7 7 7 7 8 8 7 7 6 5 5 5 5 6 7 8 10 11 14 16 17 19 19 20 20 20 20 21 21 20 18 16 14 12 10 9 10 12 14
11 11 9 9 7 7 6 6 7 7 7 7 7 7 7 7 7 7 6 6 5 5 5 6 7 8 10 12 14 16 18 19 19 20 20 20 20 20 21 19 18 16 14 12 9 8 8 10 11
10 10 8 7 4 4 4 5 6 7 7 7 7 6 6 7 7 7 7 6 5 6 6 6 8 9 10 12 14 16 17 18 19 19 20 20 20 20 20 19 18 16 13 12 9 7 6 8 10
9 7 6 5 3 3 3 3 4 5 6 7 7 6 6 7 7 7 7 7 6 6 6 7 8 9 10 12 14 15 17 18 18 19 19 20 20 20 19 19 18 16 14 11 9 6 5 6 8
8 6 5 4 3 3 2 2 3 4 5 6 6 6 6 6 6 7 7 7 7 7 7 7 8 9 10 12 13 15 16 17 17 18 19 19 20 19 19 19 18 16 14 12 9 6 4 4 6
6 5 4 3 2 2 1 1 2 3 3 4 6 6 6 6 7 7 7 7 7 7 7 8 9 9 10 11 13 14 15 16 17 17 18 19 19 19 19 18 18 16 14 12 11 8 4 3 4
6 5 4 2 1 1 2 2 2 3 4 5 7 8 7 7 7 8 8 8 8 8 8 8 9 10 10 11 12 13 14 15 16 17 18 18 19 19 18 18 17 16 14 13 11 9 6 3 2
6 4 3 1 1 2 3 3 3 5 6 7 8 8 8 8 8 8 8 8 8 8 8 9 9 10 10 10 11 12 13 14 15 16 17 18 18 18 18 17 17 16 14 12 11 9 8 5 1
5 3 2 1 2 2 4 5 5 7 8 9 10 10 10 9 9 9 9 9 9 9 9 9 10 10 10 10 10 11 12 13 14 15 16 17 18 18 17 17 16 15 14 13 11 10 8 6 3
3 2 2 2 3 3 5 6 8 9 10 11 12 11 11 10 9 9 10 10 9 10 10 10 10 10 10 10 10 11 11 12 13 14 15 16 17 17 17 16 15 14 14 13 11 11 9 7 4
2 2 3 4 5 6 6 8 10 12 13 14 13 12 12 11 10 10 10 11 11 11 11 11 11 11 10 10 10 10 11 11 12 13 14 15 16 16 15 15 15 14 14 12 11 10 10 8 5
2 3 4 5 6 7 8 9 11 13 14 15 14 13 12 11 12 12 12 12 12 12 12 12 12 12 11 11 11 11 11 11 12 13 14 14 15 15 14 14 15 14 13 12 11 10 10 8 6
4 5 6 7 8 9 9 10 13 14 16 16 15 14 13 12 12 13 13 13 14 14 14 14 14 13 12 12 12 11 11 11 11 12 13 13 14 14 14 14 14 14 13 12 11 10 9 8 7
5 6 7 8 9 10 11 10 14 16 17 17 16 15 14 13 12 13 14 14 15 15 15 15 15 15 14 14 13 13 12 11 11 11 12 12 13 13 13 13 13 13 13 13 12 10 9 8 7

GEFSSGP_500_meanwind_108.txt.gz
Wind_Speed
9 7 5 4 4 4 3 3 3 3 4 4 4 3 4 3 3 4 4 4 6 7 8 10 11 12 12 12 12 13 13 13 14 14 15 15 16 16 17 17 18 18 19 20 20 20 20 19 19
9 8 6 4 4 3 3 2 2 2 3 3 3 4 3 3 3 3 5 6 7 8 9 10 11 11 11 11 11 12 12 13 13 14 15 16 16 17 18 17 18 19 20 21 21 22 21 20 20
10 8 7 6 5 4 3 3 2 1 2 2 3 3 4 3 4 4 5 7 8 9 10 10 10 10 10 10 11 11 12 12 13 13 14 14 15 16 16 17 18 19 19 20 21 22 22 21 21
11 9 8 7 6 5 4 5 4 3 3 3 2 3 4 4 5 5 6 7 8 9 10 10 9 9 9 9 10 10 11 11 12 13 14 14 14 15 16 17 17 18 19 19 20 22 22 21 20
12 10 9 8 6 5 4 5 5 4 4 4 3 4 4 4 5 5 6 8 8 9 9 8 9 9 9 9 10 10 11 12 12 13 13 14 14 14 15 16 17 18 19 19 20 20 21 22 21
13 11 9 8 6 5 5 5 5 5 5 4 4 4 5 5 6 7 7 7 8 8 8 8 8 8 8 9 9 10 11 12 13 13 13 14 14 14 15 16 16 17 18 19 19 20 21 22 21
13 11 9 8 7 7 7 6 6 6 6 5 5 5 5 6 7 7 7 8 8 8 7 7 8 8 8 8 9 10 11 12 12 13 14 14 15 15 15 16 16 16 17 18 19 20 21 22 22
14 12 11 9 8 8 8 8 7 7 7 6 5 5 6 6 7 7 8 8 8 8 7 7 7 8 8 8 9 10 11 11 12 13 14 15 15 16 16 16 17 17 18 18 19 20 21 22 22
15 13 12 11 10 9 9 9 8 7 7 6 5 6 6 7 7 8 8 8 7 7 6 7 7 7 7 8 9 10 11 12 13 14 15 15 15 16 17 17 17 18 18 19 19 20 21 21 22
15 14 12 11 10 9 9 9 9 8 7 5 5 6 6 7 7 7 7 7 7 7 6 6 7 7 7 8 9 10 12 13 14 15 15 15 16 17 17 18 18 19 19 19 19 20 20 21 21
15 14 12 12 10 7 8 8 8 7 6 5 5 5 6 7 7 8 8 8 7 7 6 6 6 7 7 8 9 11 12 13 15 15 15 16 17 18 18 19 19 20 20 20 19 19 19 20 20
16 14 12 11 9 7 6 6 6 7 6 5 6 6 7 7 7 7 7 7 7 7 7 6 6 7 7 8 10 11 12 14 15 16 16 17 18 18 19 19 19 20 20 20 19 19 19 19 20
16 14 13 12 9 8 6 6 7 7 7 7 7 7 7 8 8 7 7 7 7 7 7 6 6 7 7 8 9 11 13 15 16 16 16 17 18 18 19 19 20 20 20 19 18 18 17 18 18
16 15 14 12 10 9 8 8 7 8 8 7 7 7 8 9 8 8 7 7 7 7 7 7 7 7 7 8 9 11 13 15 16 16 17 17 18 19 19 19 20 20 19 18 18 16 15 15 16
16 14 13 12 9 8 7 7 7 7 7 7 7 8 9 9 9 8 7 7 7 7 7 7 7 7 7 8 9 11 13 15 16 16 17 17 18 19 19 19 20 20 19 18 17 15 14 14 14
16 15 13 10 9 8 8 8 8 7 6 7 7 8 9 9 9 8 8 8 8 8 8 8 7 7 7 9 10 11 13 15 16 16 17 17 18 18 19 19 20 20 18 18 16 14 13 12 13
15 12 11 10 9 8 8 8 8 8 6 7 8 8 8 9 9 9 9 9 9 8 8 8 7 7 8 9 10 12 13 15 16 16 17 17 18 18 19 20 20 19 19 18 16 13 12 11 11
14 12 10 9 8 7 7 6 6 7 7 8 9 9 9 9 10 10 10 10 9 8 8 7 7 7 8 9 10 12 13 14 15 16 17 18 18 19 19 19 19 19 19 17 15 13 10 9 9
13 12 11 9 7 6 6 6 6 6 7 8 9 9 10 10 10 10 10 10 9 8 8 8 7 7 8 9 10 12 13 14 15 16 17 18 19 19 19 19 19 19 19 17 15 12 10 9 8
13 11 10 9 8 7 6 5 5 6 6 7 8 9 10 10 10 10 10 9 9 9 9 8 8 8 8 9 10 11 12 14 15 15 16 17 19 19 19 19 19 19 19 17 14 12 10 8 8
12 11 10 9 8 7 5 4 4 5 6 7 8 9 9 9 9 10 10 10 10 9 9 9 9 8 8 9 10 11 12 13 14 15 16 17 19 19 19 19 19 19 18 16 14 11 9 8 6
11 10 10 9 7 6 4 4 3 4 6 7 8 9 9 9 9 10 10 10 9 9 9 9 9 9 9 9 10 10 11 12 13 14 16 17 18 19 19 19 18 18 17 16 14 11 9 8 6
11 10 10 8 7 5 5 4 3 4 6 7 8 9 9 9 9 9 9 10 9 9 10 10 10 10 9 9 10 10 11 12 13 14 15 17 18 18 19 19 18 17 17 16 14 11 10 8 6
11 10 9 7 6 5 4 3 4 5 7 7 8 8 9 9 10 9 9 9 10 10 10 10 11 10 10 10 10 11 11 12 13 13 15 16 17 18 18 18 17 17 16 15 14 11 9 8 6
10 9 7 6 5 4 3 3 4 6 6 7 7 8 9 10 10 10 9 9 10 10 10 11 11 11 11 11 11 11 11 12 13 13 14 15 16 17 17 17 16 16 15 15 14 12 10 8 7
9 8 6 5 3 3 3 4 5 6 7 8 8 9 9 10 10 11 11 10 11 11 11 11 12 12 12 12 12 12 12 12 13 13 14 15 15 16 16 16 15 15 14 14 13 12 11 9 6
8 7 5 4 3 3 4 4 6 7 8 9 9 9 10 10 11 11 11 11 12 12 12 12 13 13 13 13 13 13 13 13 13 14 14 14 15 15 15 15 15 14 14 13 12 12 10 8 7
5 4 3 3 4 4 4 5 7 8 9 9 9 10 10 11 11 11 12 12 12 13 13 14 14 14 14 14 14 14 14 14 14 14 14 14 14 15 15 14 14 14 13 13 12 11 10 9 8
3 3 2 3 3 4 5 6 8 8 9 9 10 11 11 12 12 13 13 13 13 13 14 14 15 15 16 16 15 15 15 15 15 15 15 15 15 14 14 14 13 13 12 12 12 11 10 9 8
2 1 2 3 3 4 5 7 8 9 9 10 10 11 11 12 13 13 14 14 15 15 15 15 15 16 17 17 17 17 17 17 17 16 16 16 16 15 14 13 13 12 12 12 11 10 10 9 8

GEFSSGP_500_meanwind_114.txt.gz
Wind_Speed
6 5 6 5 5 5 4 5 5 6 7 6 5 5 4 4 3 3 3 3 3 4 5 6 7 7 8 8 8 8 9 9 9 9 10 10 11 11 11 11 12 13 13 13 14 14 14 14 14
8 7 7 5 5 5 5 5 5 5 5 5 4 3 3 3 3 3 3 3 4 4 5 6 6 7 7 7 8 8 9 9 9 10 10 11 11 11 11 11 12 12 12 13 13 14 14 15 15
9 8 8 6 6 5 5 6 4 4 4 4 3 2 2 2 2 3 3 4 4 5 6 6 6 6 6 7 7 8 8 8 9 10 10 11 11 12 12 12 12 12 13 13 13 14 14 15 15
11 10 9 7 6 5 5 5 4 4 3 3 2 2 2 2 2 2 3 4 4 5 6 6 6 6 6 6 7 7 8 8 9 10 10 11 11 11 12 12 12 12 13 14 14 14 15 15 16
13 11 9 7 6 5 5 4 3 2 2 2 1 2 2 2 2 3 4 4 5 5 6 6 6 6 6 6 7 7 8 9 10 10 11 11 12 12 12 12 12 13 14 14 15 15 16 16 16
13 10 9 8 6 5 5 4 3 3 3 2 2 2 2 3 3 4 4 5 5 5 5 5 6 6 6 6 7 7 8 9 10 10 11 12 12 12 12 13 13 14 15 15 15 16 16 16 17
14 11 10 8 6 5 4 4 3 3 3 3 3 3 3 4 4 4 5 5 6 5 6 6 6 6 6 6 7 7 9 10 10 11 12 12 13 13 13 14 14 15 16 16 16 16 17 17 17
14 13 11 9 7 6 5 4 4 3 4 4 4 4 4 4 5 5 6 6 5 6 6 6 7 6 6 7 7 8 9 10 11 12 13 13 13 14 15 15 16 16 17 17 17 17 17 17 17
15 14 12 10 8 7 5 5 5 4 5 5 5 5 5 5 5 6 6 5 6 6 7 7 7 6 6 7 7 8 9 10 12 13 13 14 14 15 16 16 17 17 18 18 17 17 17 17 17
16 14 12 10 8 7 6 5 5 5 5 6 6 5 5 6 6 6 6 6 6 7 7 7 7 6 7 7 8 9 10 11 12 13 14 14 15 16 16 17 17 18 18 18 17 18 18 18 17
15 13 12 10 9 8 7 6 6 6 6 6 6 6 5 6 6 7 7 7 7 7 7 7 7 7 7 7 8 9 10 12 13 14 14 15 15 16 17 17 17 18 18 18 18 18 18 17 17
16 14 12 11 9 8 7 7 6 6 6 6 6 6 6 6 7 7 7 7 8 8 8 7 7 7 8 8 9 10 11 12 13 14 15 15 16 16 16 17 17 18 18 17 17 18 17 16 16
17 14 12 11 10 8 7 7 7 6 6 6 6 6 6 6 7 8 8 8 8 8 8 8 7 7 8 9 10 10 12 13 14 15 15 15 16 16 17 17 17 17 18 18 17 17 16 16 15
18 15 13 12 10 9 8 8 8 7 6 6 6 6 7 7 8 8 8 8 8 8 8 8 8 8 9 10 10 11 12 13 14 14 15 15 16 16 17 18 18 18 18 18 17 17 17 16 15
18 16 14 12 11 10 9 8 7 7 6 6 6 6 7 7 8 8 9 9 9 9 9 9 9 9 10 10 11 11 12 13 14 14 15 15 16 17 17 18 18 18 18 18 18 17 16 15 14
18 15 14 13 12 11 9 8 7 6 6 5 6 6 7 8 8 9 9 10 10 10 10 10 10 10 10 11 11 12 13 13 13 13 14 15 16 17 18 18 19 18 18 18 18 17 16 14 13
18 16 15 13 12 11 9 8 7 6 5 5 6 6 8 9 9 10 10 10 10 10 10 10 10 11 11 11 11 12 12 13 13 13 14 15 16 17 18 19 19 19 19 19 18 17 14 12 12
18 16 14 13 12 10 9 9 7 6 5 5 6 7 8 9 10 10 10 10 10 10 10 10 11 11 12 12 12 12 12 12 13 13 14 15 16 18 18 19 20 20 19 18 18 15 13 11 10
18 15 14 12 11 10 9 7 6 6 6 6 6 7 8 9 9 9 10 10 10 10 10 11 11 11 12 12 12 13 12 12 13 13 14 15 16 18 19 20 20 19 18 18 17 15 13 10 9
17 15 13 12 11 9 8 6 5 5 5 5 6 7 8 8 9 9 9 10 10 11 11 11 11 12 12 12 12 13 13 12 13 13 14 15 16 17 19 19 19 19 19 18 17 15 12 10 8
17 15 14 13 11 8 6 5 4 4 4 4 6 7 8 8 9 9 9 10 10 10 11 11 11 12 12 12 13 13 13 13 13 14 14 15 16 17 19 19 20 19 19 18 17 14 12 9 7
16 15 14 12 10 8 7 6 4 3 3 5 6 8 8 8 9 9 9 9 10 10 11 11 11 12 12 12 13 13 13 13 13 14 14 15 16 17 18 19 19 19 19 18 17 15 12 10 7
15 14 12 11 10 8 7 5 4 3 4 5 6 7 7 8 8 9 9 10 10 11 11 11 12 12 12 12 13 13 13 13 13 14 15 15 15 16 17 18 19 19 19 18 16 15 13 10 8
14 12 12 11 9 8 7 6 4 3 3 4 5 6 7 8 8 8 8 9 10 10 11 11 12 12 12 13 13 14 14 14 14 14 15 15 15 16 17 18 19 19 18 17 16 15 13 11 8
14 13 12 10 9 8 7 5 4 3 3 4 5 6 7 8 8 9 9 9 9 10 10 11 12 12 12 13 13 14 14 14 14 15 15 15 16 16 17 17 18 18 17 17 16 15 13 11 9
14 13 13 11 10 8 7 6 4 3 3 4 6 6 7 8 8 9 10 10 10 10 11 11 12 12 13 13 14 14 15 15 15 15 15 16 16 16 16 17 18 17 16 16 16 15 13 11 10
13 12 11 10 9 8 7 5 4 4 4 5 5 6 7 7 8 9 10 10 10 10 11 11 12 13 13 14 14 15 15 16 16 16 17 17 16 16 16 17 17 17 16 16 15 14 13 12 10
12 11 10 9 8 8 6 5 5 4 4 5 5 6 7 7 8 9 9 9 10 10 11 12 13 13 14 14 15 15 16 16 17 18 18 18 17 17 17 17 17 17 16 16 15 14 13 12 11
11 10 9 8 8 7 7 6 5 4 4 4 5 6 6 7 8 9 9 10 10 11 12 13 14 14 14 15 16 16 16 17 18 18 19 19 18 18 18 17 17 17 16 16 15 14 14 12 11
10 9 8 8 7 7 6 5 4 4 4 4 5 6 7 8 8 10 11 11 11 12 13 13 14 15 15 16 16 17 17 18 19 19 20 20 20 19 19 19 18 17 17 16 16 15 14 13 11

GEFSSGP_500_meanwind_120.txt.gz
Wind_Speed
6 5 4 4 4 5 5 5 6 6 6 6 6 5 5 4 4 4 4 3 3 4 5 6 7 7 7 7 7 8 8 9 9 10 10 10 11 11 11 11 11 11 11 11 11 12 12 12 12
7 6 6 6 5 5 5 5 5 5 6 6 5 5 4 4 3 4 4 4 4 5 5 6 7 7 8 8 7 7 8 9 10 10 11 11 11 12 12 11 12 12 11 11 11 12 12 12 12
9 7 7 6 6 5 5 5 5 6 5 5 4 4 3 3 3 4 4 5 5 5 6 7 8 7 7 7 7 8 9 9 10 11 11 11 12 12 12 12 12 12 12 12 12 12 12 13 13
11 10 8 7 7 6 6 5 5 5 5 3 3 3 3 3 3 4 4 5 5 6 7 8 7 7 7 7 7 8 9 10 11 11 12 12 12 12 12 12 12 12 13 13 13 13 13 13 13
13 12 10 9 8 7 7 6 5 5 4 3 3 2 2 3 4 4 5 5 6 7 8 8 7 7 7 8 8 9 10 10 11 12 13 13 13 13 13 13 13 14 14 14 14 13 13 13 14
13 12 11 10 9 8 8 7 6 5 4 4 3 2 2 4 4 5 6 7 7 7 7 7 8 7 7 8 8 9 10 11 12 13 13 13 13 13 14 14 15 15 15 15 15 15 14 14 14
14 13 13 11 10 8 7 6 6 5 4 3 3 2 3 4 4 5 6 7 8 8 7 7 7 7 7 8 8 9 10 11 13 14 14 14 14 14 15 15 16 16 16 16 16 15 15 15 14
14 15 14 11 11 9 8 6 5 5 5 4 4 3 4 4 4 6 7 8 8 8 8 7 7 7 7 8 9 10 11 12 13 14 14 14 14 15 16 16 16 16 16 16 16 15 15 15 15
15 15 14 13 11 10 8 7 5 5 5 4 4 4 5 5 6 7 7 8 8 8 8 8 8 7 7 8 10 11 12 13 13 14 14 15 15 16 16 17 17 17 16 16 15 15 15 15 15
17 15 13 13 11 10 8 6 6 5 5 4 4 5 6 6 7 7 8 8 8 8 8 8 8 8 8 9 10 11 12 13 13 14 14 15 16 16 17 17 17 17 17 17 16 16 16 15 15
18 15 13 14 12 9 8 7 6 5 5 5 5 6 6 6 6 7 8 8 7 8 8 8 8 8 8 9 11 11 12 13 14 14 15 16 16 17 17 17 17 18 18 17 17 17 16 16 15
19 16 14 14 12 10 9 8 7 7 6 6 6 5 6 6 7 8 8 8 8 8 9 9 8 8 9 10 11 12 12 13 14 15 15 16 17 17 17 18 18 18 18 18 18 18 17 16 15
19 16 14 13 12 11 9 9 8 7 7 6 6 5 5 6 8 8 8 8 8 8 8 8 8 8 9 11 12 12 13 13 14 14 15 16 16 17 18 18 19 19 19 19 19 18 17 16 14
18 17 15 14 12 11 10 9 8 7 6 6 6 6 6 7 8 8 8 8 8 8 8 8 8 9 10 11 12 13 13 13 14 14 15 16 16 17 18 19 19 20 20 20 19 18 17 16 14
18 16 15 14 12 10 10 9 8 6 6 5 5 6 6 7 7 7 8 8 8 8 8 8 8 9 10 11 12 13 13 14 14 15 15 16 17 18 19 19 20 20 20 20 19 18 17 16 14
17 17 16 14 12 11 9 8 7 6 4 4 4 4 5 6 7 7 7 8 8 9 9 9 9 10 11 12 12 12 13 14 15 15 16 16 17 18 19 20 21 21 21 20 19 18 17 16 13
19 17 16 15 13 11 10 8 7 5 4 3 4 4 5 6 6 7 7 8 9 9 9 9 9 10 10 11 12 13 13 14 15 15 16 17 17 18 19 20 21 22 21 20 19 18 17 15 13
19 16 14 13 12 11 10 8 6 5 4 3 3 4 5 6 6 7 7 8 8 9 9 9 9 10 11 11 12 13 14 14 15 16 16 17 17 18 19 20 21 22 21 21 20 19 17 15 13
19 16 13 10 10 10 9 7 6 5 4 3 3 4 5 6 7 7 7 8 8 8 8 9 10 10 11 12 12 13 14 14 15 15 16 17 17 18 19 20 21 22 21 21 20 20 18 15 13
16 15 13 11 9 9 8 7 5 4 3 3 3 4 5 5 6 6 7 7 7 8 8 9 10 10 11 11 12 13 14 14 15 15 16 17 17 18 19 20 21 21 22 21 21 20 18 15 13
18 16 13 11 9 9 8 6 5 3 2 3 3 4 4 5 6 6 6 6 7 8 8 9 10 10 11 11 12 12 13 14 15 15 16 17 18 18 19 19 20 21 21 21 21 20 18 15 13
17 16 14 12 11 9 7 5 4 3 3 3 3 4 5 5 5 5 6 6 7 8 9 9 10 10 11 11 12 12 13 14 14 15 16 16 17 18 18 19 20 20 21 20 20 19 18 16 14
17 15 14 13 12 10 7 5 4 3 4 3 4 5 5 5 5 6 6 6 7 8 8 9 10 10 11 11 12 12 13 13 14 15 15 16 17 18 18 19 19 20 20 20 19 19 18 16 14
17 15 14 13 12 10 8 7 6 5 5 5 5 6 6 6 6 6 6 6 6 7 8 9 10 10 11 11 12 12 13 14 15 15 15 16 17 17 18 19 19 19 20 19 19 18 17 16 15
17 17 15 14 14 11 9 9 9 7 6 6 6 6 5 5 5 5 5 5 6 6 7 8 9 10 11 12 12 13 14 14 15 15 16 16 17 17 17 18 19 19 20 19 19 18 17 16 15
17 17 15 13 12 10 9 11 9 8 7 6 6 5 5 5 5 5 4 5 5 6 7 8 9 10 11 12 13 14 14 14 15 16 16 17 17 17 18 18 19 20 20 19 19 18 17 16 14
18 16 15 15 13 11 11 11 9 9 8 7 6 5 5 5 4 4 4 4 5 6 7 8 9 10 11 12 13 14 14 15 15 16 17 17 18 18 18 18 19 19 20 20 20 19 18 16 14
17 16 14 12 13 12 10 9 9 8 8 7 6 5 5 4 4 4 4 4 5 6 7 8 9 10 11 12 13 14 14 15 16 16 17 18 18 18 19 19 19 19 20 20 20 20 19 17 15
15 14 13 12 11 11 10 10 8 8 8 7 6 5 4 4 4 4 4 5 6 7 7 8 9 11 12 13 13 14 15 16 17 17 18 19 19 20 20 20 20 20 20 20 21 20 20 19 17
16 17 16 13 12 11 10 11 10 9 8 8 7 6 5 4 4 5 5 6 7 8 8 9 10 11 12 13 14 15 16 17 17 18 18 19 20 21 21 21 21 21 21 21 21 21 21 20 18

GEFSSGP_500_meanwind_126.txt.gz
Wind_Speed
9 8 8 7 7 7 7 6 7 6 6 4 4 4 3 2 1 0 2 2 2 2 3 4 6 7 6 6 6 6 6 7 8 8 9 9 9 10 10 10 10 10 10 10 11 11 11 11 11
10 10 9 9 8 6 7 7 6 6 6 6 4 3 3 2 2 0 2 3 3 3 4 5 6 6 6 7 6 6 7 7 8 8 9 10 10 10 10 10 10 10 10 10 11 11 11 12 11
11 11 10 10 9 8 7 8 6 6 6 6 5 4 3 2 2 0 1 2 3 3 4 5 6 6 6 6 6 6 7 7 8 8 10 10 10 11 11 10 11 11 11 11 11 11 11 11 11
12 12 11 10 11 9 8 8 8 6 5 5 4 4 3 2 1 0 1 2 3 3 5 5 6 5 5 5 6 6 7 7 8 9 10 10 10 10 10 11 11 11 11 12 12 12 12 12 11
14 13 12 11 11 10 9 9 7 7 6 5 5 4 3 2 1 0 1 2 3 4 5 5 5 5 5 5 5 7 7 8 9 10 10 10 10 10 11 11 12 12 12 13 12 12 12 12 11
15 15 14 12 11 10 9 10 9 8 6 6 5 4 3 2 1 1 2 3 4 5 5 5 5 4 5 5 6 7 8 9 9 10 10 10 10 11 11 12 12 13 13 13 12 12 12 12 12
16 16 15 13 12 11 10 10 10 8 7 5 5 4 3 2 1 0 2 3 4 4 4 4 5 4 4 5 7 8 8 9 10 10 10 10 11 11 12 12 13 13 13 13 13 13 13 13 12
17 16 16 13 12 11 11 10 10 8 7 6 5 4 3 2 1 1 2 3 4 4 3 4 4 4 4 6 8 9 9 9 10 10 10 11 11 12 12 13 13 13 14 13 13 13 13 13 13
17 16 16 14 13 11 11 10 8 8 7 5 4 4 3 2 2 2 2 3 4 4 4 4 4 4 5 6 7 8 9 9 10 10 10 11 11 12 13 13 14 14 14 14 14 13 13 13 13
18 16 15 15 13 11 11 9 8 7 7 5 4 3 2 1 2 3 3 3 3 3 4 4 4 4 5 7 7 8 9 9 10 10 10 11 11 12 13 14 15 15 14 14 14 14 14 13 13
18 16 16 14 12 11 10 9 8 6 6 5 4 2 2 1 2 2 2 3 3 3 4 4 4 4 5 6 7 8 9 9 9 9 10 11 12 13 14 14 15 15 15 15 15 15 14 13 13
20 16 14 14 12 11 11 9 7 6 5 4 3 2 1 1 1 2 2 3 2 3 3 3 4 5 5 6 6 7 8 9 9 10 11 12 12 13 14 15 15 16 16 16 16 15 14 13 12
20 18 14 14 13 11 10 9 7 7 5 4 3 2 1 1 2 2 2 3 3 3 4 4 4 5 5 6 6 7 8 9 9 10 11 12 13 13 14 15 16 17 17 17 16 15 14 12 11
20 17 16 15 15 13 11 9 9 7 6 5 3 2 1 2 2 1 2 2 3 3 4 4 4 5 6 6 6 7 8 9 9 10 11 12 13 13 14 15 17 17 18 17 16 15 14 12 11
20 18 16 16 14 13 12 10 8 7 6 5 3 2 2 2 2 1 1 2 3 3 3 4 5 6 6 6 6 7 8 9 9 10 11 12 12 13 14 15 17 17 18 17 17 15 14 12 11
21 19 18 17 15 13 11 9 8 7 5 5 4 2 2 2 1 1 2 3 3 4 4 5 6 6 6 6 7 8 8 9 10 10 10 11 12 13 15 16 16 18 18 18 17 16 15 13 11
23 21 20 17 16 14 12 10 8 7 6 4 4 3 2 1 1 1 2 2 3 3 4 5 6 6 6 6 7 8 9 9 10 10 11 11 12 13 15 16 17 17 17 18 17 16 15 13 11
22 21 20 18 17 14 12 11 9 8 6 5 3 3 2 2 2 2 2 1 2 2 3 4 5 6 6 6 7 8 9 9 10 11 11 12 12 13 15 16 16 17 18 18 17 16 15 13 11
22 22 20 19 18 15 13 11 10 8 7 5 4 3 2 2 2 2 1 1 1 2 3 4 5 6 6 6 7 7 9 9 10 11 11 12 12 13 14 16 16 17 17 18 17 16 14 13 11
23 22 21 19 19 16 13 11 11 9 8 6 5 3 3 2 2 1 1 1 1 2 2 3 4 5 5 6 6 7 8 9 10 11 11 12 13 13 14 15 16 16 17 17 16 15 14 13 12
23 22 20 19 18 15 13 12 12 11 9 7 5 4 3 3 2 1 1 0 0 1 2 3 4 5 5 6 6 7 8 9 10 11 12 12 13 13 14 15 16 16 17 17 16 15 14 13 12
23 21 20 19 17 16 14 13 14 11 8 6 5 4 3 3 2 2 1 0 0 1 2 2 3 4 5 5 6 7 8 9 9 10 11 12 13 13 14 15 16 16 17 17 16 15 14 13 12
22 22 20 18 16 15 15 14 12 10 7 5 3 3 3 2 2 1 1 1 0 1 1 2 3 4 5 5 6 7 8 8 9 10 11 12 13 13 14 14 15 16 16 16 16 16 15 14 12
23 22 21 19 18 16 15 13 10 8 6 4 3 2 2 1 1 1 1 1 1 0 1 2 4 4 4 5 6 6 7 8 9 10 11 12 13 13 13 14 15 15 16 16 15 16 15 14 13
23 22 22 19 18 16 14 12 9 8 6 4 3 2 1 1 1 1 2 2 1 1 1 2 3 4 5 5 6 7 8 8 9 10 11 12 13 13 13 14 14 15 15 15 15 15 15 14 14
22 21 20 18 18 17 15 13 10 8 6 5 4 2 2 2 2 2 2 2 2 2 2 2 3 4 5 6 7 7 8 9 10 10 11 12 13 14 14 14 14 15 15 15 15 15 15 15 14
21 22 20 19 18 16 15 13 11 9 7 6 4 3 3 3 2 2 3 3 2 2 1 2 3 4 4 5 6 8 9 9 10 10 11 12 14 14 14 14 15 15 15 16 16 16 16 15 15
20 19 19 18 18 16 14 13 9 9 8 6 4 3 3 3 3 3 3 2 2 1 0 1 2 3 4 5 6 7 9 10 10 11 12 13 14 14 14 15 15 15 16 16 16 16 16 16 16
18 18 18 17 15 14 13 11 9 8 7 6 5 4 4 4 4 3 3 2 2 2 2 2 3 4 5 5 6 8 9 10 11 12 13 14 15 16 15 15 15 16 16 16 17 17 17 17 17
17 16 16 16 16 14 13 11 10 9 7 7 6 5 5 4 4 4 3 3 3 3 3 4 4 5 6 7 8 9 10 11 12 13 14 15 16 17 17 17 17 17 17 17 18 18 18 18 18

GEFSSGP_500_meanwind_132.txt.gz
Wind_Speed
9 8 8 8 8 8 7 7 8 7 6 5 4 4 4 2 1 1 2 3 3 4 5 5 5 6 6 7 8 8 8 8 9 9 10 10 11 11 11 11 11 11 11 11 10 10 10 10 9
10 10 10 10 9 8 7 7 7 6 6 5 4 4 4 2 1 1 2 2 3 4 4 5 5 6 7 7 8 8 8 9 9 10 10 11 11 11 11 11 11 11 11 11 11 11 10 10 10
12 12 12 11 9 8 7 6 7 6 6 5 4 4 4 2 1 1 1 2 3 4 4 5 5 6 7 7 7 8 9 10 10 11 11 11 11 11 11 12 12 12 12 12 11 11 11 10 10
13 13 13 12 10 9 8 8 8 7 6 5 5 4 3 2 1 1 1 2 3 4 5 5 5 6 6 7 7 8 9 10 10 11 11 11 11 11 11 12 12 12 12 12 11 11 10 10 10
14 14 13 12 11 10 9 9 8 7 6 5 5 4 3 2 1 1 2 2 3 5 5 5 5 5 6 6 7 9 9 10 10 10 11 11 11 11 11 12 12 12 12 12 11 11 10 10 10
15 15 14 13 12 11 10 9 7 8 7 6 5 4 3 2 1 1 2 3 4 5 5 5 5 5 6 7 8 9 10 11 10 11 11 11 11 11 12 12 12 13 13 12 12 11 11 10 10
16 15 14 14 12 11 11 9 8 7 8 6 5 4 3 2 1 2 2 3 4 5 5 5 5 5 6 8 9 10 11 11 10 10 11 11 11 11 12 12 13 13 13 13 12 12 11 11 10
17 16 15 14 13 12 11 10 9 8 8 6 5 4 3 2 2 3 3 3 4 5 4 5 5 6 7 8 9 10 11 11 10 11 11 11 11 12 12 13 13 13 13 13 12 12 12 11 10
17 16 15 14 13 13 12 11 9 9 8 7 6 4 3 2 2 3 3 3 4 4 5 5 5 6 7 8 9 10 11 10 11 11 11 11 12 12 12 13 13 13 13 14 13 12 12 11 10
18 17 15 14 13 12 11 11 9 9 8 7 7 6 4 3 2 1 1 2 3 4 5 5 6 7 8 9 9 10 10 11 11 11 12 12 12 13 13 13 13 14 14 14 13 13 12 11 10
18 17 15 13 13 13 12 11 10 9 9 8 7 6 5 3 2 2 2 3 4 4 5 5 6 7 8 9 10 10 11 11 12 12 12 12 12 13 13 14 14 14 15 14 14 13 12 11 10
19 17 14 13 14 13 12 12 11 10 9 8 7 5 4 3 3 2 3 3 4 4 5 5 7 8 8 9 9 10 11 11 12 12 12 12 13 13 14 14 15 15 16 15 15 14 12 10 9
19 18 16 15 15 14 13 12 11 11 9 8 6 5 4 4 3 3 3 3 4 4 5 6 7 7 7 8 8 9 10 11 12 12 12 13 13 13 14 14 15 16 16 15 15 14 12 10 9
20 18 17 17 15 15 13 12 11 10 9 7 6 5 4 3 3 3 3 3 3 4 4 5 6 6 7 7 8 9 10 11 12 12 12 12 13 13 14 15 15 16 16 15 15 14 13 11 9
21 20 18 18 17 16 14 12 11 9 9 8 7 6 5 4 3 3 3 3 3 3 4 5 6 6 6 7 8 9 10 11 11 12 12 12 12 13 14 15 16 16 17 16 15 14 13 12 9
22 21 19 18 17 17 16 13 12 10 9 9 8 7 6 5 4 4 3 3 2 3 4 5 6 6 6 7 8 9 10 10 11 11 12 12 12 13 14 15 17 17 17 16 15 14 13 12 10
23 21 19 19 17 17 16 13 12 10 10 9 9 8 7 6 5 4 3 3 3 3 4 5 5 6 6 6 7 8 9 10 11 11 12 12 13 13 14 16 17 17 17 17 15 14 13 12 10
23 21 20 19 18 17 16 14 13 11 11 11 10 9 7 6 6 5 4 4 3 3 3 4 4 5 5 6 7 8 9 10 10 11 12 13 13 14 15 16 16 17 17 17 16 15 14 13 11
22 21 21 20 18 17 16 15 14 12 12 11 10 9 8 7 6 5 4 4 4 3 3 4 4 4 5 6 6 7 8 9 10 11 13 14 14 14 15 16 17 17 17 18 17 16 15 14 12
23 22 21 21 19 18 16 15 14 13 11 11 9 8 8 7 6 5 4 4 3 3 3 3 3 3 4 5 6 7 8 9 10 11 12 13 14 15 15 16 17 17 18 18 18 17 16 15 13
22 22 22 21 20 19 17 17 15 13 12 10 9 8 8 7 5 5 4 4 3 2 2 2 2 2 3 4 5 6 8 9 10 11 12 13 14 15 15 16 16 17 18 18 18 17 17 16 14
22 21 21 21 20 18 17 17 16 14 12 11 9 8 7 7 6 5 5 4 3 2 2 1 1 2 3 4 5 6 7 8 10 11 11 13 13 14 15 15 16 17 18 18 18 17 17 17 15
22 21 22 21 19 19 18 17 16 14 13 11 10 8 7 7 7 6 5 5 3 2 1 0 1 2 3 4 5 6 7 8 9 10 11 12 13 14 15 15 16 16 17 17 18 18 17 17 16
23 24 22 22 20 19 18 17 16 14 12 11 10 9 9 8 7 7 6 5 4 2 2 1 1 2 3 4 5 5 7 8 9 10 11 12 13 13 14 15 16 16 16 17 17 18 17 17 16
23 24 23 22 21 19 18 17 15 14 13 12 11 10 9 8 7 7 7 6 4 3 2 1 0 1 3 4 4 5 6 7 8 10 10 12 13 13 14 15 15 16 17 17 17 17 16 16 16
21 23 22 21 19 18 17 17 15 13 13 12 11 10 9 8 7 7 7 6 5 4 3 2 1 1 2 3 4 5 6 7 8 9 10 11 12 13 14 15 16 16 17 17 17 17 16 16 16
20 21 21 19 18 18 17 16 14 14 13 12 11 11 9 8 8 8 7 6 6 5 4 3 1 0 1 2 3 5 6 7 7 9 10 11 12 13 14 15 16 17 17 17 16 16 16 16 16
20 20 20 19 17 16 15 15 13 13 13 12 11 10 9 9 8 7 7 7 6 5 4 3 2 1 2 2 3 5 5 7 7 9 10 11 12 14 15 15 16 17 17 17 16 16 16 17 17
19 20 19 18 17 14 13 12 12 13 13 12 11 11 10 9 8 8 8 7 7 6 5 4 3 3 3 3 4 5 6 7 8 9 10 11 13 14 15 16 16 17 17 17 17 16 16 16 17
18 19 18 17 15 14 13 13 13 13 12 12 12 11 10 10 9 9 8 8 7 7 6 6 5 4 4 5 5 6 7 8 10 10 11 12 14 15 16 17 17 17 17 17 17 16 16 17 17

GEFSSGP_500_meanwind_138.txt.gz
Wind_Speed
10 8 7 6 5 5 6 5 6 6 6 5 5 4 4 4 3 2 1 1 1 2 3 4 5 5 6 7 8 8 8 9 9 9 9 9 9 8 8 8 8 7 8 7 7 6 6 5 5
11 9 8 7 6 6 6 6 7 7 6 5 5 4 4 4 3 3 2 1 1 2 3 4 4 5 6 7 7 8 9 10 10 9 10 10 9 9 9 8 8 8 8 8 7 6 6 5 5
12 11 9 8 8 6 6 7 7 7 6 5 5 5 5 4 4 3 2 1 2 3 4 4 5 6 6 7 7 9 10 10 10 10 10 10 10 10 9 9 9 9 8 8 7 6 6 6 6
12 11 10 9 9 8 6 7 7 7 7 5 5 5 4 4 4 3 2 1 2 3 4 4 5 6 6 7 8 9 10 10 10 10 11 10 10 10 10 10 10 10 9 9 8 7 7 7 6
13 12 11 11 10 9 8 7 7 7 6 5 6 5 4 4 4 3 2 0 2 3 4 4 5 6 7 8 9 10 10 10 11 10 11 11 10 10 10 11 11 11 10 10 9 8 7 7 7
13 12 12 12 12 11 10 8 8 7 7 6 6 5 4 4 3 3 1 1 2 3 4 4 5 6 7 8 9 10 10 11 11 11 11 11 11 11 11 11 11 11 11 10 10 9 8 7 7
15 14 13 12 12 10 10 9 9 9 8 8 7 6 4 3 3 2 0 1 2 3 4 5 5 6 7 8 9 10 11 11 11 11 11 12 12 12 12 12 12 12 11 11 10 9 8 8 7
16 14 14 13 12 12 10 10 10 10 10 9 8 6 4 3 3 2 0 1 2 3 4 5 5 6 7 8 9 10 11 11 11 12 12 12 12 12 12 12 12 12 12 11 10 9 8 7 7
17 16 14 14 13 13 11 10 10 10 10 9 8 6 5 4 3 1 0 1 2 3 4 4 5 6 7 8 9 10 11 11 11 11 11 12 12 12 12 12 12 12 12 11 10 9 8 7 7
18 16 15 14 13 13 12 11 11 11 11 10 8 7 6 5 4 2 1 1 2 3 4 4 5 6 7 8 9 10 11 11 11 11 12 12 12 12 13 13 13 13 12 12 10 9 8 6 6
18 17 15 14 13 12 13 12 12 11 11 10 8 7 6 5 4 3 1 1 2 3 4 5 6 6 7 8 9 10 11 12 11 12 12 12 13 13 13 13 13 13 13 13 11 9 8 6 5
18 17 17 15 13 12 13 13 12 12 11 10 9 8 7 5 4 3 1 1 2 3 3 4 5 6 7 8 9 10 11 12 12 12 12 12 13 13 14 14 14 14 14 13 11 10 8 6 4
19 17 17 16 14 14 14 14 13 12 12 11 10 8 7 5 4 3 1 0 1 2 3 4 5 6 6 8 9 10 11 11 12 12 12 12 13 14 14 14 14 15 14 13 12 10 8 6 5
20 18 18 17 16 14 15 14 13 13 13 11 10 8 6 5 4 3 1 0 0 1 2 3 4 5 6 7 8 10 10 11 12 12 12 13 13 14 15 14 15 15 14 14 13 11 9 7 6
20 19 19 18 16 15 15 15 14 13 12 10 10 8 6 5 4 3 2 1 1 0 2 3 4 5 5 7 8 9 10 11 11 12 12 13 13 14 15 15 15 15 15 14 13 12 10 8 6
20 20 19 18 18 17 16 16 15 14 12 10 9 8 6 5 5 4 2 2 1 0 2 3 4 4 5 6 7 8 9 10 11 12 12 13 13 14 15 15 15 16 16 15 14 13 12 9 7
23 21 20 19 19 18 17 17 16 14 12 11 9 8 6 6 5 4 3 2 1 0 1 3 3 4 5 6 7 8 9 10 10 11 12 13 13 14 15 15 15 16 16 16 15 15 13 11 9
22 21 21 21 20 19 18 17 15 14 12 10 9 8 7 6 5 4 4 3 2 1 1 2 3 3 4 5 6 7 8 9 10 11 12 12 13 14 15 16 15 16 17 17 16 16 14 13 11
23 21 21 21 21 20 19 17 15 14 12 11 9 8 8 6 6 5 4 3 2 1 0 1 2 3 3 4 5 6 7 8 9 10 11 12 13 14 15 16 16 17 17 18 17 17 15 14 13
23 22 21 21 20 20 18 17 16 14 13 11 10 9 8 8 7 6 5 4 3 2 0 1 1 2 3 4 5 6 7 7 8 9 10 12 13 13 14 15 16 17 17 18 18 17 16 14 13
23 22 20 20 20 20 19 18 17 15 13 11 11 11 9 9 8 7 6 5 4 3 2 1 1 2 2 3 4 5 6 7 7 8 9 11 12 13 13 14 15 16 17 18 18 17 17 16 14
21 20 19 19 19 20 20 18 17 15 13 12 11 11 10 9 9 8 7 7 6 4 3 2 2 2 2 2 3 4 5 6 7 8 9 10 11 12 13 13 14 15 16 17 18 17 17 16 15
21 20 19 20 20 19 19 18 17 16 14 12 11 10 10 9 8 8 9 8 7 5 4 4 3 2 2 3 3 4 5 5 6 7 8 9 10 11 12 13 14 15 15 16 17 17 16 16 15
20 20 20 20 20 20 20 19 17 16 15 13 12 11 10 9 9 9 9 9 7 6 5 5 4 3 3 3 2 3 4 5 6 6 7 9 10 11 12 13 13 14 14 15 16 16 16 15 15
20 20 20 21 21 21 19 18 17 16 15 14 13 12 11 10 10 10 9 9 8 7 6 6 5 4 3 3 2 2 3 4 5 6 7 8 9 11 12 12 13 14 14 14 14 14 14 14 14
19 20 21 21 21 19 18 18 17 16 14 14 13 12 11 11 11 10 10 9 9 8 7 7 5 5 4 3 2 1 2 3 4 5 6 7 8 10 11 12 13 14 13 13 13 13 13 13 13
19 20 20 21 19 18 17 17 16 15 14 14 13 12 12 12 12 11 11 10 10 9 8 7 6 5 4 3 2 1 1 2 3 4 5 7 8 9 10 11 12 13 13 13 13 13 13 13 12
18 19 20 20 19 18 17 16 16 15 14 14 14 13 12 13 13 12 12 12 11 10 9 8 7 6 5 4 3 1 1 2 2 3 5 6 7 8 9 10 11 13 13 13 13 13 13 12 12
17 18 19 19 18 18 16 16 15 15 14 14 14 14 13 13 14 13 13 13 12 11 10 9 8 7 6 5 4 3 2 2 3 4 5 6 7 8 8 9 11 12 13 13 13 13 13 13 12
17 18 19 19 17 17 16 16 15 15 15 15 15 14 14 14 14 14 14 13 13 12 11 10 9 8 8 7 6 5 4 4 4 5 6 7 7 8 9 10 11 11 12 12 13 13 14 14 13

GEFSSGP_500_meanwind_144.txt.gz
Wind_Speed
8 6 5 5 5 5 5 5 4 4 4 3 4 3 2 3 3 2 2 2 3 4 5 6 6 7 7 8 8 9 9 10 10 9 9 9 8 8 7 7 7 8 7 7 6 6 6 6 6
9 8 7 6 6 6 6 6 6 4 4 4 4 3 3 3 3 2 2 2 3 4 5 6 6 7 7 8 9 9 10 10 10 9 9 9 8 8 8 8 8 8 7 7 7 6 6 6 6
11 10 8 8 8 7 7 7 7 6 5 5 4 4 4 3 3 2 2 2 3 4 5 6 6 7 8 8 9 9 10 10 10 10 9 9 9 9 9 8 8 8 8 8 7 7 7 6 6
12 11 10 9 9 7 7 7 6 7 7 6 5 4 4 3 3 3 2 2 3 4 5 5 6 7 8 9 9 9 10 10 10 10 10 10 10 10 10 10 9 9 9 9 8 8 7 7 7
13 12 11 11 10 9 8 7 8 8 8 7 5 5 4 3 3 3 2 3 3 4 5 5 6 7 8 9 9 10 10 10 10 10 10 10 10 11 10 10 10 10 9 9 8 8 7 7 7
14 13 13 12 11 10 9 8 8 8 8 7 6 5 4 3 2 2 2 2 3 3 4 5 6 7 8 8 9 9 10 10 10 11 11 11 11 11 11 11 11 10 10 9 8 8 7 7 7
15 14 14 13 12 11 10 9 9 8 8 7 6 5 4 3 2 2 1 1 2 3 4 5 6 6 7 8 9 10 10 11 11 11 11 11 12 12 12 12 11 11 10 9 8 7 7 7 7
16 15 14 13 12 12 10 9 10 8 8 7 6 5 4 4 3 2 1 1 2 3 3 4 5 6 7 8 9 10 11 11 11 11 11 12 12 12 12 12 12 12 10 9 8 7 6 6 6
18 17 16 14 13 12 11 9 9 9 9 8 7 6 5 4 3 2 0 1 1 2 3 4 4 6 7 8 9 10 11 11 11 11 12 12 12 12 13 13 13 12 11 10 8 7 6 5 5
19 18 16 15 14 12 11 9 9 9 9 9 8 7 6 5 4 2 1 0 1 2 3 4 5 6 7 8 9 10 10 10 11 12 12 12 13 13 14 13 13 13 12 10 9 7 6 5 4
19 18 17 16 14 12 11 10 10 9 9 9 9 7 6 5 4 3 2 1 1 1 2 3 4 6 7 8 9 10 10 11 11 12 13 13 14 14 14 14 14 13 12 11 9 7 5 4 3
18 18 16 14 13 12 11 10 9 9 9 9 10 8 7 6 5 3 2 1 1 1 2 3 4 6 7 8 9 10 10 11 12 12 13 13 14 14 14 14 14 14 13 11 10 8 6 4 2
19 18 17 15 13 12 12 11 10 9 9 9 9 8 7 6 5 3 2 1 1 1 2 3 4 5 6 7 8 9 10 11 11 12 13 13 14 13 14 15 15 15 14 13 11 9 7 5 3
18 18 17 16 14 13 12 11 11 11 10 10 9 8 8 6 5 3 2 1 1 1 2 2 3 4 5 7 8 9 10 11 11 12 13 13 14 14 14 15 15 15 15 15 13 10 9 6 4
18 18 17 17 16 15 13 12 12 11 10 10 9 8 8 6 5 4 3 2 2 1 2 2 2 3 5 6 8 9 10 10 11 12 13 13 14 14 14 15 15 16 16 16 15 13 11 8 6
18 19 18 17 17 16 14 13 12 11 10 10 9 9 8 7 6 5 4 3 2 2 1 2 2 2 4 6 7 8 9 10 11 12 13 14 14 14 15 15 16 16 17 16 15 14 13 10 8
19 19 18 17 17 17 15 14 13 12 10 10 10 9 8 8 7 6 5 4 3 2 1 1 1 2 4 5 6 7 8 9 10 11 12 13 14 14 15 15 16 16 17 17 16 14 13 12 10
19 18 17 17 16 17 16 15 14 13 12 11 10 9 8 7 7 6 5 5 4 3 1 1 1 2 3 5 6 7 7 8 9 11 12 13 14 14 14 15 16 16 17 17 16 15 14 13 11
18 17 17 18 17 16 16 15 13 12 12 11 10 10 8 7 7 7 6 5 4 3 2 1 1 1 3 4 5 6 7 8 9 10 12 13 13 14 15 15 16 16 17 17 17 16 15 13 12
19 18 18 18 17 17 15 15 14 12 12 11 10 9 8 8 8 7 6 6 5 4 3 2 1 1 2 3 4 5 6 7 8 10 11 12 12 14 14 15 16 16 17 17 17 16 15 14 13
19 19 18 19 18 16 15 14 14 13 12 11 10 9 9 8 8 7 6 6 6 5 4 3 2 1 1 2 4 4 5 7 8 9 10 11 11 13 14 15 15 16 16 16 16 16 15 14 13
19 20 18 18 18 17 16 14 15 13 12 13 11 10 10 9 8 8 7 7 7 6 5 3 2 2 1 2 3 4 5 6 7 8 9 10 11 12 13 14 14 15 16 16 16 16 15 14 12
19 18 18 17 17 17 16 15 15 14 13 13 12 11 10 9 9 9 8 8 7 7 6 5 3 3 2 2 2 2 3 5 6 7 8 9 10 11 12 13 14 14 15 16 16 16 15 14 13
17 17 18 17 16 16 16 17 17 15 14 13 12 11 11 10 10 10 9 8 8 8 7 6 5 4 3 2 1 1 2 4 5 6 7 8 9 11 12 13 13 14 14 15 15 16 15 14 14
16 16 17 17 17 17 16 17 17 16 15 13 12 12 12 11 11 10 9 8 8 8 7 6 6 5 4 2 1 0 1 3 4 5 6 7 9 10 11 12 12 13 13 14 14 15 14 14 13
16 16 15 15 16 15 16 17 18 16 15 15 13 12 12 12 11 10 10 9 9 9 8 8 7 6 5 4 3 2 1 2 3 4 5 6 7 9 10 11 11 12 13 13 13 13 13 13 12
16 16 13 13 13 12 14 14 15 16 16 15 14 13 13 13 12 11 11 10 10 10 9 8 8 7 6 5 4 3 2 2 3 4 4 5 6 8 9 10 11 11 12 12 12 12 12 12 12
15 15 15 14 13 13 12 12 12 14 14 14 14 14 14 14 13 12 12 11 11 11 10 10 9 8 7 6 5 4 3 3 3 3 4 5 6 7 8 10 11 11 11 12 12 12 12 11 11
15 15 15 15 14 12 12 13 13 14 14 14 14 14 13 14 14 13 13 13 12 12 11 11 10 9 8 7 6 5 5 4 4 4 4 5 6 7 8 9 10 11 11 12 11 11 11 11 11
15 15 15 16 16 15 13 12 12 12 13 13 14 14 13 13 14 14 14 14 14 13 12 11 11 10 9 9 8 7 6 5 5 5 5 6 6 7 8 9 10 11 12 12 11 11 12 12 12

GEFSSGP_500_meanwind_150.txt.gz
Wind_Speed
6 6 5 5 4 3 3 2 1 0 1 1 0 0 1 2 2 2 3 3 4 5 5 5 4 5 5 5 5 5 6 6 6 6 6 7 7 7 7 7 7 7 7 6 6 7 7 8 8
7 7 6 6 5 4 4 3 2 1 1 0 0 0 1 2 2 2 3 3 4 4 5 5 5 5 5 5 6 6 6 6 7 7 7 7 7 7 8 8 8 7 7 6 6 6 7 7 7
8 8 8 7 7 6 5 4 2 2 2 1 1 0 0 1 1 1 1 2 3 4 4 4 4 5 5 5 6 6 6 6 7 7 7 7 8 8 8 8 8 8 7 7 7 7 7 7 7
9 9 9 9 8 7 6 5 4 3 3 2 1 1 1 1 1 1 1 1 2 3 3 3 4 4 5 6 6 7 7 7 7 8 8 8 8 8 8 8 8 8 7 7 7 8 7 7 8
10 10 10 10 9 9 7 6 5 4 4 3 2 1 1 1 1 1 1 1 2 3 3 3 4 5 5 6 6 7 7 7 8 8 8 8 9 8 8 8 8 8 8 8 8 8 8 8 8
11 11 11 11 10 10 9 7 6 5 4 4 4 3 1 0 0 1 1 1 2 3 3 4 4 5 5 6 7 7 8 8 8 9 9 9 9 9 9 9 9 8 8 8 7 7 7 8 8
13 13 12 12 11 10 9 7 6 5 5 5 5 4 3 2 1 1 2 2 2 2 3 4 4 5 5 6 7 8 8 9 9 9 9 9 10 10 10 10 10 9 8 7 6 6 7 7 7
14 14 14 13 12 10 8 8 7 6 6 6 5 4 4 3 3 2 2 1 1 2 3 3 3 4 5 6 7 8 8 9 9 10 10 11 11 11 11 11 10 9 8 6 5 5 5 6 7
15 13 13 13 13 11 9 8 8 8 7 6 6 5 4 4 4 3 2 1 1 2 2 2 3 4 5 6 7 8 9 9 10 10 11 11 12 12 12 11 11 10 9 7 5 3 4 5 6
16 15 14 13 13 11 10 9 9 9 8 8 7 6 5 4 5 4 3 2 1 1 1 2 3 4 5 6 7 8 9 9 10 11 11 12 12 12 12 12 12 11 10 8 6 3 2 3 4
16 16 15 15 14 12 10 10 9 9 9 9 7 7 5 5 5 4 4 3 2 1 0 1 2 3 5 6 7 8 9 10 10 11 12 12 12 12 12 12 12 12 11 9 7 4 2 1 3
16 16 15 14 13 12 10 10 10 9 9 9 8 7 6 6 6 6 5 4 3 2 1 1 2 3 5 6 7 8 9 10 10 11 12 12 13 13 13 14 13 12 11 10 8 5 3 1 2
15 15 15 14 12 12 11 10 10 10 9 10 9 9 8 6 7 7 6 5 3 2 2 2 3 4 5 6 7 8 9 10 10 11 12 13 13 13 14 14 14 14 12 11 9 7 4 3 2
15 15 14 13 12 12 11 11 10 10 10 10 9 9 8 8 7 7 7 5 3 2 2 2 3 4 5 6 7 8 9 10 11 12 13 13 14 14 15 15 15 14 13 12 10 8 6 5 3
16 15 15 14 12 11 11 11 10 11 11 10 9 9 9 9 8 7 6 5 3 2 2 2 2 3 4 5 6 7 8 10 11 12 13 13 14 15 15 15 16 15 14 13 11 10 8 6 5
17 16 15 14 14 12 12 11 10 11 11 10 9 9 9 9 8 7 6 4 3 3 3 2 2 3 4 4 5 7 8 10 11 12 12 13 14 15 15 16 16 16 16 15 13 11 10 8 7
16 16 15 15 14 13 12 12 12 12 12 11 9 9 9 9 8 7 6 5 4 3 3 2 2 3 3 4 5 6 8 9 10 12 12 13 14 15 16 16 16 16 16 15 14 13 12 11 9
16 16 16 15 14 13 13 13 12 12 12 11 10 9 9 9 8 8 7 6 5 4 3 3 2 3 3 3 4 5 7 8 10 12 13 13 13 14 15 16 16 16 16 15 14 14 13 12 11
17 16 15 15 13 13 13 14 13 12 12 11 10 9 9 9 8 9 7 7 6 5 4 3 2 2 2 3 4 5 6 8 9 11 12 13 13 14 15 15 16 16 16 15 14 14 14 13 12
16 16 15 15 14 14 14 14 14 13 12 11 10 10 10 10 9 9 8 8 7 6 5 3 2 2 2 2 3 4 6 7 8 10 11 12 13 14 14 15 15 15 15 15 14 14 13 13 12
15 15 15 15 14 14 14 14 14 14 12 11 11 11 10 9 10 10 9 9 8 7 6 4 3 3 3 2 3 4 5 6 7 8 9 10 11 13 14 14 15 15 15 15 14 13 13 12 12
16 15 15 15 14 14 15 15 15 15 13 13 12 12 10 10 10 10 10 10 9 8 7 5 4 3 3 3 2 3 3 4 6 7 8 9 10 12 13 14 14 14 15 14 13 13 12 12 11
14 15 15 16 14 14 15 16 15 15 14 13 12 13 11 11 10 10 10 10 9 9 8 7 5 4 4 3 2 2 2 3 4 6 6 8 9 10 11 12 13 13 14 14 13 13 12 11 10
15 14 15 15 15 14 14 15 14 13 12 12 12 12 12 11 10 10 10 10 10 9 9 7 6 5 5 3 2 2 1 2 3 4 5 6 7 8 10 11 12 13 13 13 13 12 12 11 10
15 14 14 15 15 13 13 14 12 12 11 12 13 12 12 11 11 11 11 10 10 9 8 7 7 6 5 4 3 2 1 1 2 3 4 5 6 7 8 9 10 11 12 13 13 12 12 11 10
14 14 14 13 13 13 13 13 12 11 12 12 13 12 12 12 11 12 11 11 11 10 9 8 7 7 6 5 4 3 1 1 1 2 3 4 5 6 7 8 9 9 11 11 12 12 11 10 10
14 14 13 13 12 13 13 12 11 11 12 13 12 12 12 12 11 11 12 12 11 10 9 9 8 8 7 6 5 4 2 1 0 1 2 3 4 5 6 7 8 8 9 10 11 11 10 9 8
14 15 14 12 12 12 12 11 11 11 12 12 13 13 12 13 12 12 13 12 12 11 10 10 10 9 8 7 6 5 4 2 1 1 1 2 2 3 4 5 6 7 8 8 9 9 9 8 8
13 14 13 13 12 12 11 11 10 11 11 12 12 13 13 13 13 13 13 13 13 12 11 10 10 10 9 8 7 6 5 4 3 2 2 2 2 3 3 4 5 6 6 6 7 7 7 7 7
13 13 12 12 11 12 12 11 11 11 11 11 12 13 14 13 14 14 14 13 13 13 12 11 10 10 10 9 8 7 6 6 5 4 4 3 3 3 4 4 5 6 6 6 7 7 7 7 7

GEFSSGP_500_meanwind_156.txt.gz
Wind_Speed
6 5 5 4 4 2 1 0 1 1 2 1 0 1 1 1 2 2 3 3 3 4 5 5 6 7 7 8 8 9 9 9 9 10 10 10 10 10 10 9 8 7 6 6 6 6 5 5 6
7 6 5 5 4 3 2 1 1 1 0 1 0 1 0 0 2 2 2 2 2 3 4 5 6 7 7 8 8 9 9 9 9 10 9 10 10 10 10 9 9 8 7 6 5 5 5 5 6
9 8 7 6 5 4 3 3 2 2 1 0 1 0 0 1 1 1 2 2 3 3 5 5 6 7 7 7 8 8 8 8 9 9 9 10 10 10 10 10 9 8 7 6 5 5 6 6 6
10 9 8 7 6 5 5 4 4 3 2 1 1 1 1 1 0 1 1 1 2 3 4 5 5 6 7 7 8 8 8 8 9 9 10 10 10 10 10 10 10 9 8 7 6 5 6 6 7
11 11 10 9 8 7 6 6 5 5 4 3 2 2 2 1 0 0 1 2 2 3 4 5 6 6 6 7 7 7 8 9 9 9 9 10 10 10 10 11 10 9 8 7 6 5 6 6 7
12 11 11 10 8 8 8 7 7 6 6 4 3 3 2 1 0 0 1 2 2 3 4 5 5 6 6 7 7 8 8 9 9 9 10 10 11 11 11 11 10 9 8 7 6 5 5 5 7
13 12 12 10 10 9 9 8 7 7 7 5 4 4 3 2 1 1 1 1 1 3 4 4 5 6 6 7 7 8 9 9 9 10 10 11 11 11 11 11 10 9 8 6 5 4 4 5 6
13 13 12 11 10 10 9 8 8 8 7 6 6 5 5 3 2 2 1 0 1 3 4 5 5 5 6 7 8 8 9 10 10 11 11 11 11 11 11 11 10 9 8 6 5 4 4 5 5
13 13 13 12 12 11 10 9 8 8 8 7 6 6 5 4 3 2 2 1 1 2 3 3 4 5 6 7 8 8 9 10 11 11 11 11 11 12 11 11 10 9 8 7 5 4 3 4 5
14 13 13 13 12 12 12 11 9 9 8 8 7 6 6 5 4 4 3 2 0 1 2 3 4 5 6 7 8 9 10 11 11 12 12 12 12 12 12 12 11 10 8 7 5 4 2 3 4
14 14 14 14 13 12 12 12 10 9 9 9 8 8 7 6 5 5 4 2 1 1 2 3 3 4 5 6 7 8 10 11 12 13 13 13 13 12 12 12 11 10 9 7 5 3 1 1 3
14 14 13 13 12 11 11 11 11 10 9 9 9 9 8 7 6 5 4 2 2 1 1 2 3 4 5 6 7 8 9 10 12 13 13 14 14 13 13 13 12 11 9 8 6 3 2 1 2
15 14 14 13 12 11 11 11 11 11 10 10 10 10 9 7 6 5 5 3 2 1 1 1 3 3 4 5 7 8 9 11 12 13 14 14 15 14 14 13 13 12 10 9 7 5 3 3 3
15 15 14 13 13 12 12 11 11 11 11 11 11 11 9 7 7 5 5 4 3 2 2 1 2 3 4 5 6 8 9 11 12 12 14 15 15 15 15 14 14 13 11 10 8 7 6 5 4
15 15 15 14 13 13 13 12 12 12 12 12 12 12 10 8 8 7 6 5 4 3 2 2 2 3 3 4 6 7 8 10 11 12 13 14 15 15 15 15 15 14 13 12 10 9 8 7 6
15 15 15 15 14 14 13 12 12 12 12 11 12 12 11 10 9 8 7 6 4 4 3 3 3 2 3 4 5 6 8 9 11 12 13 14 15 15 16 16 15 15 14 13 11 10 10 9 8
15 15 15 15 14 14 14 14 13 12 12 12 12 11 11 10 10 9 8 7 5 5 5 4 3 2 2 3 4 5 7 9 10 11 12 14 15 15 15 16 16 15 14 13 12 11 10 9 9
15 14 14 15 15 15 15 15 14 12 12 12 13 12 11 10 11 10 9 8 7 6 5 4 4 3 2 3 4 5 6 8 9 11 12 13 14 15 15 15 16 16 15 14 13 12 11 11 10
14 14 13 14 14 14 14 15 14 13 12 12 12 12 12 12 12 11 10 8 7 6 5 5 4 3 2 2 3 4 5 7 8 10 11 12 13 14 15 15 15 15 15 14 13 13 12 12 11
14 13 13 14 15 14 15 15 14 14 13 13 12 12 12 13 12 11 10 9 8 7 6 5 5 3 3 2 3 3 4 6 7 9 10 11 12 12 13 14 14 15 14 14 13 13 13 12 11
13 13 13 14 14 15 15 15 14 14 13 13 13 13 13 14 13 11 10 9 9 8 7 6 6 4 3 3 2 2 3 5 6 8 9 10 10 11 12 13 14 14 14 13 12 12 11 11 10
13 13 13 13 14 14 16 16 15 14 13 12 12 13 13 13 13 11 10 9 9 9 8 7 6 5 4 3 2 2 2 3 5 6 7 8 9 10 11 12 12 13 13 12 12 11 11 10 10
12 13 13 13 13 14 15 16 15 14 13 13 13 13 13 13 13 12 11 10 9 9 8 8 7 5 4 3 2 1 1 2 3 4 6 7 8 8 9 10 11 12 12 11 11 11 10 10 9
12 13 12 11 12 13 14 16 15 13 13 13 14 13 12 12 12 12 12 11 10 10 9 9 8 7 5 4 3 2 1 1 2 3 4 5 6 7 7 8 10 10 10 10 10 10 10 9 8
12 12 13 12 12 12 13 13 12 13 13 13 13 13 13 13 13 13 12 12 11 10 10 9 9 8 6 5 4 3 2 1 0 1 3 4 5 5 6 7 8 9 9 9 9 9 10 9 8
12 12 12 13 13 12 12 12 11 12 13 13 13 14 13 13 13 14 14 13 12 11 10 10 9 8 7 6 5 4 3 2 1 0 1 2 3 4 4 5 6 7 8 8 9 9 9 8 8
11 11 12 12 12 12 11 11 11 12 12 13 13 14 13 13 13 14 14 13 13 12 12 11 10 9 8 7 6 4 4 3 2 1 0 1 2 3 3 4 5 6 7 7 7 8 8 8 8
11 11 12 12 12 11 11 10 10 11 12 12 12 13 13 14 14 14 14 14 14 14 13 12 11 10 9 8 7 6 5 4 4 3 2 1 2 2 3 3 4 5 5 6 6 7 7 7 7
11 12 12 12 12 11 11 11 10 11 11 12 13 14 14 14 14 15 15 15 14 14 13 13 12 11 10 9 8 7 6 6 6 5 4 3 3 3 3 4 4 5 5 5 6 6 6 6 6
11 12 12 12 11 11 11 10 10 10 11 12 13 14 15 15 15 15 16 15 15 14 14 13 13 12 11 10 9 8 8 7 7 7 6 5 5 5 5 5 5 5 6 6 6 6 6 6 6

GEFSSGP_500_meanwind_162.txt.gz
Wind_Speed
4 3 3 3 3 3 2 2 2 2 1 1 2 2 2 2 2 2 3 3 3 3 3 4 4 5 6 6 6 6 7 6 6 6 6 6 5 5 4 3 2 2 2 2 3 4 5 7 7
5 4 4 4 4 4 3 3 2 2 1 2 2 2 2 2 2 2 2 2 3 3 3 4 4 5 5 6 6 6 6 6 6 7 6 6 6 5 5 4 3 2 2 2 2 3 5 7 8
6 5 4 4 5 5 4 4 3 3 3 2 2 3 3 2 2 2 2 1 2 3 3 4 4 5 6 6 6 6 6 7 7 7 7 6 6 6 5 4 4 3 2 3 3 4 4 6 8
7 6 6 6 5 6 6 5 4 4 3 3 3 3 3 2 3 2 1 1 2 3 3 4 4 4 6 6 6 5 6 7 7 7 7 7 7 6 6 5 4 3 3 3 3 4 4 6 8
8 7 7 7 6 6 6 6 5 4 4 5 4 4 3 3 3 3 1 2 2 3 3 4 4 5 5 5 5 5 6 7 7 7 7 8 7 7 6 6 5 4 3 3 4 4 5 6 7
9 9 8 8 7 7 7 6 6 5 5 5 4 4 4 4 4 3 2 2 2 2 3 4 4 4 5 5 5 6 6 7 7 8 8 8 8 8 7 7 6 5 4 4 4 5 5 6 7
10 9 9 10 9 8 7 7 7 7 6 6 6 5 5 5 4 4 3 3 3 3 3 3 3 4 4 5 5 6 6 7 8 8 9 9 8 8 8 7 6 5 4 3 3 4 5 6 7
11 10 10 11 10 10 8 8 8 7 7 7 6 6 6 5 5 5 4 3 3 3 2 2 3 3 4 5 5 6 7 7 8 9 9 9 9 9 8 7 6 5 3 3 3 4 5 6 7
12 11 12 11 11 11 10 9 8 7 8 7 7 7 7 7 6 5 4 4 3 2 2 2 2 3 4 5 5 6 7 8 8 9 9 10 9 9 8 7 6 5 3 2 2 3 5 6 7
12 12 13 13 12 11 11 10 9 9 8 8 7 8 8 7 6 5 5 4 3 2 2 2 2 3 4 4 5 6 7 8 8 9 9 10 9 9 8 8 6 5 3 2 1 2 4 6 7
13 13 13 13 12 11 12 11 11 9 9 9 8 9 9 8 7 6 5 4 3 3 2 2 2 2 3 4 5 6 7 8 9 9 9 9 10 10 9 8 7 5 4 2 0 1 4 5 7
14 13 12 12 12 12 12 12 12 11 10 9 10 10 9 8 7 6 6 5 4 3 3 3 2 2 3 3 5 6 7 8 9 9 9 10 10 10 10 9 8 6 5 3 1 1 3 5 7
14 13 12 12 12 13 12 12 13 12 10 10 10 11 11 9 8 8 7 6 5 4 4 3 3 2 2 3 4 5 7 8 9 9 10 10 11 11 11 10 9 8 6 4 3 3 3 5 7
14 14 13 13 13 13 12 12 13 12 11 11 10 11 11 11 10 9 8 7 6 5 5 4 3 2 2 2 3 5 6 8 9 9 10 11 11 12 12 11 10 9 7 6 5 4 4 5 6
13 14 14 13 13 14 14 12 12 12 12 11 11 12 11 12 11 9 8 7 6 5 5 4 3 2 2 2 3 4 6 8 9 9 10 11 12 12 12 11 10 10 9 7 6 6 6 6 6
13 13 14 13 13 13 13 13 13 12 12 12 12 13 12 12 11 10 8 8 6 5 5 5 4 3 3 2 2 3 5 7 8 9 10 11 12 12 12 12 11 10 10 9 8 7 7 6 6
12 13 14 13 13 13 13 13 14 13 13 12 12 13 13 13 12 10 9 9 7 6 6 5 4 4 3 2 1 2 4 6 7 8 9 10 11 12 12 12 11 11 10 10 9 8 8 7 7
12 12 14 14 13 13 13 13 13 14 13 13 13 13 13 13 12 10 10 9 8 7 7 6 5 4 3 3 1 1 3 4 5 7 8 9 10 11 12 12 12 11 11 10 10 9 9 8 8
12 13 13 13 13 13 13 12 12 13 13 13 13 13 13 13 13 12 11 10 9 9 8 8 7 5 4 3 2 1 2 4 5 6 7 9 10 11 11 12 12 11 11 11 10 10 9 9 9
11 12 13 12 12 12 13 12 12 12 13 13 13 13 13 13 12 12 12 11 10 10 10 9 8 6 5 4 3 1 1 3 4 5 7 8 9 10 11 11 11 11 11 11 10 10 10 9 8
10 11 12 12 12 12 12 13 13 12 13 13 13 13 13 13 13 13 13 12 11 10 10 10 8 7 6 5 4 2 1 1 2 4 5 7 8 9 10 10 11 11 11 11 10 10 9 8 7
11 11 12 12 13 12 12 13 14 13 13 13 13 13 13 12 13 13 13 13 12 11 11 10 9 8 7 6 5 3 1 0 2 3 4 6 7 8 8 9 10 10 10 10 9 9 9 7 7
10 11 11 10 11 12 12 13 13 14 14 14 13 13 13 12 11 12 13 13 13 12 11 11 10 9 8 7 5 4 2 1 0 2 3 4 6 7 7 8 8 9 10 10 9 8 8 7 7
9 10 10 10 10 11 12 13 13 13 13 14 14 13 13 12 11 12 12 13 13 13 12 12 11 10 9 8 6 5 3 2 1 0 1 3 4 5 6 6 7 8 8 8 8 8 8 7 6
9 9 10 10 10 11 11 13 12 12 12 13 13 13 12 12 11 11 13 13 13 12 12 12 11 11 10 9 7 5 4 3 2 1 0 1 2 3 4 5 6 6 7 7 7 7 7 7 6
9 10 11 11 10 10 12 12 12 12 12 12 13 13 13 12 12 12 13 13 12 12 12 12 11 11 11 10 8 6 5 4 3 2 1 0 1 2 3 4 4 5 5 6 6 6 6 6 6
11 11 11 11 10 9 11 12 11 11 12 12 12 12 12 12 12 13 13 12 13 12 12 12 12 11 11 10 9 8 6 5 4 3 2 1 0 1 2 3 3 4 4 4 4 4 4 4 4
10 10 10 10 10 9 9 10 11 11 11 11 11 12 13 13 13 12 12 12 13 12 12 12 12 12 11 10 10 9 8 6 5 4 3 3 2 1 1 2 2 3 3 4 4 4 3 3 3
9 9 9 10 10 10 11 11 11 12 12 11 12 13 14 14 14 13 13 12 12 12 13 12 12 12 12 11 10 10 9 8 6 5 4 4 4 3 3 3 3 3 4 4 4 4 4 3 4
9 9 10 10 10 10 11 12 12 13 13 13 13 13 13 14 14 14 14 13 12 13 13 13 13 13 13 12 12 11 10 9 8 7 6 5 5 5 5 5 5 5 5 5 5 5 5 5 5

GEFSSGP_500_meanwind_168.txt.gz
Wind_Speed
2 2 1 1 1 2 3 3 3 3 4 4 3 3 2 2 2 2 2 2 2 2 2 3 3 4 5 5 6 6 6 6 6 6 6 6 5 5 4 3 3 3 3 3 4 4 5 6 7
4 3 3 2 3 3 4 4 4 4 5 4 4 4 3 3 3 2 2 2 2 2 2 2 3 4 5 5 6 6 6 6 6 6 6 6 6 5 5 4 3 4 4 4 4 4 5 6 6
6 5 4 4 5 5 5 5 5 5 5 5 5 4 4 4 3 3 2 2 2 2 2 2 3 4 4 5 6 6 6 6 7 6 6 7 6 6 6 5 4 4 4 4 4 4 5 6 7
7 6 6 6 6 6 6 6 6 6 6 6 6 5 5 5 4 4 3 2 2 2 1 2 3 3 4 5 6 6 6 7 7 7 7 7 7 7 6 6 5 5 4 4 4 5 5 6 6
7 7 7 7 7 7 7 7 7 7 7 6 6 7 6 5 5 5 4 3 2 1 1 2 2 4 4 5 6 6 7 7 8 7 7 7 7 7 6 6 5 5 5 5 5 5 5 6 6
8 8 8 8 8 7 8 8 8 8 7 7 7 7 7 6 5 5 4 2 2 1 1 2 2 4 5 5 6 6 7 7 8 8 8 8 7 7 7 6 6 5 5 5 5 5 5 6 7
8 8 9 9 9 9 9 9 8 8 8 7 7 7 7 7 6 6 4 3 2 1 1 1 2 4 5 5 6 6 7 8 8 9 9 8 8 8 7 7 6 5 4 4 4 4 5 6 7
10 10 10 11 10 10 10 10 9 9 9 9 7 7 7 7 6 6 5 4 2 1 1 1 2 3 4 5 5 6 7 8 9 9 9 9 8 8 8 7 6 5 4 3 3 4 5 6 7
10 11 11 12 11 11 10 11 11 11 11 10 8 7 8 7 7 6 5 5 3 1 1 1 2 3 3 4 5 6 7 8 9 9 9 9 9 9 8 8 7 5 3 3 3 4 4 6 7
12 12 12 12 12 12 12 11 11 11 10 10 9 8 8 8 7 6 6 5 3 2 1 1 2 2 3 4 5 6 7 8 8 9 9 10 9 9 9 9 7 5 4 3 3 4 4 5 6
13 13 12 13 13 12 12 12 12 11 10 10 9 9 8 8 7 7 6 5 4 3 2 1 1 2 3 4 5 6 7 8 8 10 10 10 10 10 10 9 8 6 4 3 3 4 5 5 6
13 14 13 13 14 14 13 13 12 12 10 10 10 9 9 8 8 7 6 6 5 4 2 1 1 2 3 4 5 6 7 8 9 10 10 10 10 10 10 10 9 8 6 4 2 2 4 5 6
13 13 14 14 14 14 15 14 13 12 11 11 10 10 10 10 8 8 6 6 5 4 3 1 0 1 2 3 5 6 7 8 9 10 10 10 10 10 11 11 10 9 6 5 3 1 2 4 5
13 13 15 15 15 14 14 14 13 13 13 11 10 10 10 11 8 7 7 6 6 5 4 2 1 1 2 3 5 6 7 8 9 9 10 10 10 10 11 11 10 9 7 5 4 2 1 3 4
13 14 14 15 15 15 14 14 14 14 13 12 11 12 11 11 9 8 7 6 6 5 4 3 2 1 1 3 4 6 7 8 9 9 10 10 10 10 11 11 11 9 8 6 5 4 2 2 3
12 12 13 14 14 14 14 13 14 14 13 13 12 11 10 10 10 9 8 7 6 6 5 4 2 1 1 2 4 5 6 7 8 9 9 10 10 10 10 11 11 10 9 7 6 5 4 3 3
11 12 12 13 13 13 13 13 13 13 13 12 12 11 10 9 10 9 9 8 8 6 6 4 3 2 1 1 3 4 5 7 7 8 9 10 10 10 10 11 11 10 9 8 7 6 5 5 4
11 12 12 12 12 12 12 12 13 13 13 12 11 11 10 10 10 10 10 10 9 8 6 5 4 3 2 1 2 3 5 6 7 8 8 9 10 10 10 10 11 10 9 9 8 7 6 5 5
12 12 12 12 12 12 12 12 13 13 13 12 11 11 11 11 10 10 10 10 9 8 7 6 5 4 3 2 2 3 4 5 6 7 8 8 9 9 9 10 10 10 10 9 8 7 7 6 5
12 12 12 13 11 11 11 11 11 12 11 12 11 11 11 10 10 10 10 9 9 8 7 7 6 5 3 2 2 2 3 4 5 6 7 8 8 9 9 9 9 9 9 9 8 8 7 6 5
12 12 12 13 11 10 11 10 9 10 11 11 11 11 11 11 10 10 10 9 10 9 8 8 7 5 4 3 2 2 2 3 4 5 6 7 7 8 8 8 8 8 9 9 8 8 7 7 6
10 10 12 11 10 9 10 10 9 10 10 10 11 11 11 11 11 11 11 10 10 10 9 8 7 6 5 4 3 3 2 2 3 4 5 5 6 7 8 8 8 8 8 8 8 7 7 7 6
9 8 8 9 10 9 10 10 10 10 11 11 11 11 11 11 11 10 10 10 10 10 9 8 9 7 6 5 4 3 2 1 2 3 4 4 4 5 6 7 7 7 7 7 8 7 6 6 6
9 8 7 8 9 9 9 9 10 10 11 11 10 11 11 10 10 9 9 10 10 9 9 9 9 8 7 6 5 4 3 2 1 1 3 3 3 4 5 6 6 6 7 7 7 7 7 6 5
9 9 8 8 8 9 9 10 10 10 10 10 10 10 10 10 9 10 10 10 10 9 9 8 8 9 8 7 6 5 4 3 2 1 1 2 3 3 4 5 5 5 6 6 6 6 6 6 6
9 9 7 6 6 8 9 10 10 9 10 10 10 10 9 10 10 10 9 9 9 9 9 9 9 9 9 8 7 6 5 4 3 2 1 1 2 3 4 4 4 5 5 6 6 6 6 6 5
10 9 8 7 7 8 8 10 9 9 9 10 10 10 10 10 11 10 9 9 8 9 9 10 10 9 10 9 8 7 6 5 4 2 2 2 2 2 3 4 4 4 5 5 6 6 6 5 5
11 11 11 10 9 9 9 9 9 10 10 10 11 11 10 10 10 10 10 9 8 9 10 10 10 10 10 9 9 9 7 6 5 4 3 2 2 2 3 3 4 4 4 5 5 5 6 6 5
11 11 11 10 9 9 9 10 10 10 10 10 10 10 10 10 10 11 10 10 9 9 11 10 10 10 10 10 9 9 8 7 6 5 4 3 3 3 3 4 4 4 4 5 5 6 6 6 6
11 10 10 10 10 11 10 10 11 11 11 10 11 10 10 11 11 11 11 10 10 10 11 11 10 10 10 10 10 10 9 8 8 7 6 5 5 5 5 5 5 5 6 6 6 6 7 7 7

GEFSSGP_500_meanwind_174.txt.gz
Wind_Speed
1 1 1 0 1 1 1 1 1 1 1 1 1 2 1 2 2 2 2 2 2 3 2 3 3 3 4 4 4 4 4 4 4 4 4 3 3 3 3 3 3 3 4 5 5 6 6 6 7
2 2 3 2 2 3 3 2 1 1 1 2 2 2 3 2 2 2 2 2 2 2 2 2 3 3 4 4 4 4 4 4 4 4 4 3 3 3 3 3 3 4 4 5 6 6 6 7 7
4 3 4 4 4 4 3 3 2 1 2 3 3 3 3 2 2 2 1 1 2 2 2 2 3 3 4 4 4 4 4 4 4 4 3 4 4 4 4 3 4 4 5 5 6 6 7 7 7
4 4 5 5 5 5 4 4 3 3 3 4 4 3 3 3 3 2 1 1 1 1 2 2 2 3 3 4 4 5 5 4 4 4 4 4 4 4 4 4 4 4 5 5 6 6 8 9 8
5 5 6 6 6 5 5 4 4 4 4 4 4 4 4 4 4 3 2 1 1 1 2 2 2 3 3 4 4 4 4 5 5 5 5 5 5 5 5 4 4 4 5 5 6 7 7 9 9
6 6 7 7 7 6 5 5 4 4 4 4 4 4 4 4 4 4 3 2 1 0 1 2 3 3 3 4 4 4 4 5 5 5 5 6 5 6 5 5 4 5 5 5 6 7 7 8 9
7 7 7 7 7 7 6 5 4 4 5 5 5 5 4 4 4 4 3 2 2 1 1 2 3 3 3 3 4 4 4 5 5 6 6 6 6 6 5 5 5 5 5 5 6 6 7 8 9
8 8 8 8 7 7 7 6 5 5 5 5 5 5 4 4 3 3 3 2 2 2 1 1 2 3 3 3 3 4 5 5 5 6 7 7 7 6 6 6 5 5 5 5 5 6 7 8 9
9 9 8 8 8 8 8 7 5 5 5 5 5 4 3 3 3 3 3 2 2 1 1 1 2 2 3 3 3 4 5 6 6 7 8 8 7 7 7 7 6 5 4 4 4 5 6 7 8
10 10 9 9 9 9 8 7 6 5 6 5 5 5 4 3 3 3 4 3 2 1 1 0 1 2 3 2 3 4 5 6 7 8 8 8 8 8 8 7 6 5 4 3 3 3 4 6 7
10 10 10 10 9 9 8 7 6 6 6 6 6 5 4 3 3 3 3 3 3 2 2 1 1 2 2 2 3 4 5 6 7 8 8 8 8 8 8 8 6 5 4 2 1 2 3 5 7
11 11 11 10 9 9 7 7 7 6 6 7 6 6 5 4 4 5 4 4 4 3 2 2 1 1 2 2 3 4 5 6 7 8 8 8 8 8 9 8 7 5 4 3 1 1 3 5 6
11 11 10 9 9 9 8 7 8 8 7 7 6 5 6 6 5 5 5 5 4 4 3 2 1 1 2 2 2 4 5 6 7 7 8 8 8 9 9 8 7 6 5 4 2 1 2 4 5
11 11 10 10 9 9 9 8 8 9 7 7 6 6 6 6 5 5 5 4 4 4 4 3 2 1 1 2 2 3 5 6 6 7 8 8 8 9 8 8 8 7 6 5 4 3 2 4 4
11 10 10 10 10 9 9 9 9 8 8 8 7 6 6 6 5 5 5 4 4 4 4 3 2 1 1 1 2 3 5 5 6 7 8 8 8 8 9 8 8 7 7 6 5 4 2 3 3
10 10 10 10 10 10 10 9 8 8 8 8 8 8 7 7 6 7 6 4 4 4 4 4 3 2 1 1 2 3 4 5 6 7 7 8 8 8 8 8 8 8 7 6 5 4 3 3 3
10 10 10 10 11 11 10 9 9 8 8 8 8 8 8 7 7 7 6 5 4 4 3 4 4 3 1 1 2 2 3 4 5 6 7 7 8 8 8 8 8 8 7 7 6 5 4 4 3
10 11 10 11 10 10 10 9 9 9 8 8 8 8 8 7 7 7 7 6 6 5 4 3 4 3 1 0 1 1 3 4 5 6 6 7 7 8 8 8 8 7 7 7 6 5 5 4 3
11 10 9 9 9 9 9 9 9 9 9 9 8 8 8 8 7 7 7 6 6 5 5 4 5 3 2 1 0 1 2 3 4 5 6 6 7 7 7 7 8 8 7 7 6 6 5 5 4
10 9 9 8 9 9 8 8 8 9 9 9 9 9 8 7 7 7 8 7 7 6 6 6 5 5 4 2 1 0 2 2 3 4 5 5 6 6 6 7 7 7 7 7 6 6 5 4 4
9 10 9 8 8 8 8 8 9 9 9 9 9 9 8 7 7 7 7 8 8 7 7 7 6 6 5 3 2 1 1 2 3 4 5 5 5 6 6 7 7 7 7 7 7 6 5 4 4
9 9 9 9 9 8 8 7 8 8 8 9 10 10 9 8 7 7 8 8 8 7 7 7 7 7 6 4 3 2 1 1 2 3 4 4 5 5 6 6 7 7 6 6 6 6 5 5 4
9 9 9 8 7 8 8 7 7 7 8 8 9 10 10 8 7 7 8 9 9 8 8 8 8 8 7 5 4 3 2 1 1 3 3 3 4 5 5 6 6 6 6 6 6 5 5 5 5
9 9 8 7 7 8 8 8 6 6 7 7 9 10 10 9 8 8 9 9 9 8 8 8 8 8 7 6 6 4 3 2 1 1 2 2 3 4 5 5 6 6 7 7 6 6 6 6 5
8 8 8 8 7 7 8 7 6 6 7 8 8 9 9 9 9 8 9 9 9 9 9 9 8 7 7 6 6 5 4 3 2 0 1 2 3 4 5 5 5 5 6 6 6 6 6 6 5
8 8 8 8 8 7 7 7 7 7 8 8 8 8 9 9 9 9 9 9 9 8 9 9 8 7 7 7 7 6 5 4 3 2 2 1 1 2 3 4 4 5 5 5 5 5 5 5 4
9 7 8 9 8 8 7 7 8 8 8 8 8 8 8 9 9 9 9 9 9 9 8 9 8 8 7 8 8 7 6 5 4 3 3 2 1 1 2 2 3 4 4 4 4 4 4 4 3
10 8 9 9 9 7 7 7 7 7 7 8 8 8 8 8 9 10 10 9 10 10 9 8 8 8 8 8 8 8 7 6 5 5 4 3 2 2 2 2 3 3 4 4 4 4 4 4 4
11 10 10 9 9 9 8 6 6 6 7 7 8 8 9 8 9 9 10 10 10 10 9 9 9 9 9 9 9 8 7 7 7 6 5 4 3 3 3 3 3 3 4 4 4 4 5 5 5
11 11 10 10 10 10 8 7 7 7 7 8 8 9 9 9 9 9 10 10 10 10 10 9 10 10 9 9 10 9 9 9 8 7 7 6 6 6 6 6 5 5 5 5 6 6 6 6 6

GEFSSGP_500_meanwind_180.txt.gz
Wind_Speed
3 2 2 2 2 2 2 2 2 1 2 2 3 2 2 2 2 2 2 3 3 2 2 2 3 4 5 6 6 6 6 6 5 5 5 5 5 4 3 3 2 2 2 3 4 5 5 6 6
4 4 4 3 3 3 3 3 2 3 3 3 3 3 1 1 1 1 2 3 2 2 2 3 3 4 4 5 6 6 6 6 6 6 6 5 5 5 4 3 3 3 3 4 4 5 6 6 7
5 4 4 4 4 4 4 4 3 3 3 3 3 2 2 1 1 1 2 2 2 2 2 3 3 3 4 5 6 6 6 6 6 6 6 6 6 5 4 4 4 4 4 4 5 5 6 7 7
5 5 5 5 5 5 5 5 4 4 3 3 3 3 3 2 1 2 2 1 1 1 2 2 3 3 4 4 5 6 6 6 6 6 6 6 6 5 5 4 4 4 4 5 5 6 7 7 7
6 5 5 6 6 5 5 5 4 4 4 4 3 3 3 2 2 2 2 2 2 2 2 2 3 3 4 4 5 5 5 6 6 6 7 7 6 6 5 5 4 5 5 5 5 5 7 7 8
7 6 6 6 6 6 6 5 5 5 4 4 4 4 3 3 3 3 2 2 1 1 2 2 3 3 3 4 4 4 5 5 6 6 7 7 7 6 5 5 5 4 4 4 4 5 6 7 8
8 7 7 7 7 7 7 6 6 5 5 4 4 4 3 2 3 2 2 2 2 2 1 2 2 3 3 4 4 4 4 5 5 6 7 7 7 6 6 5 5 4 4 4 4 4 5 6 7
8 8 8 7 7 7 7 7 6 6 5 4 4 3 3 3 2 2 1 2 2 2 2 1 2 3 3 4 3 4 4 5 6 6 7 6 6 6 6 5 5 5 4 4 4 4 5 5 6
8 8 8 8 8 8 7 7 6 6 5 4 4 4 4 3 2 2 3 3 3 3 2 1 1 2 3 3 3 4 4 5 6 6 6 6 6 7 6 6 5 5 4 3 3 4 4 5 6
9 9 9 8 8 8 7 7 7 6 5 5 5 5 4 4 3 3 4 4 3 3 2 1 0 1 2 2 3 3 4 5 5 6 6 6 6 7 7 7 5 5 4 3 3 3 3 4 6
9 9 9 9 9 8 8 7 7 6 6 6 6 5 5 5 4 4 4 4 4 4 3 2 0 1 1 2 3 3 4 4 5 5 6 6 6 7 7 7 6 5 3 2 2 2 3 4 5
10 10 10 10 10 9 9 8 8 7 6 7 7 6 7 6 6 5 5 4 5 5 3 2 1 1 0 1 2 3 4 4 4 5 6 6 7 7 7 7 6 5 4 2 1 1 2 4 6
10 10 11 11 10 10 9 8 8 8 7 7 7 7 7 7 6 6 6 4 4 5 4 3 2 1 1 1 2 3 4 4 5 5 6 6 7 7 7 7 6 5 4 3 2 1 1 4 5
9 10 11 11 10 9 8 8 8 8 8 7 7 7 8 7 6 6 6 5 4 4 4 4 3 2 2 1 1 3 4 4 5 6 6 6 6 7 7 6 6 5 4 3 2 1 1 2 4
10 10 10 10 9 9 9 8 8 8 8 8 7 7 7 7 7 7 7 6 6 5 4 4 3 3 2 1 1 2 3 4 5 5 6 6 6 6 6 6 6 5 4 4 3 2 1 2 3
11 11 11 10 10 9 9 8 8 8 7 7 7 7 7 7 7 7 7 6 6 6 6 4 3 3 2 1 1 2 3 3 4 5 5 5 6 6 6 6 6 5 5 4 4 3 2 2 3
11 11 11 11 10 10 9 9 9 9 8 7 7 7 8 7 7 7 7 7 6 6 5 5 3 2 2 2 1 1 2 2 3 4 5 5 6 6 6 6 6 5 5 4 3 3 2 2 3
12 12 11 10 10 10 9 9 10 9 9 8 7 7 7 7 7 7 7 7 6 5 5 5 3 3 2 2 1 1 2 2 3 4 5 5 5 5 5 6 6 5 5 4 4 3 3 2 2
11 11 10 10 11 11 10 10 9 10 10 9 8 8 8 7 7 8 8 8 7 6 5 5 4 3 2 2 1 1 1 1 2 3 4 5 5 5 6 6 6 5 5 4 4 4 3 2 2
11 11 10 10 10 10 10 10 10 10 10 10 8 8 8 8 8 9 8 7 7 6 6 5 4 4 3 2 1 1 1 1 1 2 3 4 5 5 5 5 5 5 5 5 4 4 3 2 2
11 11 10 10 10 10 10 11 11 10 10 10 9 9 10 10 9 9 8 8 8 7 7 6 5 4 4 3 2 1 1 1 1 1 2 3 4 5 5 5 5 5 5 5 5 4 3 2 2
10 10 10 9 9 9 9 9 10 10 10 9 10 10 10 10 9 9 9 9 9 8 8 7 6 5 4 4 3 2 1 0 1 1 2 2 3 4 5 5 5 5 5 5 5 4 4 3 2
10 10 10 10 9 9 9 9 9 10 9 9 9 10 10 10 9 9 9 10 9 9 8 8 7 6 5 4 3 2 1 1 1 1 2 2 3 3 4 5 4 4 5 5 4 4 4 3 3
10 10 10 10 10 9 9 9 8 9 9 9 9 10 11 10 10 10 10 10 10 9 9 9 8 7 6 5 4 3 3 2 1 1 1 1 2 3 4 4 4 4 5 5 5 4 4 3 3
12 11 11 11 10 9 8 9 8 9 9 9 10 11 11 11 10 10 10 10 10 9 9 9 9 8 7 6 5 5 4 3 2 1 1 0 1 2 3 3 4 4 5 5 5 5 4 4 4
12 11 11 11 10 9 9 9 8 9 9 9 10 10 11 11 10 10 10 10 10 10 9 9 10 9 8 7 6 6 5 4 4 2 2 1 1 1 2 2 3 3 4 4 4 4 4 4 4
11 10 10 10 9 9 9 8 8 8 8 8 9 9 10 11 11 11 11 10 10 10 10 10 9 9 8 8 7 6 6 6 5 4 3 2 2 2 2 1 1 2 3 4 4 4 5 5 5
11 11 10 10 10 8 8 8 7 8 8 8 8 8 9 11 11 11 11 11 11 11 11 11 9 9 9 7 7 7 7 7 6 6 5 4 3 2 3 3 3 3 3 3 4 4 5 5 5
12 12 11 10 10 10 9 8 8 8 8 8 8 8 9 10 10 10 11 11 11 11 11 11 11 10 9 8 8 7 8 8 7 7 6 6 5 5 5 5 4 5 5 5 5 5 5 5 6
13 12 12 11 10 10 10 9 8 9 9 9 9 8 8 9 8 8 9 10 11 11 10 11 10 10 9 8 8 8 9 9 9 8 8 8 7 7 7 6 6 6 6 7 7 6 6 7 7

GEFSSGP_500_meanwind_186.txt.gz
Wind_Speed
2 3 3 3 3 3 2 2 2 1 1 1 1 1 1 1 2 1 1 1 1 1 2 2 2 2 2 2 3 3 3 3 3 3 3 2 1 0 0 1 2 3 4 4 5 6 7 7 8
3 3 3 3 3 3 3 3 2 2 2 2 1 1 0 1 1 0 1 1 1 1 1 1 1 2 2 2 2 2 3 2 2 2 2 2 1 1 1 1 2 3 4 4 5 6 7 7 8
3 3 3 3 4 3 3 3 3 2 2 1 1 1 1 1 1 1 1 0 0 0 0 1 1 2 2 2 2 2 3 2 2 2 3 2 2 1 2 2 2 3 3 4 4 5 6 7 8
3 4 4 4 4 3 3 4 3 2 2 1 1 2 2 2 2 2 1 0 0 0 0 1 1 2 2 2 2 2 3 3 2 2 3 2 2 2 2 2 3 3 3 4 4 5 6 7 8
4 4 4 4 4 4 4 4 4 2 2 2 2 2 2 2 2 2 2 1 1 1 1 0 1 2 2 2 2 2 3 3 2 2 3 3 3 2 2 2 2 3 3 4 4 5 6 7 8
4 4 4 5 5 5 5 5 4 3 3 2 3 3 2 2 3 3 3 2 2 2 1 1 1 2 2 2 2 2 2 3 3 3 3 3 3 2 2 2 2 2 3 4 4 5 5 7 8
4 4 5 5 6 6 6 5 5 4 3 3 3 3 3 3 3 2 3 2 3 2 2 2 1 1 2 2 2 2 2 3 3 4 4 3 3 2 2 2 2 2 2 3 4 5 6 6 7
5 5 6 6 6 6 6 6 5 5 4 4 4 4 3 3 3 3 3 3 2 2 2 2 1 2 2 2 2 2 2 3 3 4 4 4 3 2 2 2 2 2 2 3 4 5 6 7 7
6 6 6 6 7 6 6 6 6 6 5 5 5 5 4 4 3 3 3 3 3 3 2 2 2 2 2 2 2 2 2 3 3 4 4 4 3 3 3 2 2 2 3 3 4 4 5 7 8
6 6 6 7 7 7 6 6 6 7 6 6 6 6 5 4 4 3 3 3 3 4 3 3 2 2 2 2 2 2 2 3 3 4 4 4 4 4 4 3 3 2 2 3 3 4 5 7 8
7 7 7 7 7 7 7 7 7 7 7 7 6 6 6 5 5 4 4 4 4 4 4 4 3 3 2 1 1 2 2 3 3 4 4 4 4 4 3 3 3 3 2 2 2 3 5 6 7
8 8 7 8 7 7 7 7 7 7 7 7 7 6 6 6 6 5 5 5 5 4 5 4 4 4 3 1 1 2 2 3 4 4 4 4 5 4 3 3 3 2 2 2 2 2 4 6 7
7 7 7 8 8 8 7 7 7 8 8 8 7 7 6 6 7 6 6 5 5 5 5 5 5 4 3 2 1 2 2 3 4 4 4 5 5 4 3 3 2 1 0 1 1 2 3 5 6
7 7 8 8 8 8 8 8 8 8 8 8 8 7 6 6 6 7 7 6 6 6 6 6 5 4 3 3 2 2 2 3 3 3 4 4 4 4 3 2 1 1 1 0 0 1 2 4 6
8 8 8 8 8 7 7 8 8 8 8 8 8 8 7 7 7 7 7 7 7 6 6 6 6 5 4 4 3 2 2 2 2 3 3 4 4 4 3 2 2 1 1 1 1 0 1 3 5
8 9 9 8 8 7 8 8 8 8 8 7 7 8 7 7 7 7 8 7 7 6 6 6 6 5 4 4 3 2 2 2 2 2 3 4 4 3 3 3 2 2 2 2 1 1 0 2 4
9 9 9 9 8 8 9 9 9 9 8 8 8 8 7 7 7 7 8 7 7 6 6 5 5 5 4 4 3 3 2 2 2 2 3 3 3 3 3 3 3 3 3 2 2 2 1 2 3
9 9 9 8 8 9 9 9 9 9 9 9 9 8 8 8 8 8 7 8 8 7 7 6 6 5 5 4 4 3 2 2 2 2 2 2 3 3 3 3 2 2 2 3 2 2 2 2 2
8 9 9 9 9 9 8 8 9 9 9 9 9 8 8 8 8 8 8 8 8 8 8 7 7 6 5 4 4 3 2 2 2 1 1 2 2 2 3 3 3 3 3 3 2 2 2 1 1
7 8 9 9 8 8 8 8 8 9 9 9 9 9 9 9 8 7 8 8 8 8 8 8 7 6 5 5 4 4 3 2 2 1 1 2 2 2 3 2 2 3 3 3 3 3 2 1 0
8 9 9 8 8 8 9 9 9 10 9 9 10 10 9 9 8 8 8 8 9 9 9 8 8 7 6 5 4 4 3 2 2 1 1 1 2 2 3 2 2 2 3 2 3 3 2 2 1
8 9 9 8 7 8 8 8 9 9 9 9 10 10 10 9 8 8 8 9 8 9 8 8 8 7 6 6 4 4 3 2 2 1 0 1 2 2 3 3 2 2 2 2 2 2 1 1 1
9 9 8 8 8 8 8 8 8 9 9 9 10 10 10 10 9 8 9 9 8 9 8 8 8 7 6 6 5 4 3 2 2 2 1 0 1 2 3 3 3 3 2 2 2 1 1 1 1
9 9 8 8 8 7 7 7 7 8 9 10 10 10 10 10 9 9 9 9 9 9 9 9 9 7 6 6 5 5 4 4 4 3 2 1 0 2 2 2 3 3 3 2 2 2 1 1 2
9 8 8 8 8 8 7 7 7 7 7 8 9 9 10 10 10 9 9 9 10 10 10 9 9 8 8 8 6 6 5 5 5 4 3 3 2 1 1 1 2 2 2 3 3 2 2 2 2
9 9 9 9 9 8 8 7 7 7 7 7 8 8 8 9 9 9 9 9 10 10 10 10 9 8 8 8 8 6 6 6 6 5 4 4 3 2 1 1 1 1 2 2 3 2 2 2 2
9 9 9 9 9 9 8 7 8 8 7 7 7 7 7 8 8 9 9 9 10 10 10 10 10 9 8 8 8 7 7 6 6 5 5 4 4 3 2 2 1 1 1 1 2 2 3 2 2
10 9 9 9 9 9 9 8 8 7 7 7 7 7 7 7 8 8 8 9 9 10 10 10 9 9 9 9 9 8 7 6 6 6 6 5 5 5 5 4 4 3 3 3 3 3 4 4 4
10 10 9 9 9 9 9 8 7 7 7 6 7 6 7 7 8 8 8 8 8 9 9 10 9 9 8 8 8 8 7 7 6 7 7 6 6 6 6 6 6 5 5 5 5 5 6 6 6
12 11 10 10 10 10 10 9 8 7 7 7 6 6 6 7 8 8 8 8 8 8 9 9 9 9 9 8 8 8 8 8 7 7 7 7 7 7 7 7 7 7 7 7 7 7 7 8 8

GEFSSGP_500_meanwind_192.txt.gz
Wind_Speed
4 4 5 5 5 5 5 5 5 5 5 4 4 3 2 3 3 4 4 3 3 2 2 2 2 2 2 3 3 2 2 3 3 2 2 2 2 1 2 2 3 4 4 4 5 5 6 6 7
4 5 5 5 5 5 5 5 6 6 5 5 4 4 3 4 4 4 4 3 3 3 3 2 2 3 3 3 3 3 3 4 4 3 2 2 2 1 2 2 3 4 5 5 5 6 6 6 8
4 4 5 5 5 5 5 6 6 6 5 5 5 4 4 4 4 4 4 4 4 4 3 3 2 3 4 4 4 4 4 4 4 3 3 2 2 2 2 2 3 4 4 5 6 6 6 7 8
4 5 5 5 6 6 6 6 6 6 5 5 5 4 4 5 5 5 5 5 4 4 3 3 3 3 3 4 4 4 4 4 4 3 3 3 3 3 3 3 3 4 5 5 6 6 6 6 6
4 5 5 5 6 7 7 7 7 7 6 6 6 5 5 6 6 5 6 6 5 4 4 4 3 4 3 3 4 4 4 4 3 3 3 3 3 4 3 3 4 4 5 5 6 6 6 6 7
5 5 5 6 6 7 8 8 7 7 7 7 6 6 6 6 6 5 6 6 6 5 5 5 4 4 3 3 3 4 4 3 3 3 3 3 3 3 3 4 4 5 5 5 6 6 7 7 7
6 6 6 6 7 7 8 8 8 8 7 7 7 6 6 6 6 6 6 6 6 5 5 5 5 4 4 4 3 3 4 3 3 3 3 3 4 4 4 4 5 5 5 5 6 6 6 7 7
6 7 7 7 7 8 8 8 8 8 8 8 8 7 7 6 6 6 6 6 6 6 5 5 5 4 4 4 3 4 4 4 3 4 4 4 5 5 5 5 5 5 5 5 5 6 6 7 7
8 8 8 8 8 8 9 9 9 9 8 8 8 8 7 7 6 6 6 6 6 5 5 5 5 4 4 4 3 4 4 4 4 4 4 5 5 5 5 5 5 5 5 5 5 6 6 7 7
8 8 8 9 9 9 9 9 10 9 8 8 8 8 8 7 7 6 6 5 5 5 5 5 5 4 4 3 4 4 4 4 4 4 5 5 5 5 5 5 5 5 5 5 5 5 6 6 7
8 9 9 9 10 10 10 10 10 9 9 8 8 8 7 7 6 6 5 5 4 4 5 5 4 4 4 4 4 4 4 4 5 5 5 5 6 6 5 5 5 5 4 4 4 4 5 5 6
9 9 9 9 10 10 10 10 10 9 9 9 8 8 8 7 6 6 5 5 4 5 5 5 4 4 4 4 4 4 4 4 5 6 6 6 6 5 5 5 4 4 3 3 3 3 4 5 5
9 9 9 9 10 10 10 10 10 10 10 10 9 8 8 8 8 7 6 5 5 5 5 6 5 5 4 4 4 4 4 4 5 6 7 7 6 5 5 4 4 3 3 3 3 3 4 4 5
8 8 8 9 10 10 10 10 10 10 10 10 9 9 8 9 9 8 7 6 6 6 5 6 5 5 4 4 4 4 4 4 5 6 6 7 7 6 5 4 4 3 3 3 3 3 3 4 4
8 8 9 9 9 10 10 10 10 10 10 10 9 9 9 9 9 9 8 7 7 6 6 6 5 5 5 4 4 4 4 4 5 6 6 7 7 6 5 4 4 3 3 3 3 3 3 3 2
8 9 9 9 9 10 10 10 10 10 10 10 9 10 9 9 8 8 8 7 7 7 6 6 5 5 5 5 4 4 4 4 5 6 6 6 6 5 5 5 4 4 4 4 3 3 3 2 2
8 9 10 10 10 10 10 10 10 10 10 10 10 10 9 8 8 8 8 7 8 7 6 5 5 5 5 5 4 4 4 4 4 5 6 6 6 5 5 5 4 4 4 4 3 3 2 2 2
8 9 10 10 10 10 10 10 10 10 10 10 9 9 9 8 8 8 8 7 7 7 7 6 6 5 5 5 4 4 4 4 4 5 4 5 5 5 5 5 4 4 3 4 4 3 3 2 2
9 9 9 10 10 10 10 10 11 11 10 10 9 10 10 10 9 9 8 7 7 6 6 5 6 5 5 5 4 4 4 4 4 4 3 4 5 5 5 4 4 4 4 3 3 3 3 3 3
9 10 10 9 9 10 10 10 11 10 10 11 10 11 10 10 10 9 8 7 7 6 6 6 5 6 5 5 4 4 4 4 4 3 3 4 5 5 5 4 4 4 4 3 3 3 3 3 3
10 10 10 9 10 10 10 10 11 10 11 11 11 10 10 11 9 9 8 7 7 6 6 6 6 5 5 4 4 3 3 3 3 3 3 3 4 4 5 5 4 4 4 3 3 3 3 3 3
10 9 10 10 10 10 10 11 11 11 10 10 11 10 10 10 9 9 8 7 7 6 6 6 7 6 5 4 4 4 4 3 2 2 3 3 3 4 4 5 4 4 4 3 3 3 3 3 3
10 9 10 10 9 9 9 11 11 11 11 10 10 9 9 9 9 9 8 7 7 7 7 7 7 7 6 5 4 4 4 3 3 3 3 3 3 3 4 4 4 4 4 3 3 3 3 3 4
10 10 10 9 9 9 9 10 11 11 11 10 9 8 8 8 8 9 7 7 7 7 7 7 7 6 6 5 5 4 5 5 4 4 4 3 2 3 4 4 4 4 4 4 4 3 3 4 4
10 10 9 9 9 9 9 10 10 10 10 9 8 8 8 8 8 8 7 7 6 6 6 6 6 7 7 6 5 5 5 5 5 5 4 3 2 3 3 4 4 4 4 3 4 4 4 4 5
9 9 8 7 7 8 9 9 10 10 9 9 9 9 9 9 8 8 7 6 6 6 6 6 7 7 7 6 6 6 6 6 5 5 4 3 3 3 4 4 4 4 4 4 4 4 4 5 5
10 9 8 8 8 8 8 10 10 9 9 9 9 10 10 10 9 9 8 7 7 6 6 6 6 7 7 6 6 6 6 6 6 5 4 4 4 4 4 4 5 5 4 5 5 5 6 6 6
10 10 9 9 8 9 9 10 11 9 9 9 10 10 11 11 10 10 9 8 8 7 7 6 6 6 6 6 5 5 5 6 6 5 4 4 5 5 5 5 6 6 6 6 6 6 7 7 7
10 10 10 10 9 9 10 11 12 12 10 9 10 11 11 11 10 10 9 8 8 8 7 7 6 7 6 6 5 5 5 4 4 5 5 5 5 5 6 6 7 7 8 8 8 8 8 8 9
11 11 11 11 11 11 11 11 13 13 11 10 11 11 11 10 9 8 8 8 9 8 8 7 7 7 7 7 6 6 6 6 6 6 6 6 6 6 7 7 8 8 9 9 9 9 9 10 10

GEFSSGP_500_meanwind_198.txt.gz
Wind_Speed
3 3 4 4 4 4 3 4 5 5 4 3 3 3 3 3 3 3 3 3 3 3 2 2 2 2 2 2 2 2 3 3 2 2 2 2 3 3 3 4 4 5 5 6 6 6 6 7 7
3 3 4 4 4 4 4 5 5 5 4 4 3 3 3 3 3 3 3 3 3 3 3 2 2 2 2 3 3 3 3 3 3 2 2 3 3 4 4 4 4 5 5 6 6 6 6 7 7
4 4 4 4 4 4 5 6 5 6 6 4 3 3 3 2 2 3 3 3 3 3 3 2 2 2 3 3 3 3 3 3 3 2 2 2 3 4 4 4 4 5 5 6 6 6 6 7 7
4 4 5 5 5 5 5 6 6 7 7 5 4 3 3 2 2 3 3 3 3 3 2 3 2 2 2 2 2 3 3 3 3 2 3 2 2 3 4 4 4 5 5 6 6 6 6 7 7
4 5 6 6 5 5 5 5 5 6 6 5 5 3 3 3 3 3 3 3 3 3 3 3 3 3 3 3 2 2 2 3 4 2 3 2 2 2 3 3 4 4 5 5 6 6 7 7 7
5 6 7 6 6 6 5 5 5 4 5 5 5 4 4 3 3 4 3 3 3 4 3 3 4 4 3 3 2 2 2 3 4 3 3 2 3 3 4 4 4 5 5 5 6 7 7 7 7
6 7 7 6 5 6 6 5 5 5 6 6 5 5 4 4 3 3 3 3 3 4 4 4 4 4 3 3 2 2 3 3 3 4 3 3 4 4 4 4 5 5 5 5 6 6 6 6 7
6 7 6 6 5 6 6 5 5 6 6 6 5 5 5 4 3 3 3 3 3 3 4 4 4 4 4 3 2 2 3 3 3 4 3 3 4 4 4 4 5 5 5 5 5 6 6 6 6
7 7 6 5 5 5 6 6 6 6 7 6 6 5 5 4 4 3 3 3 3 3 3 3 4 3 3 2 2 2 3 3 3 4 3 3 4 4 4 4 4 4 5 5 6 6 6 6 6
7 7 6 6 5 5 5 6 6 6 7 6 5 4 4 4 4 3 3 3 3 4 3 3 3 3 2 2 2 2 3 3 3 4 3 3 4 4 4 4 4 3 4 5 5 5 6 6 6
7 6 6 6 5 5 6 6 6 6 6 6 5 4 4 4 3 4 4 3 3 2 3 3 3 2 2 1 2 2 2 2 3 4 4 3 3 3 4 3 3 3 4 4 4 5 5 5 6
7 6 6 6 7 7 6 6 6 6 6 5 5 5 4 3 3 4 4 3 3 2 2 2 2 1 1 1 2 1 2 2 3 3 3 3 3 3 3 3 3 3 3 3 3 3 4 4 5
7 6 6 6 7 7 7 6 6 7 6 5 5 6 5 4 4 4 4 4 4 3 2 3 2 1 1 2 1 1 2 2 3 3 3 3 3 3 2 2 2 3 3 2 3 3 3 3 4
6 6 6 6 6 7 7 7 6 6 6 6 6 6 6 5 4 4 4 4 3 3 2 3 2 2 2 2 2 1 1 2 2 3 2 2 2 3 2 2 2 2 2 2 2 2 2 2 3
6 6 6 6 6 7 7 7 6 6 6 5 6 6 6 5 5 4 4 4 4 4 3 2 3 3 3 3 3 2 2 2 2 2 2 1 2 3 3 2 2 2 2 2 2 1 1 1 2
6 6 6 6 6 6 6 7 6 5 6 5 5 6 6 6 5 4 4 5 4 4 3 3 3 3 3 4 3 3 2 3 3 2 2 1 1 2 3 2 2 2 2 1 1 2 1 1 1
6 7 6 6 6 6 6 6 6 6 6 6 5 6 6 6 5 5 4 5 4 4 3 3 4 4 4 4 3 3 3 3 3 2 1 1 1 2 3 2 2 2 1 1 1 2 1 1 1
7 7 6 6 6 6 6 6 6 6 6 6 6 6 6 6 5 5 4 4 3 3 4 4 4 4 4 3 3 3 3 3 2 1 1 1 1 2 2 2 2 2 2 1 1 1 1 1 1
8 7 7 7 6 7 6 7 7 6 6 7 6 6 5 6 5 4 4 4 4 4 4 4 4 4 4 4 3 3 3 3 2 1 1 1 2 2 2 2 3 2 2 2 2 2 1 1 1
7 7 7 7 7 7 7 7 7 6 6 6 6 6 5 5 4 4 4 4 3 3 4 4 3 3 3 3 3 3 3 3 2 1 1 1 2 1 2 2 2 2 2 2 2 2 2 1 1
7 7 7 7 7 7 7 6 6 6 6 6 6 5 4 5 5 4 4 3 3 4 4 3 3 3 3 3 3 3 2 2 1 1 1 1 1 1 1 2 3 3 2 2 2 2 2 2 2
6 7 7 7 7 7 7 6 7 7 6 5 5 5 4 5 4 4 4 4 3 3 4 3 3 3 4 3 3 3 3 2 2 2 2 1 1 1 1 1 2 2 2 2 2 2 2 2 2
7 7 7 7 7 6 6 6 6 6 6 5 5 4 4 4 4 4 4 4 4 4 4 3 4 4 4 4 3 3 4 4 3 2 2 1 1 1 2 1 2 2 2 2 2 2 2 2 3
7 7 7 7 7 6 6 6 5 5 5 5 5 4 4 4 4 3 4 4 4 4 4 3 3 4 4 4 3 3 3 4 4 3 3 3 2 2 2 2 1 1 1 1 1 1 2 2 3
6 6 7 7 6 5 6 6 5 5 4 5 5 4 4 5 4 4 4 5 5 5 5 4 4 4 4 3 3 3 4 4 4 4 4 3 3 2 2 2 2 2 2 2 2 2 2 3 4
6 6 7 8 7 6 6 6 5 5 5 4 5 5 6 5 5 4 5 5 5 5 5 5 5 4 4 4 3 3 2 3 4 4 4 4 3 3 3 3 3 3 3 3 3 3 4 4 5
7 7 8 8 7 7 7 7 6 6 6 5 5 5 6 6 6 6 6 5 5 5 5 4 4 5 5 5 4 3 2 2 2 3 4 4 4 4 4 3 3 3 4 4 4 5 5 5 6
8 8 8 8 8 8 8 8 7 7 6 6 6 6 6 6 6 6 6 5 5 5 5 4 5 5 5 5 4 3 3 3 3 3 3 4 4 4 4 5 5 5 5 5 5 6 6 6 6
9 9 9 9 9 9 9 8 7 7 7 7 7 7 7 7 6 6 5 5 5 5 5 5 5 6 6 6 5 5 4 4 5 4 4 4 4 4 5 5 5 5 5 6 6 6 7 7 7
10 10 10 10 10 10 10 8 8 8 8 8 7 7 7 7 6 6 6 6 6 6 6 6 6 6 7 7 6 6 6 6 6 6 6 6 6 6 6 6 6 6 6 6 7 7 7 8 8

GEFSSGP_500_meanwind_204.txt.gz
Wind_Speed
5 5 5 5 5 5 4 4 4 4 5 4 3 3 2 3 3 3 3 3 2 3 3 3 3 3 2 2 2 2 3 3 3 3 2 2 2 1 2 2 3 3 3 4 4 4 4 4 4
5 5 6 6 6 6 4 4 4 5 5 4 4 3 2 3 3 3 3 3 2 3 3 3 3 3 2 2 2 2 3 3 3 2 2 2 2 2 2 2 3 3 3 3 4 4 4 4 4
5 6 6 6 6 5 5 5 5 5 4 4 4 4 3 3 2 3 3 3 2 3 3 3 2 2 2 2 3 3 3 3 3 2 2 2 2 3 3 3 3 3 3 3 4 4 4 4 4
6 6 6 6 6 6 5 5 5 5 4 4 4 4 2 2 2 3 3 2 2 3 3 3 2 2 2 3 3 3 3 3 3 3 3 3 2 3 3 2 3 3 3 3 3 4 4 5 5
7 7 7 7 6 5 5 5 5 5 5 5 5 4 3 2 2 2 2 2 2 3 3 3 2 3 3 3 3 3 2 2 3 3 3 3 2 2 2 3 3 3 3 3 3 4 5 5 6
7 7 7 7 5 5 5 5 5 5 5 5 4 3 3 3 2 2 2 2 3 3 3 3 3 3 3 3 3 3 2 2 2 3 3 3 2 3 3 3 3 4 4 5 5 5 5 5 6
7 7 7 6 6 5 5 5 5 5 5 5 4 4 4 4 4 3 3 3 3 3 3 3 4 3 3 3 3 3 2 3 3 3 3 3 3 3 3 3 3 3 4 5 5 5 5 5 5
7 7 7 6 6 5 5 5 5 5 5 5 5 5 4 4 4 4 3 3 3 3 3 3 3 3 3 3 3 2 3 3 3 3 4 4 3 3 3 3 3 4 5 5 5 5 6 6 6
7 8 7 6 5 5 5 5 5 5 5 5 5 5 5 4 5 4 4 4 4 3 3 3 3 3 3 2 2 2 2 3 3 3 4 4 3 3 3 3 3 4 4 5 5 5 6 6 6
7 7 6 6 5 5 5 5 5 5 5 5 5 5 4 4 4 4 5 4 4 3 3 3 3 3 3 2 2 2 2 3 3 3 3 3 3 3 3 3 3 4 4 4 5 5 6 6 6
7 7 7 6 6 6 6 6 6 5 5 5 5 4 4 4 4 4 4 4 4 4 3 3 3 2 2 2 2 2 3 3 3 3 3 3 3 3 3 3 3 3 3 4 4 4 5 6 6
7 7 7 6 6 6 6 6 6 6 5 5 5 4 4 4 3 3 4 4 4 4 4 3 3 2 2 3 3 2 3 3 3 3 3 3 3 3 3 3 3 3 3 3 3 4 5 5 6
7 7 6 6 6 6 6 6 6 6 5 5 5 5 4 4 5 5 4 3 3 4 3 3 3 3 3 3 3 3 3 3 3 3 3 3 3 4 3 3 2 2 2 3 3 4 4 5 5
7 6 7 7 7 7 7 6 6 6 6 5 5 5 5 5 5 5 4 4 4 3 3 4 4 4 4 4 3 3 3 3 3 3 3 3 3 4 4 2 2 2 2 3 3 4 4 4 4
7 7 7 7 7 7 7 7 6 6 6 5 5 4 4 5 5 5 4 3 3 3 3 3 4 4 4 4 3 3 3 3 3 3 2 3 3 3 3 2 2 2 2 3 3 3 3 3 4
7 7 7 7 7 7 7 6 6 6 6 6 5 5 4 5 4 4 4 3 3 3 3 3 3 4 4 4 4 3 3 3 4 2 2 2 3 2 2 2 2 2 2 3 3 3 2 2 3
7 7 7 7 7 7 7 6 6 6 6 6 6 5 5 4 4 4 4 3 3 3 3 3 3 3 3 3 4 3 4 4 3 2 2 2 2 2 2 2 2 2 2 2 2 2 2 2 2
8 8 8 8 7 7 7 7 7 6 6 6 6 6 5 5 5 5 4 4 4 4 4 4 4 4 4 3 3 3 3 3 3 2 2 2 2 2 2 2 2 2 3 2 2 2 2 2 1
8 8 8 8 7 7 7 7 7 7 7 7 7 6 5 5 5 4 4 3 3 3 3 4 4 4 4 4 3 3 2 3 3 3 2 2 2 2 2 2 2 2 2 2 2 2 2 2 2
8 8 8 8 8 8 7 7 7 7 7 6 6 6 4 4 4 4 4 3 3 3 4 4 4 4 4 4 4 3 3 2 3 3 3 3 2 2 2 2 2 1 2 2 2 2 2 2 2
8 8 8 8 8 8 8 7 7 7 7 6 6 6 4 4 4 4 4 3 3 3 3 4 4 3 4 4 3 4 3 3 3 3 3 3 3 3 2 2 2 2 2 2 2 3 3 2 2
8 8 8 7 7 7 7 6 7 7 7 7 7 6 5 4 4 4 4 4 4 3 3 3 3 3 3 3 4 4 3 4 4 3 3 2 2 3 2 2 2 2 3 3 3 3 4 3 3
7 7 7 7 8 8 7 7 6 7 7 7 7 6 5 5 5 4 4 4 4 4 3 3 3 3 3 3 3 4 4 4 4 4 4 3 3 3 3 3 3 3 4 4 4 4 4 4 4
7 7 7 7 8 8 8 8 7 7 7 7 7 6 6 6 5 5 5 5 5 5 4 3 3 3 3 3 3 3 3 3 3 3 4 4 4 3 4 4 4 4 5 4 4 4 5 4 4
7 7 7 8 8 8 8 8 8 8 8 8 7 7 7 6 6 6 6 6 5 5 4 4 3 3 3 3 3 3 2 2 2 2 3 4 4 3 3 4 4 5 5 4 4 5 5 5 5
8 8 8 9 9 8 8 8 8 8 9 9 8 7 6 6 6 6 6 6 6 5 4 4 4 4 3 3 3 3 3 3 2 3 3 3 3 3 3 3 4 4 4 4 4 5 5 5 6
9 9 9 9 9 9 9 9 9 9 9 9 8 8 8 8 8 8 7 7 7 6 5 5 5 4 4 4 4 4 3 3 2 3 3 3 4 3 3 3 3 4 4 4 5 6 5 5 6
10 9 9 9 10 10 9 9 9 9 9 8 8 9 9 9 9 9 8 7 7 7 7 7 6 5 5 5 5 5 4 3 3 2 3 4 4 4 4 4 4 4 5 5 6 6 6 6 6
10 10 9 10 10 10 10 9 9 9 9 9 8 8 9 9 8 8 8 8 8 8 7 7 6 6 5 5 5 5 5 4 3 3 4 4 4 4 5 5 5 5 6 7 7 7 7 7 8
12 11 11 11 10 11 11 10 9 9 9 9 9 8 8 7 7 8 8 9 9 8 8 8 7 6 6 5 6 6 6 6 5 4 4 5 5 5 6 6 6 6 6 7 8 8 8 8 9

GEFSSGP_500_meanwind_210.txt.gz
Wind_Speed
4 4 5 4 4 4 4 4 4 3 3 2 2 1 1 1 1 1 1 1 1 1 1 1 1 1 1 2 2 2 2 2 2 2 2 2 2 2 3 3 4 4 3 4 4 4 5 5 6
4 5 5 5 5 5 4 4 4 3 3 2 2 1 1 1 1 1 1 1 1 1 1 2 1 1 1 2 2 2 2 2 2 2 2 2 2 3 3 3 4 3 3 4 4 4 5 5 6
4 5 5 5 5 4 4 4 3 3 3 3 2 1 1 1 2 2 2 1 1 1 1 2 1 1 2 2 2 2 2 3 2 2 2 2 2 3 3 3 4 4 4 5 6 5 5 5 6
5 6 5 5 5 4 4 4 4 4 4 3 2 2 2 2 2 2 1 1 1 1 1 2 2 2 2 2 2 2 3 3 3 2 2 3 2 2 3 4 4 4 4 5 6 5 5 6 6
6 6 6 5 4 4 4 4 4 4 4 4 2 2 2 2 2 2 1 2 1 1 2 2 2 3 3 3 3 3 3 3 3 2 2 3 3 3 3 4 4 4 4 5 5 6 6 6 6
6 6 6 5 4 4 4 4 4 4 5 4 3 3 3 2 2 1 1 2 2 2 2 2 2 3 3 3 3 3 4 3 3 3 3 3 4 4 3 4 4 5 5 5 5 5 6 6 6
6 5 5 5 4 4 4 4 4 5 4 4 4 3 3 2 1 1 1 1 2 2 2 2 2 3 3 4 3 3 4 4 3 3 4 4 4 4 4 4 5 5 5 5 5 6 6 6 6
6 5 5 4 4 4 4 4 5 5 5 5 4 4 3 2 2 2 2 2 2 2 3 3 3 3 4 4 3 3 4 4 4 4 4 4 4 4 4 4 4 6 6 6 6 6 6 6 7
6 5 5 4 4 4 4 4 4 5 5 5 5 4 4 3 3 3 3 3 3 3 3 4 3 4 4 3 3 4 4 4 4 5 5 5 4 5 5 5 5 6 6 6 6 6 6 7 7
5 5 4 4 4 4 4 4 5 5 5 6 5 5 4 4 3 3 3 3 3 3 4 4 4 4 4 3 3 4 4 4 4 4 4 5 5 5 5 5 5 6 6 6 6 7 6 7 7
5 5 4 4 4 4 4 5 5 5 5 6 6 5 5 4 4 3 3 3 3 4 4 4 4 4 3 3 3 3 3 3 3 3 4 4 5 5 5 5 5 5 6 6 6 6 6 6 7
4 5 4 4 4 4 5 5 5 5 5 5 5 5 5 4 4 3 3 3 4 4 4 4 4 4 3 4 3 3 4 4 3 3 3 4 4 4 4 5 4 4 4 5 5 5 5 6 6
4 4 4 4 4 4 4 4 5 5 6 5 5 5 5 4 4 4 3 3 4 3 3 4 4 4 3 3 3 3 4 4 4 3 3 4 4 3 3 4 4 4 4 5 5 5 5 5 6
4 4 4 5 5 5 4 5 5 5 6 6 5 5 4 5 5 4 3 3 3 3 2 3 3 4 3 3 3 3 3 3 3 3 3 3 3 3 3 3 3 4 4 4 4 4 5 6 5
4 4 4 5 5 5 5 5 6 6 6 6 6 6 5 5 5 4 3 3 3 3 3 3 3 3 3 3 4 3 3 3 3 3 2 2 2 2 2 2 3 3 3 3 3 3 4 5 5
4 4 4 4 5 5 5 6 6 6 6 6 5 5 5 5 4 3 3 3 3 3 3 3 3 3 4 4 4 4 4 4 3 3 3 2 2 2 2 2 2 2 2 3 3 3 3 4 4
4 4 4 4 5 5 6 6 6 6 6 6 6 6 5 5 4 4 4 3 3 4 4 4 4 4 4 4 5 4 4 4 4 3 2 3 2 2 3 2 2 1 2 2 2 3 3 3 3
4 4 4 4 4 5 5 7 7 6 6 7 7 7 6 6 6 5 4 4 4 4 4 4 4 4 4 4 4 4 4 4 4 3 2 2 2 2 3 1 1 2 1 1 2 2 3 3 2
5 4 4 4 4 4 5 6 7 7 7 7 7 7 6 6 6 6 5 4 4 4 5 5 5 5 5 4 4 4 4 5 5 4 3 3 3 2 2 1 1 1 1 1 2 2 3 3 2
5 5 4 4 4 4 5 6 7 7 7 7 7 6 6 6 6 6 5 5 5 5 5 5 5 5 5 5 5 5 4 4 5 5 4 4 4 3 2 2 2 1 1 2 1 2 3 3 3
5 5 4 4 4 4 5 5 7 7 7 6 6 6 6 6 6 6 5 5 5 5 5 5 5 5 5 6 5 5 5 4 5 5 5 5 5 4 3 3 2 2 2 2 3 3 3 3 3
5 5 4 3 3 4 5 5 6 7 6 6 6 6 6 6 6 5 5 6 6 6 6 6 5 5 5 5 4 5 5 5 5 5 5 5 5 4 3 3 3 3 3 3 3 3 3 3 3
6 5 5 4 4 5 6 6 6 7 6 6 6 7 6 6 6 6 6 6 6 6 6 6 5 5 5 5 4 4 5 4 5 4 4 4 4 4 4 4 4 4 3 3 3 4 4 4 3
6 5 5 5 5 5 6 6 6 7 7 6 7 7 6 6 6 6 6 6 6 6 6 5 5 5 5 5 5 5 5 5 5 4 4 4 4 5 4 4 4 4 4 4 4 4 4 4 4
6 6 6 6 6 6 6 7 7 8 7 7 7 7 6 6 6 6 7 7 6 6 6 6 6 5 6 6 5 5 5 5 5 4 4 4 4 4 5 4 4 4 5 4 5 5 5 5 5
7 6 7 7 7 8 8 8 8 8 8 8 8 7 7 7 7 7 7 7 7 7 6 6 6 6 6 6 5 5 5 5 5 5 4 5 5 5 5 5 4 5 5 5 5 5 5 5 5
8 7 8 8 8 9 9 9 8 8 8 8 8 8 8 7 7 8 8 8 7 7 7 7 6 6 6 6 5 5 5 5 5 5 5 5 5 5 5 5 5 5 5 5 5 5 5 6 6
9 9 9 8 9 9 9 9 9 8 8 8 8 8 7 7 7 8 8 8 8 7 8 7 7 6 6 6 6 6 6 5 5 5 5 5 5 5 4 5 5 6 6 5 5 5 5 6 6
10 10 10 10 10 9 9 9 9 9 9 8 8 8 8 8 8 8 8 8 8 8 8 8 7 6 6 6 7 7 6 6 6 6 6 5 5 5 4 4 5 5 6 5 5 6 6 6 7
11 11 11 10 10 10 10 10 9 9 9 9 9 9 9 9 9 9 8 9 9 9 9 8 7 7 7 7 7 7 7 7 7 6 6 6 6 5 5 5 5 5 5 6 6 7 7 7 7